[[{"header":{"parameterUnit":"m.s-1","parameterCategory":1,"la1":30.6,"la2":28.766,"lo1":-90.7593,"lo2":-88.6598,"dy":0.0162,"dx":0.0183,"nx":116,"ny":114,"refTime":"2023-09-03T12:00:00:Z","depth":0,"parameterNumber":2,"parameterNumberName":"U-component_of_WINDS"},"data":[0.0,0.0,0.0,0.0,0.0,0.0,0.0,0.0,0.0,0.0,0.0,0.0,0.0,0.0,0.0,0.0,0.0,0.0,0.0,0.0,0.0,0.0,0.0,0.0,0.0,0.0,0.0,0.0,0.0,0.0,0.0,0.0,0.0,0.0,0.0,0.0,0.0,0.0,0.0,0.0,0.0,0.0,0.0,0.0,0.0,0.0,0.0,0.0,0.0,0.0,0.0,0.0,0.0,0.0,0.0,0.0,0.0,0.0,0.0,0.0,0.0,0.0,0.0,0.0,0.0,0.0,0.0,0.0,0.0,0.0,0.0,0.0,0.0,0.0,0.0,0.0,0.0,0.0,0.0,0.0,0.0,0.0,0.0,0.0,0.0,0.0,0.0,0.0,0.0,0.0,0.0,0.0,0.0,0.0,0.0,0.0,0.0,0.0,0.0,0.0,0.0,0.0,0.0,0.0,0.0,0.0,0.0,0.0,0.0,0.0,0.0,0.0,0.0,0.0,0.0,0.0,0.0,0.0,0.0,0.0,0.0,0.0,0.0,0.0,0.0,0.0,0.0,0.0,0.0,0.0,0.0,0.0,0.0,0.0,0.0,0.0,0.0,0.0,0.0,0.0,0.0,0.0,0.0,0.0,0.0,0.0,0.0,0.0,0.0,0.0,0.0,0.0,0.0,0.0,0.0,0.0,0.0,0.0,0.0,0.0,0.0,0.0,0.0,0.0,0.0,0.0,0.0,0.0,0.0,0.0,0.0,0.0,0.0,0.0,0.0,0.0,0.0,0.0,0.0,0.0,0.0,0.0,0.0,0.0,0.0,0.0,0.0,0.0,0.0,0.0,0.0,0.0,0.0,0.0,0.0,0.0,0.0,0.0,0.0,0.0,0.0,0.0,0.0,0.0,0.0,0.0,0.0,0.0,0.0,0.0,0.0,0.0,0.0,0.0,0.0,0.0,0.0,0.0,0.0,0.0,0.0,0.0,0.0,0.0,0.0,0.0,0.0,0.0,0.0,0.0,0.0,0.0,0.0,0.0,0.0,0.0,0.0,0.0,0.0,0.0,0.0,0.0,0.0,0.0,0.0,0.0,0.0,0.0,0.0,0.0,0.0,0.0,0.0,0.0,0.0,0.0,0.0,0.0,0.0,0.0,0.0,0.0,0.0,0.0,0.0,0.0,0.0,0.0,0.0,0.0,0.0,0.0,0.0,0.0,0.0,0.0,0.0,0.0,0.0,0.0,0.0,0.0,0.0,0.0,0.0,0.0,0.0,0.0,0.0,0.0,0.0,0.0,0.0,0.0,0.0,0.0,0.0,0.0,0.0,0.0,0.0,0.0,0.0,0.0,0.0,0.0,0.0,0.0,0.0,0.0,0.0,0.0,0.0,0.0,0.0,0.0,0.0,0.0,0.0,0.0,0.0,0.0,0.0,0.0,0.0,0.0,0.0,0.0,0.0,0.0,0.0,0.0,0.0,0.0,0.0,0.0,0.0,0.0,0.0,0.0,0.0,0.0,0.0,0.0,0.0,0.0,0.0,0.0,0.0,0.0,0.0,0.0,0.0,0.0,0.0,0.0,0.0,0.0,0.0,0.0,0.0,0.0,0.0,0.0,0.0,0.0,0.0,0.0,0.0,0.0,0.0,0.0,0.0,0.0,0.0,0.0,0.0,0.0,0.0,0.0,0.0,0.0,0.0,0.0,0.0,0.0,0.0,0.0,0.0,0.0,0.0,0.0,0.0,0.0,0.0,0.0,0.0,0.0,0.0,0.0,0.0,0.0,0.0,0.0,0.0,0.0,0.0,0.0,0.0,0.0,0.0,0.0,0.0,0.0,0.0,0.0,0.0,0.0,0.0,0.0,0.0,0.0,0.0,0.0,0.0,0.0,0.0,0.0,0.0,0.0,0.0,0.0,0.0,0.0,0.0,0.0,0.0,0.0,0.0,0.0,0.0,0.0,0.0,0.0,0.0,0.0,0.0,0.0,0.0,0.0,0.0,0.0,0.0,0.0,0.0,0.0,0.0,0.0,0.0,0.0,0.0,0.0,0.0,0.0,0.0,0.0,0.0,0.0,0.0,0.0,0.0,0.0,0.0,0.0,0.0,0.0,0.0,0.0,0.0,0.0,0.0,0.0,0.0,0.0,0.0,0.0,0.0,0.0,0.0,0.0,0.0,0.0,0.0,0.0,0.0,0.0,0.0,0.0,0.0,0.0,0.0,0.0,0.0,0.0,0.0,0.0,0.0,0.0,0.0,0.0,0.0,0.0,0.0,0.0,0.0,0.0,0.0,0.0,0.0,0.0,0.0,0.0,0.0,0.0,0.0,0.0,0.0,0.0,0.0,0.0,0.0,0.0,0.0,0.0,0.0,0.0,0.0,0.0,0.0,0.0,0.0,0.0,0.0,0.0,0.0,0.0,0.0,0.0,0.0,0.0,0.0,0.0,0.0,0.0,0.0,0.0,0.0,0.0,0.0,0.0,0.0,0.0,0.0,0.0,0.0,0.0,0.0,0.0,0.0,0.0,0.0,0.0,0.0,0.0,0.0,0.0,0.0,0.0,0.0,0.0,0.0,0.0,0.0,0.0,0.0,0.0,0.0,0.0,0.0,0.0,0.0,0.0,0.0,0.0,0.0,0.0,0.0,0.0,0.0,0.0,0.0,0.0,0.0,0.0,0.0,0.0,0.0,0.0,0.0,0.0,0.0,0.0,0.0,0.0,0.0,0.0,0.0,0.0,0.0,0.0,0.0,0.0,0.0,0.0,0.0,0.0,0.0,0.0,0.0,0.0,0.0,0.0,0.0,0.0,0.0,0.0,0.0,0.0,0.0,0.0,0.0,0.0,0.0,0.0,0.0,0.0,0.0,0.0,0.0,0.0,0.0,0.0,0.0,0.0,0.0,0.0,0.0,0.0,0.0,0.0,0.0,0.0,0.0,0.0,0.0,0.0,0.0,0.0,0.0,0.0,0.0,0.0,0.0,0.0,0.0,0.0,0.0,0.0,0.0,0.0,0.0,0.0,0.0,0.0,0.0,0.0,0.0,0.0,0.0,0.0,0.0,0.0,0.0,0.0,0.0,0.0,0.0,0.0,0.0,0.0,0.0,0.0,0.0,0.0,0.0,0.0,0.0,0.0,0.0,0.0,0.0,0.0,0.0,0.0,0.0,0.0,0.0,0.0,0.0,0.0,0.0,0.0,0.0,0.0,0.0,0.0,0.0,0.0,0.0,0.0,0.0,0.0,0.0,0.0,0.0,0.0,0.0,0.0,0.0,0.0,0.0,0.0,0.0,0.0,0.0,0.0,0.0,0.0,0.0,0.0,0.0,0.0,0.0,0.0,0.0,0.0,0.0,0.0,0.0,0.0,0.0,0.0,0.0,0.0,0.0,0.0,0.0,0.0,0.0,0.0,0.0,0.0,0.0,0.0,0.0,0.0,0.0,0.0,0.0,0.0,0.0,0.0,0.0,0.0,0.0,0.0,0.0,0.0,0.0,0.0,0.0,0.0,0.0,0.0,0.0,0.0,0.0,0.0,0.0,0.0,0.0,0.0,0.0,0.0,0.0,0.0,0.0,0.0,0.0,0.0,0.0,0.0,0.0,0.0,0.0,0.0,0.0,0.0,0.0,0.0,0.0,0.0,0.0,0.0,0.0,0.0,0.0,0.0,0.0,0.0,0.0,0.0,0.0,0.0,0.0,0.0,0.0,0.0,0.0,0.0,0.0,0.0,0.0,0.0,0.0,0.0,0.0,0.0,0.0,0.0,0.0,0.0,0.0,0.0,0.0,0.0,0.0,0.0,0.0,0.0,0.0,0.0,0.0,0.0,0.0,0.0,0.0,0.0,0.0,0.0,0.0,0.0,0.0,0.0,0.0,0.0,0.0,0.0,0.0,0.0,0.0,0.0,0.0,0.0,0.0,0.0,0.0,0.0,0.0,0.0,0.0,0.0,0.0,0.0,0.0,0.0,0.0,0.0,0.0,0.0,0.0,0.0,0.0,0.0,0.0,0.0,0.0,0.0,0.0,0.0,0.0,0.0,0.0,0.0,0.0,0.0,0.0,0.0,0.0,0.0,0.0,0.0,0.0,0.0,0.0,0.0,0.0,0.0,0.0,0.0,0.0,0.0,0.0,0.0,0.0,0.0,0.0,0.0,0.0,0.0,0.0,0.0,0.0,0.0,0.0,0.0,0.0,0.0,0.0,0.0,0.0,0.0,0.0,0.0,0.0,0.0,0.0,0.0,0.0,0.0,0.0,0.0,0.0,0.0,0.0,0.0,0.0,0.0,0.0,0.0,0.0,0.0,0.0,0.0,0.0,0.0,0.0,0.0,0.0,0.0,0.0,0.0,0.0,0.0,0.0,0.0,0.0,0.0,0.0,0.0,0.0,0.0,0.0,0.0,0.0,0.0,0.0,0.0,0.0,0.0,0.0,0.0,0.0,0.0,0.0,0.0,0.0,0.0,0.0,0.0,0.0,0.0,0.0,0.0,0.0,0.0,0.0,0.0,0.0,0.0,0.0,0.0,0.0,0.0,0.0,0.0,0.0,0.0,0.0,0.0,0.0,0.0,0.0,0.0,0.0,0.0,0.0,0.0,0.0,0.0,0.0,0.0,0.0,0.0,0.0,0.0,0.0,0.0,0.0,0.0,0.0,0.0,0.0,0.0,0.0,0.0,0.0,0.0,0.0,0.0,0.0,0.0,0.0,0.0,0.0,0.0,0.0,0.0,0.0,0.0,0.0,0.0,0.0,0.0,0.0,0.0,0.0,0.0,0.0,0.0,0.0,0.0,0.0,0.0,0.0,0.0,0.0,0.0,0.0,0.0,0.0,0.0,0.0,0.0,0.0,0.0,0.0,0.0,0.0,0.0,0.0,0.0,0.0,0.0,0.0,0.0,0.0,0.0,0.0,0.0,0.0,0.0,0.0,0.0,0.0,0.0,0.0,0.0,0.0,0.0,0.0,0.0,0.0,0.0,0.0,0.0,0.0,0.0,0.0,0.0,0.0,0.0,0.0,0.0,0.0,0.0,0.0,0.0,0.0,0.0,0.0,0.0,0.0,0.0,0.0,0.0,0.0,0.0,0.0,0.0,0.0,0.0,0.0,0.0,0.0,0.0,0.0,0.0,0.0,0.0,0.0,0.0,0.0,0.0,0.0,0.0,0.0,0.0,0.0,0.0,0.0,0.0,0.0,0.0,0.0,0.0,0.0,0.0,0.0,0.0,0.0,0.0,0.0,0.0,0.0,0.0,0.0,0.0,0.0,0.0,0.0,0.0,0.0,0.0,0.0,0.0,0.0,0.0,0.0,0.0,0.0,0.0,0.0,0.0,0.0,0.0,0.0,0.0,0.0,0.0,0.0,0.0,0.0,0.0,0.0,0.0,0.0,0.0,0.0,0.0,0.0,0.0,0.0,0.0,0.0,0.0,0.0,0.0,0.0,0.0,0.0,0.0,0.0,0.0,0.0,0.0,0.0,0.0,0.0,0.0,0.0,0.0,0.0,0.0,0.0,0.0,0.0,0.0,0.0,0.0,0.0,0.0,0.0,0.0,0.0,0.0,0.0,0.0,0.0,0.0,0.0,0.0,0.0,0.0,0.0,0.0,0.0,0.0,0.0,0.0,0.0,0.0,0.0,0.0,0.0,0.0,0.0,0.0,0.0,0.0,0.0,0.0,0.0,0.0,0.0,0.0,0.0,0.0,0.0,0.0,0.0,0.0,0.0,0.0,0.0,0.0,0.0,0.0,0.0,0.0,0.0,0.0,0.0,0.0,0.0,0.0,0.0,0.0,0.0,0.0,0.0,0.0,0.0,0.0,0.0,0.0,0.0,0.0,0.0,0.0,0.0,0.0,0.0,0.0,0.0,0.0,0.0,0.0,0.0,0.0,0.0,0.0,0.0,0.0,0.0,0.0,0.0,0.0,0.0,0.0,0.0,0.0,0.0,0.0,0.0,0.0,0.0,0.0,0.0,0.0,0.0,0.0,0.0,0.0,0.0,0.0,0.0,0.0,0.0,0.0,0.0,0.0,0.0,0.0,0.0,0.0,0.0,0.0,0.0,0.0,0.0,0.0,0.0,0.0,0.0,0.0,0.0,0.0,0.0,0.0,-2.8184,-2.6155,0.0,0.0,0.0,0.0,0.0,0.0,0.0,0.0,0.0,0.0,0.0,0.0,0.0,0.0,0.0,0.0,0.0,0.0,0.0,0.0,0.0,0.0,0.0,0.0,0.0,0.0,0.0,0.0,0.0,0.0,0.0,0.0,0.0,0.0,0.0,0.0,0.0,-2.6033,-2.6422,-2.6542,-2.6512,-2.7448,-2.7229,-2.6084,0.0,0.0,0.0,0.0,0.0,0.0,0.0,0.0,0.0,0.0,0.0,0.0,0.0,0.0,0.0,0.0,0.0,0.0,0.0,0.0,0.0,0.0,0.0,0.0,0.0,0.0,0.0,0.0,0.0,0.0,0.0,0.0,0.0,0.0,0.0,0.0,0.0,0.0,0.0,0.0,0.0,0.0,0.0,0.0,0.0,0.0,0.0,0.0,0.0,0.0,0.0,0.0,0.0,0.0,0.0,0.0,0.0,0.0,0.0,0.0,0.0,0.0,0.0,0.0,0.0,0.0,0.0,0.0,0.0,0.0,-3.2286,-3.0218,0.0,0.0,0.0,0.0,0.0,0.0,0.0,0.0,0.0,0.0,0.0,0.0,0.0,0.0,0.0,0.0,0.0,0.0,0.0,0.0,0.0,0.0,0.0,-2.2383,-2.2215,-2.1026,-2.2034,-2.2523,0.0,0.0,0.0,0.0,0.0,0.0,0.0,-2.4903,-2.5764,-2.7435,-2.6896,-2.7739,-2.9953,-3.0883,-2.9717,-2.6841,-2.7141,0.0,0.0,0.0,0.0,0.0,0.0,0.0,0.0,0.0,0.0,0.0,0.0,0.0,0.0,0.0,0.0,0.0,0.0,0.0,0.0,0.0,0.0,0.0,0.0,0.0,0.0,0.0,0.0,0.0,0.0,0.0,0.0,0.0,0.0,0.0,0.0,0.0,0.0,0.0,0.0,0.0,0.0,0.0,0.0,0.0,0.0,0.0,0.0,0.0,0.0,0.0,0.0,0.0,0.0,0.0,0.0,0.0,0.0,0.0,0.0,0.0,0.0,0.0,-4.1168,-4.106,-3.9828,-4.1055,-4.1294,-4.0569,-3.7075,-3.534,-3.4769,-3.1956,0.0,0.0,0.0,0.0,0.0,0.0,0.0,0.0,0.0,0.0,0.0,0.0,0.0,0.0,0.0,0.0,0.0,0.0,0.0,0.0,0.0,-2.2899,-2.2881,-2.3391,-2.3747,-2.3739,-2.3204,0.0,0.0,0.0,0.0,0.0,-2.5442,-2.6033,-2.6452,-2.6722,-2.6632,-2.8188,-3.1241,-3.0851,-3.0971,-3.154,-3.0462,-3.0313,-3.0733,0.0,0.0,0.0,0.0,0.0,0.0,0.0,0.0,0.0,0.0,0.0,0.0,0.0,0.0,0.0,0.0,0.0,0.0,0.0,0.0,0.0,0.0,0.0,0.0,0.0,0.0,0.0,0.0,0.0,0.0,0.0,0.0,0.0,0.0,0.0,0.0,0.0,0.0,0.0,0.0,0.0,-2.5549,-2.656,0.0,0.0,0.0,0.0,0.0,0.0,0.0,0.0,0.0,0.0,0.0,0.0,0.0,-4.0615,-4.1198,-4.4091,-4.5049,-4.4113,-4.6476,-4.6793,-4.5263,-4.6052,-4.6352,-4.6172,-4.4466,0.0,-3.6956,-3.5992,0.0,0.0,0.0,0.0,0.0,0.0,0.0,0.0,0.0,0.0,0.0,0.0,0.0,0.0,0.0,0.0,0.0,0.0,0.0,0.0,0.0,-2.4706,-2.5463,-2.5175,-2.7465,-2.7835,-2.5262,-2.6241,0.0,0.0,0.0,-2.4903,-2.5585,-2.6243,-2.7141,-2.8304,-3.0492,-3.2138,-3.3215,-3.4382,-3.525,-3.5789,-3.519,-3.3664,-3.1481,-3.0972,0.0,0.0,0.0,0.0,0.0,0.0,0.0,0.0,0.0,0.0,0.0,0.0,0.0,0.0,0.0,0.0,0.0,0.0,0.0,0.0,0.0,0.0,0.0,0.0,0.0,0.0,0.0,0.0,0.0,0.0,0.0,0.0,0.0,0.0,0.0,0.0,0.0,0.0,0.0,-2.7473,-2.8605,-2.7668,-2.868,-2.8383,0.0,0.0,0.0,0.0,0.0,0.0,0.0,0.0,0.0,-4.072,-4.2984,-4.4525,-4.5257,-4.7266,-4.8211,-4.8192,-4.9488,-4.9537,-4.8521,-4.9583,-4.9464,-4.8386,-4.8177,-4.6352,-4.3299,-4.0427,-3.8063,-3.6118,0.0,0.0,0.0,0.0,-3.4801,-3.4921,0.0,0.0,0.0,0.0,0.0,0.0,0.0,0.0,0.0,0.0,0.0,0.0,-2.4695,-2.6623,-2.7852,-2.7963,-3.0608,-3.0865,-2.7627,-2.8041,-2.7304,-2.4772,-2.492,-2.5243,-2.5585,-2.6901,-2.8693,-3.0849,-3.3963,-3.5579,-3.5789,-3.7734,-3.8931,-3.9445,-3.9445,-3.7225,-3.3514,-3.3185,-3.1842,-2.99,0.0,0.0,0.0,0.0,0.0,0.0,0.0,0.0,0.0,0.0,0.0,0.0,0.0,0.0,0.0,0.0,0.0,0.0,0.0,0.0,0.0,0.0,0.0,0.0,0.0,0.0,0.0,0.0,0.0,0.0,0.0,0.0,0.0,0.0,0.0,0.0,0.0,-3.1031,-3.1901,-2.9578,-3.2492,-3.3064,0.0,0.0,0.0,0.0,0.0,0.0,-3.8608,-3.9719,-4.1661,-4.4861,-4.6766,-4.8017,-4.8646,-4.9688,-5.0561,-5.1271,-5.156,-5.1468,-5.0973,-5.2187,-5.1828,-5.0318,-5.0421,-4.9942,-4.8716,-4.4407,-4.1654,-4.0008,-3.8542,-3.7674,-3.7345,-3.8153,-3.8242,-3.8247,0.0,0.0,0.0,0.0,0.0,0.0,0.0,0.0,0.0,0.0,0.0,-2.3985,-2.8265,-2.818,-2.921,-3.2739,-3.1928,-3.0972,-3.027,-2.83,-2.6685,-2.5508,-2.5988,-2.6107,-2.5615,-2.8697,-3.1599,-3.4264,-3.51,-3.6776,-3.917,-3.932,-4.0367,-4.2201,-4.2201,-4.0995,-3.8811,-3.5699,-3.4322,-3.39,-3.0659,0.0,0.0,0.0,0.0,0.0,0.0,0.0,0.0,0.0,0.0,0.0,0.0,0.0,0.0,0.0,0.0,0.0,0.0,0.0,0.0,0.0,0.0,0.0,0.0,0.0,0.0,0.0,0.0,0.0,0.0,0.0,0.0,0.0,0.0,0.0,0.0,0.0,0.0,-3.4321,-3.8112,0.0,0.0,0.0,0.0,-3.7349,-3.8048,-4.0475,-4.5183,-4.4998,-4.6056,-4.891,-5.0039,-5.0596,-5.0638,-5.1358,-5.2025,-5.2692,-5.2967,-5.3054,-5.3054,-5.3773,-5.3713,-5.2905,-5.1708,-5.1139,-5.081,-4.7459,-4.5633,-4.4766,-4.286,-4.2081,-4.1991,-4.1422,-4.1602,-4.1931,0.0,0.0,0.0,0.0,0.0,0.0,0.0,0.0,-2.2564,-2.3308,-2.4815,-2.6657,-2.8773,-3.1292,-3.3368,-3.4687,-3.569,-3.5318,-3.3156,-3.1553,-3.0037,-2.8691,-2.8023,-2.8431,-3.0013,-3.2018,-3.3994,-3.5791,-3.7704,-3.914,-4.0068,-4.1316,-4.2273,-4.303,-4.3868,-4.3629,-4.2402,-3.9948,-3.7464,-3.4949,-3.2882,-3.125,0.0,0.0,0.0,0.0,0.0,0.0,0.0,0.0,0.0,0.0,0.0,0.0,0.0,0.0,0.0,0.0,0.0,0.0,0.0,0.0,0.0,0.0,0.0,0.0,0.0,0.0,0.0,0.0,0.0,0.0,0.0,0.0,0.0,0.0,0.0,0.0,0.0,-3.9685,-4.3249,0.0,-3.9906,-4.0054,-4.1154,-4.2918,-4.325,-4.5148,-4.9146,-4.9193,-4.9912,-5.1768,-5.2162,-5.2318,-5.2318,-5.256,-5.3045,-5.3693,-5.3789,-5.3832,-5.3862,-5.4551,-5.4221,-5.3174,-5.3144,-5.2636,-5.1768,-5.0601,-4.8716,-4.6531,-4.5813,-4.5005,-4.4227,-4.3988,-4.4047,-4.4167,0.0,0.0,0.0,0.0,0.0,0.0,0.0,0.0,-2.2936,-2.3646,-2.61,-2.85,-3.0277,-3.3558,-3.6005,-3.7043,-3.7584,-3.7009,-3.5013,-3.2923,-3.1233,-3.0104,-2.9428,-3.0611,-3.3819,-3.517,-3.66,-3.8123,-4.0098,-4.1294,-4.1743,-4.2611,-4.3479,-4.4336,-4.5005,-4.5185,-4.4915,-4.3599,-4.0756,-3.7015,-3.5459,-3.4173,-3.2826,0.0,0.0,0.0,0.0,0.0,0.0,0.0,0.0,0.0,0.0,0.0,0.0,0.0,0.0,0.0,0.0,0.0,0.0,0.0,0.0,0.0,0.0,0.0,0.0,0.0,0.0,0.0,0.0,0.0,0.0,0.0,0.0,0.0,0.0,-4.1683,-4.4766,-4.4107,-4.7938,-4.9237,-4.5712,-4.6168,-4.7391,-4.8919,-4.8767,-4.996,-5.307,-5.2594,-5.2698,-5.3862,-5.3653,-5.3533,-5.3533,-5.3743,-5.4102,-5.4551,-5.476,-5.476,-5.4551,-5.4999,-5.47,-5.3862,-5.4102,-5.3713,-5.2845,-5.2396,-5.0661,-4.8267,-4.8057,-4.7429,-4.6591,-4.6142,-4.5963,-4.5903,0.0,0.0,0.0,0.0,0.0,0.0,0.0,-2.2902,-2.3613,-2.4372,-2.6454,-2.9277,-3.2983,-3.4754,-3.6874,-3.9808,-3.7347,-3.56,-3.56,-3.2151,-2.9931,-2.9468,-3.0299,-3.2629,-3.6662,-3.791,-3.9475,-4.1482,-4.2171,-4.3129,-4.4317,-4.3099,-4.3868,-4.6249,-4.5633,-4.5723,-4.6309,-4.6309,-4.4137,-4.0397,-3.8332,-3.7105,-3.6148,0.0,0.0,0.0,0.0,0.0,0.0,0.0,0.0,0.0,0.0,0.0,0.0,0.0,0.0,0.0,0.0,0.0,0.0,0.0,0.0,0.0,0.0,0.0,0.0,0.0,0.0,0.0,0.0,0.0,0.0,0.0,0.0,0.0,-4.0606,-4.5155,-4.8267,-4.7668,-5.2187,-5.4072,-5.0794,-5.2845,-5.461,-5.5269,-5.4504,-5.4929,-5.7042,-5.5148,-5.4428,-5.5218,-5.464,-5.4311,-5.4311,-5.494,-5.5239,-5.5269,-5.5897,-5.5867,-5.5209,-5.5209,-5.5209,-5.5149,-5.4521,-5.4221,-5.4151,-5.2785,-5.1468,-5.0258,-4.9569,-4.9269,-4.909,-4.7788,-4.7309,-4.713,0.0,0.0,0.0,0.0,0.0,0.0,0.0,-2.2448,-2.2868,-2.3628,-2.7063,-3.0277,-3.2361,-3.5859,-3.8396,-3.9233,-3.7043,-3.56,-3.56,-3.2151,-3.0979,-3.2988,-3.4921,-3.7082,-3.9515,-4.0886,-4.2016,-4.2851,-4.3958,-4.4676,-4.5035,-4.5155,-4.5633,-4.6279,-4.6621,-4.686,-4.704,-4.704,-4.6142,-4.4407,-4.0965,-3.8601,-3.6896,0.0,0.0,0.0,0.0,0.0,0.0,0.0,0.0,0.0,0.0,0.0,0.0,0.0,0.0,0.0,0.0,0.0,0.0,0.0,0.0,0.0,0.0,0.0,0.0,0.0,0.0,0.0,0.0,0.0,0.0,0.0,-4.2342,-4.4855,-4.5334,-4.9553,-5.2875,-5.3653,-5.6705,-5.8201,-5.6795,-5.7334,-5.7842,-5.8022,-5.7851,-5.7737,-5.7789,-5.7262,-5.6846,-5.6585,-5.6406,-5.6286,-5.6286,-5.6496,-5.6585,-5.6585,-5.6765,-5.6526,-5.5897,-5.5897,-5.5658,-5.5179,-5.4999,-5.5126,-5.5371,-5.3622,-5.2937,-5.2717,-5.0261,-4.873,-4.7788,-4.7429,-4.7309,-4.7249,0.0,0.0,0.0,0.0,0.0,0.0,0.0,-2.2449,-2.2902,-2.3342,-2.73,-3.0446,-3.1292,-3.481,-3.6975,-3.6671,-3.5148,-3.41,-3.3795,-3.2611,-3.3422,-3.6695,-3.8408,-4.0147,-4.2048,-4.3105,-4.3799,-4.4197,-4.4945,-4.5574,-4.6142,-4.5963,-4.6202,-4.6741,-4.686,-4.704,-4.7309,-4.7309,-4.71,-4.6501,-4.3928,-4.1833,-4.0038,-3.7494,-3.6237,-3.5669,-3.441,-3.4322,-3.4472,-3.2736,0.0,0.0,0.0,0.0,0.0,0.0,0.0,0.0,0.0,0.0,0.0,0.0,0.0,0.0,0.0,0.0,0.0,0.0,0.0,0.0,0.0,0.0,0.0,0.0,-4.6381,-4.9494,-5.1558,-5.3892,-5.6017,-5.7603,-5.9398,-6.0475,-6.0386,-6.0356,-6.0356,-6.0356,-6.0116,-5.9668,-5.8979,-5.868,-5.8231,-5.7543,-5.7782,-5.7932,-5.7932,-5.7932,-5.7812,-5.7513,-5.7244,-5.6615,-5.5748,-5.5748,-5.5538,-5.5179,-5.491,-5.5232,-5.5813,-5.4155,-5.379,-5.3934,0.0,0.0,0.0,0.0,-4.7309,-4.7279,0.0,0.0,0.0,0.0,0.0,0.0,0.0,-2.2508,-2.323,-2.3274,-2.6962,-2.9634,-2.9702,-3.2273,-3.3795,-3.3322,-3.251,-3.1887,-3.1461,-3.3525,-3.6423,-4.018,-4.1133,-4.24,-4.4258,-4.4876,-4.5272,-4.544,-4.5507,-4.6142,-4.7279,-4.6082,-4.6172,-4.7279,-4.6681,-4.68,-4.7429,-4.7339,-4.7339,-4.7369,-4.6711,-4.5574,-4.3988,-4.0905,-4.0008,-4.0127,-3.8123,-3.7255,-3.6806,-3.5342,0.0,0.0,0.0,0.0,0.0,0.0,0.0,0.0,0.0,0.0,0.0,0.0,0.0,0.0,0.0,0.0,0.0,0.0,0.0,0.0,0.0,0.0,0.0,0.0,-5.0571,-5.4072,-5.7812,-5.7932,-5.8321,-6.0086,-6.0924,-6.1553,-6.2151,-6.2211,-6.2151,-6.2002,-6.1523,-6.0894,-6.0116,-5.9608,0.0,0.0,0.0,-5.9308,-5.9219,-5.9219,-5.886,-5.8112,-5.7513,-5.6555,-5.5299,-5.5299,-5.5269,-5.5149,-5.4491,-5.4819,-5.5782,-5.4435,-5.406,-5.4039,-5.0669,-4.9239,-4.894,-4.7728,-4.7309,-4.7219,0.0,0.0,0.0,0.0,0.0,0.0,0.0,-2.1804,-2.2067,-2.2454,-2.4815,-2.6691,-2.73,-2.9499,-3.136,-3.2429,-3.1292,-3.1224,-3.2882,-3.5081,-3.8014,-4.1737,-4.3737,-4.5187,-4.6028,-4.6984,-4.7101,-4.6441,-4.6773,-4.704,-4.7309,-4.704,-4.707,-4.7309,-4.716,-4.7489,-4.8057,-4.7519,-4.7608,-4.8027,-4.7369,-4.5992,-4.4137,-4.2432,-4.1205,-4.0127,-3.8123,-3.8721,-4.0068,-3.7644,-3.7823,-3.8686,-3.6518,-3.4884,0.0,0.0,0.0,0.0,0.0,0.0,0.0,0.0,0.0,0.0,0.0,0.0,0.0,0.0,0.0,0.0,0.0,0.0,0.0,-4.9883,-5.3653,-5.6974,-5.9368,-6.0535,-6.1283,-6.1672,-6.2301,-6.275,-6.2869,-6.2899,-6.245,-6.1373,-6.1672,-6.1373,-6.0146,-6.0505,-6.0655,-6.0535,-6.0655,-6.0446,-5.9907,-5.9907,-5.9308,-5.8112,-5.7992,0.0,-5.5987,-5.5987,-5.5688,-5.5149,-5.4491,-5.4868,-5.5875,-5.4481,-5.3495,-5.2716,-5.058,-4.8925,-4.7668,-4.7399,-4.7309,-4.7279,0.0,0.0,0.0,0.0,0.0,0.0,0.0,-2.1337,-2.1804,-2.2412,-2.4301,-2.5879,-2.6623,-2.8044,-2.9093,-2.9484,-2.9533,-3.0856,-3.3941,-3.6858,-4.0121,-4.3842,-4.5805,-4.6901,-4.7045,-4.7109,-4.684,-4.6191,-4.6252,-4.6471,-4.683,-4.716,-4.7309,-4.7309,-4.7638,-4.7788,-4.7788,-4.7788,-4.7788,-4.7758,-4.7429,-4.6711,-4.5663,-4.4347,-4.303,-4.1683,-4.0367,-4.0307,-4.0726,-3.9738,-3.9858,-4.0157,-3.8841,-3.7494,-3.6058,0.0,0.0,0.0,0.0,0.0,0.0,0.0,0.0,0.0,0.0,0.0,0.0,0.0,0.0,-4.4918,-4.6632,0.0,-5.1485,-5.3781,-5.6645,-5.9189,-6.0864,-6.1672,-6.2211,-6.254,-6.2869,-6.3079,-6.3079,-6.3079,-6.281,-6.2151,-6.2091,-6.1792,-6.1134,-6.1433,-6.1463,-6.1134,-6.1762,-6.1613,-6.0625,-6.0595,-5.9937,-5.862,-5.8291,-5.7603,-5.6615,-5.6368,-5.6038,-5.5598,-5.4281,-5.4352,-5.5426,-5.458,-5.3576,-5.2365,-5.0955,-4.9447,-4.7988,-4.7495,-4.7309,-4.7309,0.0,0.0,0.0,0.0,0.0,0.0,0.0,-2.0894,-2.1595,-2.2293,-2.3796,-2.5057,-2.563,-2.6236,-2.6505,-2.6218,-2.7977,-3.0729,-3.4616,-3.7869,-4.1318,-4.5031,-4.6791,-4.755,-4.7408,-4.6856,-4.6412,-4.6188,-4.586,-4.5963,-4.6531,-4.707,-4.7369,-4.7519,-4.8057,-4.8147,-4.7878,-4.8177,-4.8057,-4.7668,-4.7399,-4.7219,-4.698,-4.5633,-4.4436,-4.3349,-4.2342,-4.1183,-4.0098,-4.0786,-4.0636,-4.0157,-3.9888,-3.923,-3.8123,-3.5761,-3.507,0.0,0.0,0.0,0.0,0.0,0.0,0.0,0.0,-4.2141,-4.297,-4.6929,-4.8923,-5.0402,-5.2041,-5.4175,-5.607,-5.7325,-5.9069,-6.0715,-6.1942,-6.2091,-6.2241,-6.266,-6.269,-6.275,-6.2869,-6.2899,-6.2899,-6.2899,-6.251,-6.2241,-6.2121,-6.2211,-6.2061,-6.1523,-6.2391,-6.2301,-6.1134,-6.0984,-6.0236,-5.8919,-5.8381,-5.7752,-5.7064,-5.6466,-5.6218,-5.6128,-5.4192,-5.3897,-5.4698,-5.4534,-5.3742,-5.2588,-5.1362,-5.0122,-4.8862,-4.7739,-4.7309,-4.7309,0.0,0.0,0.0,0.0,0.0,0.0,0.0,0.0,-2.0615,-2.1119,-2.1691,-2.2068,-2.2167,-2.2233,-2.2882,-2.4349,-2.7469,-3.0872,-3.4484,-3.6828,-3.9626,-4.3235,-4.5536,-4.6712,-4.6715,-4.7497,-4.7877,-4.7829,-4.7313,-4.713,-4.7189,-4.7279,-4.7608,-4.8177,-4.8267,-4.8895,-4.9807,-4.8745,-4.8566,-4.9,-4.7788,-4.695,-4.6249,-4.4945,-4.4317,-4.3898,-4.1474,-3.9768,-3.8721,-3.9409,-3.9553,-3.9738,-4.0816,-4.0307,-3.902,-3.7524,-3.5489,-3.3933,-3.4801,-3.7249,-4.0354,-4.3814,-4.4333,-4.5828,0.0,-5.3082,-5.2458,-5.4764,-5.6381,-5.7298,-5.6837,-5.7291,-5.7993,-5.8744,-6.0086,-6.1253,-6.2002,-6.2091,-6.1912,-6.1403,-6.1343,-6.1553,-6.2151,-6.2211,-6.2211,-6.2211,-6.269,-6.272,-6.2121,-6.266,-6.2929,-6.2869,-6.2421,-6.1852,-6.1134,-6.0505,-5.9548,-5.8231,-5.8171,-5.7752,-5.7064,-5.6466,-5.6218,-5.6107,-5.47,-5.4079,-5.4016,-5.3996,-5.3738,-5.3209,-5.1581,-5.0401,-4.948,-4.789,-4.7309,-4.7309,0.0,0.0,0.0,0.0,0.0,0.0,0.0,0.0,0.0,-2.1198,-2.1632,-2.207,-2.2492,-2.2524,-2.2857,-2.3645,-2.6488,-2.9594,-3.2797,-3.6047,-3.9225,-4.2366,-4.4236,-4.5406,-4.5795,-4.5663,-4.5782,-4.6184,-4.5768,-4.5753,-4.6142,-4.6561,-4.71,-4.7758,-4.8506,-4.8955,-4.9075,-4.8925,-4.885,-4.8626,-4.7668,-4.692,-4.61,-4.4366,-4.2751,-4.1167,-3.9349,-3.7823,0.0,-3.7913,-3.8242,-3.8542,-4.0277,-3.9888,-3.8571,-3.7255,-3.6626,-3.6806,-3.8931,-4.1358,-4.3912,-4.6585,-4.9101,-5.1916,-5.5743,-5.5592,-5.5509,-5.859,-5.9739,-5.9883,-5.8972,-5.9662,-6.0134,-5.9747,-6.0475,-6.1343,-6.2002,-6.1104,-5.9967,-5.889,-5.8112,-5.853,-6.0715,-6.1283,-6.1672,-6.2061,-6.272,-6.2959,-6.269,-6.2929,-6.3079,-6.3079,-6.245,-6.1792,-6.1134,-6.0446,-5.9608,-5.871,-5.871,-5.8351,-5.7663,-5.7004,-5.6107,-5.4999,-5.4431,-5.3706,-5.2882,-5.2882,-5.2745,-5.2394,-5.1032,-5.0223,-4.9603,-4.792,-4.7309,-4.7309,0.0,0.0,0.0,0.0,0.0,0.0,0.0,0.0,0.0,0.0,-2.1352,-2.1801,-2.2327,-2.2582,-2.2686,-2.2675,-2.5081,-2.7767,-3.0469,-3.4265,-3.7578,-4.0198,-4.2387,-4.3759,-4.4233,-4.4314,-4.4564,-4.5022,-4.489,-4.5125,-4.5603,-4.6262,-4.695,-4.7608,-4.8566,-4.888,-4.8566,-4.891,-4.8716,-4.8207,-4.7369,-4.6411,-4.5274,-4.305,-4.0599,-3.8212,-3.7225,-3.5797,-3.4542,-3.5674,-3.6157,-3.6619,-3.8492,-3.8512,-3.7734,-3.7165,-3.7793,-3.905,-4.0823,-4.3572,-4.6422,-4.8306,-5.2551,-5.652,-5.7557,-5.7921,-5.8758,-6.1385,-6.1678,-6.1017,-5.9524,-5.9975,-6.0348,-5.9627,-6.0266,-6.1074,-6.1732,-6.0086,-5.8261,-5.6765,-5.5269,-5.5448,-5.8201,-5.9578,-6.0715,-6.1762,-6.2271,-6.26,-6.278,-6.281,-6.2899,-6.3079,-6.2271,-6.1583,-6.1104,-6.0236,-5.9578,-5.9099,-5.9099,-5.886,-5.8381,-5.7483,-5.6137,-5.4491,-5.4491,-5.3713,-5.2486,-5.2486,-5.2118,-5.1556,-5.0547,-4.9988,-4.9488,-4.8093,-4.7459,-4.7309,0.0,0.0,0.0,0.0,0.0,0.0,0.0,0.0,0.0,0.0,0.0,0.0,0.0,-2.0949,-2.1185,-2.0824,-2.3182,-2.5541,-2.7605,-3.0818,-3.3546,-3.5617,-3.9671,-4.1883,-4.1914,-4.4347,-4.5634,-4.5665,-4.607,-4.6219,-4.6249,-4.698,-4.7638,-4.8267,-4.8297,-4.87,-4.9239,-4.8566,-4.8297,-4.8177,-4.686,-4.5214,-4.321,-4.0546,-3.7878,-3.5609,-3.5579,-3.3819,-3.1647,-3.2403,-3.3031,-3.3744,-3.5202,-3.6058,-3.6776,-3.7973,-3.8841,-3.926,-3.8661,-4.2504,-4.7167,-4.9244,-5.3981,-5.8511,-5.9933,-6.2382,-6.4133,-6.3565,-6.2598,-6.1061,-5.8353,-5.7505,-5.7444,-5.8053,-5.9279,-6.0356,-6.1044,-5.9428,-5.7423,-5.5478,-5.3503,-5.2845,-5.4251,-5.6705,-5.9039,-6.0984,-6.1164,-6.1463,-6.2091,-6.2121,-6.2421,-6.3049,-6.1822,-6.1134,-6.1104,-5.9787,-5.9129,-5.9099,-5.9099,-5.9099,-5.9039,-5.7693,-5.6376,-5.5149,-5.5149,-5.4401,-5.3144,-5.3144,-5.2414,-5.1156,-5.0481,-4.9823,-4.9254,-4.855,-4.7848,-4.7309,0.0,0.0,0.0,0.0,0.0,0.0,0.0,0.0,0.0,0.0,0.0,0.0,0.0,0.0,0.0,0.0,-2.1914,-2.3699,-2.6123,-2.8966,-3.145,-3.3425,-3.6567,-3.8671,-3.952,-4.0849,-4.197,-4.2849,-4.2986,-4.3479,-4.4306,-4.4515,-4.5244,-4.6322,-4.677,-4.7369,-4.7908,-4.7279,-4.7489,-4.8057,-4.5424,-4.3988,-4.3,-3.9439,-3.6447,-3.3993,0.0,-3.1574,-3.0824,-3.1079,-3.1548,-3.2311,-3.3681,-3.4271,-3.4851,-3.7091,-3.8841,-4.0606,-4.3,-4.6823,-5.0886,-5.392,-5.7259,-6.0129,-6.1219,-6.1495,-6.1164,-5.9997,-5.8065,-5.5901,-5.3744,-5.3559,-5.4099,-5.532,-5.7363,-5.9452,-6.1424,-6.0022,-5.788,-5.5398,-5.3784,-5.2845,-5.2875,-5.488,-5.7184,-5.9608,-6.0595,-6.1403,-6.2061,-6.251,-6.2839,-6.3079,-6.2211,-6.1553,-6.1104,-6.0206,-5.9548,-5.9099,-5.865,-5.8471,-5.8411,-5.7094,-5.6256,-5.5807,-5.5388,-5.467,-5.3832,-5.3384,-5.2665,-5.1798,-5.1139,-5.0212,-4.9269,-4.906,-4.8237,-4.7309,0.0,0.0,0.0,0.0,0.0,0.0,0.0,0.0,0.0,0.0,0.0,0.0,0.0,0.0,0.0,0.0,0.0,-2.2173,-2.4088,-2.6692,-2.8846,-3.0342,-3.3185,-3.51,-3.5938,-3.7075,-3.8063,-3.8901,-3.9619,-4.0516,-4.1564,-4.2034,-4.2851,-4.3928,-4.4616,-4.5155,-4.5514,-4.5095,-4.5125,-4.5244,-4.2641,-4.1055,-3.9858,-3.6567,-3.3963,0.0,-3.0103,-2.9624,-2.9738,-2.9567,-3.0173,-3.1237,-3.2081,-3.3479,-3.5246,-3.7181,-3.9679,-4.2611,-4.6352,-4.9835,-5.3132,-5.6304,-5.8802,-6.0598,-6.0915,-6.0244,-5.8927,-5.6606,-5.3981,-5.1429,-4.8988,-4.878,-4.9591,-5.176,-5.3892,-5.6383,-5.9469,-5.8239,-5.6464,-5.4969,-5.3633,-5.2845,-5.2905,-5.4072,-5.5927,-5.856,-5.9997,-6.1044,-6.1702,-6.2361,-6.2839,-6.3079,-6.245,-6.1792,-6.1134,-6.0446,-5.9757,-5.9099,-5.868,-5.8351,-5.8082,-5.7244,-5.6615,-5.6188,-5.5718,-5.491,-5.3803,-5.3354,-5.2665,-5.1798,-5.1379,-5.0571,-4.9583,-4.9389,-4.8566,-4.7608,0.0,0.0,0.0,0.0,0.0,0.0,0.0,0.0,0.0,0.0,0.0,0.0,0.0,0.0,0.0,0.0,0.0,0.0,-2.1605,-2.4059,-2.5764,-2.6452,-2.9567,-3.1331,-3.1391,-3.3305,-3.4324,-3.4354,-3.6178,-3.7434,-3.8123,-3.9409,-4.0367,-4.1093,-4.176,-4.2059,-4.2119,-4.2089,-4.14,-4.0164,-3.8756,-3.6656,-3.4294,-3.2168,-3.0672,-2.9442,-2.8094,-2.7984,-2.8398,-2.7926,-2.9098,-3.0808,-3.0862,-3.3994,-3.7764,-3.8571,-4.1594,-4.5394,-4.8686,-5.1546,-5.4102,-5.6615,-5.8644,-5.9792,-5.9049,-5.8735,-5.7396,-5.3351,-5.0485,-4.766,-4.4289,-4.3411,-4.4317,-4.7608,-4.9374,-5.1708,-5.576,-5.469,-5.3762,-5.4381,-5.3313,-5.2995,-5.4251,-5.4431,-5.5508,-5.8022,-5.9338,-6.0356,-6.1134,-6.1792,-6.2421,-6.3049,-6.245,-6.1792,-6.1134,-6.0386,-5.9727,-5.9099,-5.9099,-5.877,-5.8171,-5.8112,-5.7393,-5.6226,-5.6188,-5.508,-5.3234,-5.3234,-5.2456,-5.1259,-5.1259,-5.0794,-5.0106,-4.9553,-4.8865,-4.8207,0.0,0.0,0.0,0.0,0.0,0.0,0.0,0.0,0.0,0.0,0.0,0.0,0.0,0.0,0.0,0.0,0.0,0.0,-2.0897,-2.2503,-2.3939,-2.5053,-2.735,-2.9056,-3.0043,-3.1031,-3.1779,-3.2258,-3.2766,-3.3334,-3.4023,-3.4352,-3.513,-3.6271,-3.6917,-3.7752,-3.8635,-3.8116,-3.8269,-3.8598,-3.5834,-3.4651,-3.4174,-3.121,-2.9864,-2.9442,-2.8094,-2.7685,-2.8036,-2.9312,-3.2047,-3.5061,-3.6013,-3.8175,-4.0876,-4.3539,-4.6741,-5.0062,-5.2905,-5.5598,-5.7872,-5.9039,-5.8948,-5.8187,-5.6577,-5.4266,-5.1467,-4.7965,-4.4378,-4.1334,-3.942,-4.0227,-4.2252,-4.5514,-4.9224,-5.326,-5.7702,-5.7919,-5.7691,-5.7844,-5.7081,-5.6555,-5.6376,-5.7274,-5.8321,-5.9488,-5.9428,-6.0086,-6.1762,-6.248,-6.2899,-6.3079,-6.245,-6.1792,-6.1134,-5.9937,-5.9279,-5.9099,-5.9099,-5.9009,-5.883,-5.7812,-5.7184,-5.6795,-5.5867,-5.488,-5.3952,-5.3952,-5.3144,-5.1947,-5.1947,-5.1259,-5.0166,-5.0016,-4.9254,-4.8267,0.0,0.0,0.0,0.0,0.0,0.0,0.0,0.0,0.0,0.0,0.0,0.0,0.0,0.0,0.0,0.0,0.0,0.0,0.0,-2.1246,-2.2143,-2.2871,-2.4537,-2.5788,-2.6566,-2.744,-2.8102,-2.8461,-2.9059,-2.9684,-3.0342,-3.0642,-3.148,-3.2766,-3.3395,-3.4243,-3.5216,-3.4851,-3.4759,0.0,0.0,-3.148,-3.0849,-2.8992,-2.8098,-2.7769,-2.7345,-2.8274,-3.0038,-3.2029,-3.4729,-3.7646,-3.9793,-4.2108,-4.4616,-4.7938,-5.084,-5.3533,-5.6196,-5.8411,-5.9937,-5.9697,-5.8441,-5.6526,-5.3653,-5.0451,-4.689,-4.2701,-3.9858,-3.7554,-3.5609,-3.6896,-3.932,-4.2611,-4.6052,-5.0246,-5.5725,-5.6496,-5.7166,-5.8878,-5.8768,0.0,-5.8411,-5.9099,-5.9937,-6.0894,-6.0625,-6.0924,-6.2032,-6.272,-6.3079,-6.3079,-6.272,-6.2061,-6.1134,-5.9787,-5.9099,-5.9099,-5.9099,-5.8949,-5.865,-5.7902,-5.7244,-5.6645,-5.5927,-5.5089,-5.4221,-5.4221,-5.3414,-5.2187,-5.2187,-5.1558,-5.0554,-5.0032,-4.9344,-4.8626,0.0,0.0,0.0,0.0,0.0,0.0,0.0,0.0,0.0,0.0,0.0,0.0,0.0,0.0,0.0,0.0,0.0,0.0,0.0,0.0,-2.058,-2.0593,-2.1854,-2.2592,-2.259,-2.3805,-2.4485,-2.4485,-2.5644,-2.6507,-2.7076,-2.7649,-2.8577,-2.9744,-3.0398,-3.1144,-3.1835,-3.1835,-3.1204,-3.0153,-2.9499,-2.8184,-2.6572,0.0,-2.6153,-2.5824,-2.6482,-2.9056,-3.2497,-3.4921,-3.7345,-3.9888,-4.312,-4.5992,-4.8835,-5.2067,-5.4281,-5.6256,-5.88,-6.0356,-6.0924,-5.9578,-5.7573,-5.488,-5.0853,-4.716,-4.309,-3.8063,-3.6297,-3.4981,-3.2677,-3.3963,-3.6477,-3.9858,-4.2222,-4.5873,-5.2276,-5.3324,-5.488,-5.877,-5.9308,-5.9668,-6.0416,-6.0475,-6.0954,-6.2151,-6.2241,-6.2241,-6.2241,-6.278,-6.2989,-6.281,-6.281,-6.2181,-6.0864,-5.9697,-5.9099,-5.9099,-5.9099,-5.88,-5.8261,-5.8082,-5.7363,-5.6286,-5.6107,-5.5359,-5.4221,-5.4311,-5.3503,-5.2217,-5.2306,-5.1887,-5.1079,-4.9853,-4.9449,-4.9269,0.0,0.0,0.0,0.0,0.0,0.0,0.0,0.0,0.0,0.0,-1.8033,-1.7456,0.0,0.0,0.0,0.0,0.0,0.0,0.0,0.0,0.0,-2.003,-2.1208,-2.1951,-2.2053,-2.3177,-2.3789,-2.3789,-2.3999,-2.4178,-2.4298,-2.4418,-2.4896,-2.5644,-2.6291,-2.7226,-2.8367,-2.8367,-2.8559,-2.8732,-2.7574,-2.6901,-2.6542,-2.5974,0.0,0.0,-2.7195,-2.8573,-3.0821,-3.5489,-4.0217,-4.4586,-4.7369,-5.0421,-5.3563,-5.6286,-5.7723,-5.889,-6.1014,-6.1762,-6.1613,-6.0266,-5.7214,-5.3503,-4.9523,-4.4377,-3.9409,-3.5729,-3.3155,-3.139,-3.0941,-3.2946,-3.5908,-3.9768,-4.297,-4.689,-5.2396,-5.4132,-5.6107,0.0,-6.0416,-6.1224,-6.245,-6.257,0.0,-6.2899,-6.2899,-6.2899,-6.2899,-6.3019,-6.257,-6.1493,-6.1463,-6.0805,-5.9458,-5.9219,-5.9099,-5.9099,-5.9099,-5.9039,-5.889,-5.7782,-5.7154,-5.6885,-5.5807,-5.491,-5.4251,-5.479,-5.3892,-5.2247,-5.2785,-5.2276,-5.1139,-5.0315,-5.0016,-4.9972,0.0,0.0,0.0,0.0,0.0,0.0,0.0,-1.9314,-1.9118,-1.8568,-1.8033,-1.7619,-1.7333,-1.7312,-1.7517,0.0,0.0,0.0,0.0,0.0,0.0,0.0,-2.0255,-2.079,-2.0861,-2.1991,-2.2591,-2.2591,0.0,-2.312,-2.3143,-2.345,-2.3969,-2.4605,-2.4909,-2.559,-2.6504,-2.6504,-2.6687,-2.6944,-2.6333,-2.5884,-2.5585,0.0,0.0,0.0,0.0,-2.8393,-3.0612,-3.4173,-3.8871,-4.4077,-4.8805,-5.2097,-5.479,-5.7752,-5.886,-5.9608,-6.1972,-6.2361,-6.1702,-5.9997,-5.6077,-5.1528,-4.7189,-4.1624,-3.6447,-3.3095,-3.115,-2.9924,-2.9594,-3.1659,-3.4412,-3.7375,-4.0008,-4.3778,-4.9793,-5.1768,-5.4341,-5.9009,-6.0475,-6.1642,-6.2959,-6.3079,-6.3079,-6.3079,-6.3079,-6.3079,-6.3079,-6.275,-6.2121,-6.1134,-6.0775,-6.0266,-5.9608,-5.9279,-5.9099,-5.9099,-5.9099,-5.874,-5.8052,-5.7752,-5.7064,-5.6077,-5.5807,-5.5329,-5.476,-5.5059,-5.4221,-5.2725,-5.3054,-5.2366,-5.1139,-5.0435,-5.0196,-5.0106,0.0,0.0,0.0,0.0,0.0,0.0,0.0,-1.9424,-1.9406,-1.854,-1.823,-1.7933,-1.7537,-1.7271,-1.7167,0.0,0.0,0.0,0.0,0.0,0.0,0.0,0.0,0.0,0.0,0.0,0.0,-2.171,-2.2369,0.0,0.0,0.0,0.0,0.0,-2.4395,-2.4754,-2.5382,-2.5382,-2.5465,0.0,0.0,-2.5083,0.0,0.0,0.0,0.0,0.0,-2.8128,-3.0223,-3.2527,-3.6148,-4.0756,-4.68,-5.093,-5.4132,-5.7004,-5.8351,-5.9458,-6.1972,-6.248,-6.1762,-5.9458,-5.491,-4.9763,-4.5005,-3.923,-3.3993,-3.0941,-2.9684,-2.9112,-2.8846,-3.0612,-3.2886,-3.531,-3.7105,-4.0457,-4.695,-4.9105,-5.2187,-5.7992,-5.9997,0.0,-6.2929,-6.3079,0.0,-6.3079,-6.2959,-6.2869,-6.2869,-6.2391,-6.1732,-6.0924,-6.0356,-6.0027,-5.9877,-5.9368,-5.9099,-5.9099,-5.8949,-5.8351,-5.7334,-5.7723,-5.6974,-5.5448,-5.6077,-5.5927,-5.5209,-5.5359,-5.4521,-5.3174,-5.3174,-5.2366,-5.1139,-5.0435,-5.0285,-5.0315,0.0,0.0,0.0,0.0,0.0,0.0,0.0,-1.9672,-1.9672,-1.9551,-1.8703,-1.8072,-1.8013,-1.7146,-1.6774,0.0,0.0,0.0,0.0,0.0,0.0,0.0,0.0,0.0,0.0,0.0,0.0,-2.171,-2.2369,0.0,0.0,0.0,0.0,0.0,0.0,-2.4059,-2.4694,-2.4694,0.0,0.0,0.0,0.0,0.0,0.0,0.0,0.0,0.0,-2.7675,-2.8364,-3.1539,-3.3335,-3.4951,-3.917,-4.5544,-5.1798,-5.3294,-5.5867,-5.865,-6.0745,-6.2121,-6.2211,-5.9009,-5.4202,-4.894,-4.3778,-3.7494,-3.2198,-3.0103,-2.8663,-2.8154,-2.9292,-3.0133,-3.1928,-3.5759,-3.7015,-3.9619,-4.5663,-4.8147,-5.1366,-5.6645,0.0,0.0,-6.2899,-6.3079,-6.3079,-6.3079,-6.254,-6.2181,-6.2181,-6.2121,-6.1493,-6.0206,-6.0116,-5.9787,-5.9189,-5.9129,-5.9099,-5.9099,-5.8501,-5.8141,-5.8022,-5.7453,-5.6795,-5.6107,-5.6735,-5.6316,-5.5239,-5.5837,-5.494,-5.3174,-5.3174,-5.2366,-5.1139,-5.0435,-5.0584,-5.0973,0.0,0.0,0.0,0.0,0.0,0.0,-1.9155,-1.9479,-1.957,-1.9277,-1.8855,-1.8327,-1.7673,-1.7229,-1.6942,-1.6837,0.0,0.0,0.0,0.0,0.0,0.0,0.0,0.0,0.0,0.0,-2.0744,-2.1161,-2.1428,0.0,0.0,0.0,0.0,0.0,0.0,-2.3759,-2.3999,-2.3999,0.0,0.0,0.0,0.0,0.0,0.0,0.0,0.0,0.0,0.0,-2.7181,-2.8454,-2.937,-3.0191,-3.1662,-3.5997,-4.1814,-4.8357,-5.2276,-5.5239,-5.8441,-6.0266,-6.0655,-5.8141,-5.2965,-4.7399,-4.3329,-3.6952,-3.1451,-2.9894,-2.8543,-2.7884,-2.8816,-2.9505,-3.0851,-3.3634,-3.4292,-3.6267,-4.1406,-4.3539,-4.692,-5.3384,-5.6256,-5.8979,0.0,0.0,-6.3079,-6.3079,-6.248,-6.1912,-6.1523,-6.1104,-6.0446,-5.9518,-5.9488,-5.9368,-5.9099,-5.9099,-5.9099,-5.9099,-5.8441,-5.8112,-5.8112,-5.7423,-5.6765,-5.6248,-5.6436,-5.6017,-5.5209,-5.5478,-5.464,-5.3174,-5.3174,-5.2366,-5.1199,-5.0883,-5.0943,-5.1169,0.0,0.0,0.0,0.0,0.0,-1.8502,-1.9043,-1.946,-1.9551,-1.9173,-1.9006,-1.8626,-1.7854,-1.7639,-1.7394,-1.7001,-1.7653,0.0,0.0,0.0,0.0,0.0,0.0,0.0,0.0,0.0,-2.022,-2.1109,-2.1257,-2.1918,0.0,0.0,-2.3393,-2.361,0.0,0.0,0.0,0.0,0.0,0.0,0.0,0.0,0.0,0.0,0.0,0.0,0.0,0.0,0.0,0.0,0.0,-2.7245,-2.7086,-2.9181,-3.343,-4.2406,-4.7627,-5.1229,-5.482,-5.7334,-5.8351,-5.5957,-5.1169,-4.5992,-4.2102,-3.6174,-3.1062,-2.9594,-2.8393,-2.7794,-2.8487,-2.9146,-3.0163,-3.1899,-3.2557,-3.4292,-3.8512,-4.0427,-4.3718,-5.0002,0.0,-5.6047,-6.0206,-6.2121,-6.2989,-6.281,-6.2181,-6.1523,-6.0835,-6.0176,-5.9578,-5.9129,-5.9099,-5.9099,-5.9099,-5.9099,-5.9099,-5.9099,-5.8231,-5.7812,-5.7782,-5.7124,-5.6466,-5.5897,-5.6286,-5.5957,-5.5179,-5.5179,-5.4401,-5.3144,-5.2965,-5.2217,-5.1229,-5.1229,-5.1229,-5.1229,0.0,0.0,0.0,0.0,0.0,0.0,-1.9617,-1.9708,-1.9708,-1.969,-1.924,-1.8893,-1.8874,-1.8405,-1.8072,-1.8072,-1.8072,0.0,0.0,0.0,0.0,0.0,0.0,0.0,0.0,0.0,-2.045,-2.1794,-2.2401,-2.3041,-2.3715,-2.4302,-2.4246,-2.361,0.0,0.0,0.0,0.0,0.0,0.0,0.0,0.0,0.0,0.0,0.0,0.0,0.0,0.0,0.0,0.0,0.0,0.0,0.0,-2.6826,-2.8682,-3.5456,-4.1647,-4.6937,-4.9568,-5.3204,-5.5418,-5.2097,-4.8775,-4.4945,-3.9649,-3.4861,-3.0943,-2.9026,-2.8094,-2.7794,-2.8487,-2.9146,-3.0013,-3.1301,-3.2647,-3.4651,-3.7943,-4.0127,-4.2851,0.0,-4.906,-5.2049,-5.6705,-6.0745,-6.281,-6.2151,-6.1493,-6.0835,-6.0146,-5.9458,-5.9129,-5.9099,-5.9099,-5.9099,-5.9099,-5.9099,-5.9099,-5.9099,-5.7752,-5.7094,-5.7094,-5.6466,-5.5837,-5.5269,-5.6526,-5.6376,-5.5179,-5.5179,-5.4401,-5.3114,-5.2456,-5.1798,-5.1229,-5.1229,-5.1229,-5.1229,0.0,0.0,0.0,0.0,0.0,0.0,0.0,-1.946,-1.9708,-1.9708,-1.9533,-1.9314,-1.8949,-1.876,-1.8482,-1.8131,-1.8424,0.0,0.0,0.0,0.0,0.0,0.0,0.0,0.0,0.0,-2.0681,-2.2426,-2.2175,-2.2845,-2.423,-2.3606,-2.3145,-2.2923,-2.2958,-2.2987,0.0,0.0,0.0,0.0,0.0,0.0,0.0,0.0,0.0,0.0,0.0,0.0,0.0,0.0,0.0,0.0,0.0,0.0,0.0,-2.9343,-3.5392,-4.1391,-4.4135,-4.71,-4.8745,-4.5873,-4.3359,-4.0576,-3.6626,-3.3185,-3.0374,-2.8906,-2.8094,-2.7794,-2.8487,-2.9146,-3.034,-3.2527,-3.3993,-3.5519,-3.7464,-4.0606,-4.4197,-4.8177,-5.4371,-5.9099,-6.0984,-6.1942,-6.2331,-6.2121,-6.1044,-6.0326,-6.0086,-5.9458,-5.9099,-5.9099,-5.9099,-5.9099,-5.9099,-5.9099,-5.9099,-5.9099,-5.7723,-5.7573,-5.8411,-5.6406,-5.5867,-5.6466,-5.5987,-5.5568,-5.5179,-5.5179,-5.4401,-5.3144,-5.2965,-5.2187,-5.1229,-5.1229,-5.1229,-5.1229,0.0,0.0,0.0,0.0,0.0,0.0,0.0,-1.9369,-1.9708,-1.9708,-1.9708,-1.9551,-1.9258,-1.9192,-1.9062,-1.8741,-1.9006,0.0,0.0,0.0,0.0,0.0,0.0,0.0,-1.9782,-1.9787,-2.0759,-2.2653,-2.2483,-2.3119,-2.4459,-2.3881,-2.3287,-2.2597,-2.2648,-2.2526,0.0,0.0,0.0,0.0,0.0,0.0,-2.1997,0.0,0.0,0.0,0.0,0.0,0.0,0.0,0.0,0.0,0.0,0.0,0.0,0.0,-2.9947,-3.464,-3.8418,-4.1324,-4.2821,-4.0703,-3.905,0.0,-3.4053,-3.1689,-2.9774,-2.8487,-2.7884,-2.7735,-2.8154,-2.8992,-3.0131,-3.1749,-3.3544,-3.528,-3.6836,-4.0457,-4.4706,-4.9434,-5.6047,-6.0386,-6.0775,-6.1583,-6.1882,-6.1373,-6.0326,-5.9727,-5.9727,-5.883,-5.8471,-5.871,-5.8979,-5.9099,-5.9099,-5.9099,-5.8979,-5.871,-5.7633,-5.7423,-5.7932,-5.6047,-5.5628,-5.6346,-5.5538,-5.5179,0.0,-5.464,-5.3922,-5.3144,-5.2636,-5.1947,-5.1229,-5.1229,-5.1229,-5.1169,0.0,0.0,0.0,0.0,0.0,0.0,0.0,-1.9277,-1.9654,-1.9654,-1.969,-1.9708,-1.9708,-1.9708,-1.9708,-1.9708,0.0,0.0,0.0,0.0,0.0,0.0,0.0,0.0,-1.9801,-1.9787,-2.0732,-2.2591,-2.3172,-2.3821,-2.4531,-2.5025,-2.4313,-2.2643,-2.261,-2.2272,-2.171,-2.171,-2.171,-2.171,-2.171,-2.1328,0.0,0.0,0.0,0.0,0.0,0.0,0.0,0.0,0.0,0.0,0.0,0.0,0.0,0.0,0.0,0.0,0.0,-3.5848,-3.7464,-3.6237,-3.5489,-3.4412,-3.1809,-3.0342,0.0,-2.7854,-2.7585,-2.7645,-2.7794,-2.8813,-2.9741,-2.9981,-3.2108,-3.4472,-3.6417,-4.0404,-4.5226,-5.09,-5.5059,-5.7393,-5.7244,-6.0086,-6.1403,-6.0116,-5.9398,-5.9009,-5.8949,-5.7782,-5.7393,-5.8022,-5.865,-5.8949,-5.8949,-5.8949,-5.865,-5.8052,-5.7363,-5.6735,-5.6226,-5.5508,-5.5209,-5.5269,-5.5149,-5.5119,-5.5029,-5.3713,-5.3144,-5.2995,-5.1768,-5.1259,-5.1229,-5.1229,-5.1199,-5.1003,0.0,0.0,0.0,0.0,0.0,0.0,0.0,0.0,0.0,0.0,-1.9442,-1.9708,-1.9708,-1.9708,-1.9708,0.0,0.0,0.0,0.0,0.0,0.0,0.0,0.0,0.0,-1.9809,-1.9805,-2.0732,-2.2591,-2.3594,-2.4604,-2.5542,-2.5674,-2.4767,-2.2965,-2.2614,-2.2155,-2.171,-2.171,-2.171,-2.171,-2.171,-2.1328,0.0,0.0,0.0,0.0,-2.1639,-2.2361,0.0,0.0,0.0,0.0,0.0,0.0,0.0,0.0,-2.6321,-2.6901,-2.8723,0.0,-3.145,-3.0642,-3.0702,-3.0552,0.0,-2.8667,-2.8577,-2.7764,-2.7585,-2.8064,-2.9535,-3.0073,-3.112,-3.3694,-3.5459,-3.7015,-3.8512,-4.5155,-5.1169,-5.461,-5.8501,-6.0326,-5.877,-5.9787,-6.0206,-5.9398,-5.871,-5.8112,-5.7603,-5.7274,-5.7154,-5.7334,-5.7483,-5.7573,-5.7573,-5.7573,-5.7483,-5.7334,-5.6705,-5.6555,-5.6825,-5.5718,-5.5478,-5.5897,-5.488,-5.4431,-5.4371,-5.3533,-5.2875,-5.2396,-5.2097,-5.1648,-5.1229,-5.1229,-5.09,-5.0236,0.0,0.0,0.0,0.0,0.0,0.0,0.0,0.0,0.0,0.0,0.0,0.0,0.0,0.0,0.0,0.0,0.0,0.0,0.0,0.0,0.0,0.0,0.0,-1.968,-1.9463,-1.9937,-2.0955,-2.2465,-2.3599,-2.4705,-2.5756,-2.5756,-2.4816,-2.302,-2.1778,-2.1069,-2.0817,-2.0817,-2.0817,-2.0817,-2.0817,0.0,0.0,0.0,0.0,0.0,-2.1472,-2.2109,0.0,-2.4928,-2.5136,-2.4693,0.0,0.0,0.0,0.0,-2.5773,-2.62,-2.6909,-2.8337,-2.9532,-2.9146,-2.9325,-2.9412,-2.8693,-2.8334,-2.8034,-2.7675,-2.7854,-2.8457,-2.9834,-3.0821,-3.2228,-3.4651,-3.6357,-3.8631,-4.2064,-4.7369,-5.2276,-5.6137,-5.8501,-5.9608,-5.9159,-5.9159,-5.889,-5.8231,-5.7603,-5.7184,-5.7094,-5.6526,-5.6346,-5.6675,-5.6376,-5.6496,-5.7094,-5.7094,-5.6944,-5.6675,-5.6346,-5.6196,-5.6196,-5.5209,-5.494,-5.5209,-5.4192,-5.3743,-5.3683,-5.3025,-5.2516,-5.2187,-5.1858,-5.1528,-5.1229,-5.1229,-5.0764,-4.9998,0.0,0.0,0.0,0.0,0.0,0.0,0.0,0.0,0.0,0.0,0.0,0.0,0.0,0.0,0.0,0.0,0.0,0.0,0.0,0.0,0.0,0.0,-1.9572,-1.9762,-1.9367,-2.0348,-2.1352,-2.2418,-2.3653,-2.4757,-2.5737,-2.5912,-2.4958,-2.302,-2.0891,-1.9886,-1.9811,-1.9811,-1.9811,-1.9811,-1.9811,0.0,0.0,0.0,0.0,0.0,0.0,0.0,0.0,-2.4838,-2.5442,-2.5437,-2.55,0.0,0.0,0.0,0.0,0.0,-2.6625,-2.8419,-2.9951,-2.9562,-2.9654,-2.9864,-2.9771,-2.8873,-2.8034,-2.8034,-2.8487,-2.9146,-3.0041,-3.1719,-3.3455,-3.4981,-3.7135,-4.0576,-4.6262,-4.8865,-5.1905,-5.6406,-5.7214,-5.7723,-5.859,-5.8231,-5.7633,-5.6855,-5.6316,-5.6166,-5.6466,-5.5478,-5.5149,-5.5739,-5.5179,-5.5448,-5.6645,-5.6765,-5.6496,-5.5867,-5.5867,-5.5538,-5.488,-5.4311,-5.4042,-5.4012,-5.3324,-5.3025,-5.2995,-5.2306,-5.2007,-5.1858,-5.1289,-5.102,-5.093,-5.093,-5.0342,-4.9334,0.0,0.0,0.0,0.0,0.0,0.0,0.0,0.0,0.0,0.0,0.0,0.0,0.0,0.0,0.0,0.0,0.0,0.0,0.0,0.0,0.0,-1.893,-1.9981,-2.0721,-2.1036,-2.1296,-2.1944,-2.297,-2.4582,-2.5686,-2.6373,-2.7293,-2.6088,-2.302,-2.1317,-2.0289,-1.9811,-1.9811,-1.9811,-1.9811,-1.9811,0.0,0.0,0.0,0.0,0.0,0.0,0.0,0.0,-2.4282,-2.4754,-2.4851,-2.5414,0.0,0.0,0.0,0.0,0.0,-2.7943,-3.014,-3.1539,-2.9295,-3.0013,-3.1062,-3.0492,-3.0193,-3.0043,-3.0043,-3.0133,-3.0761,-3.2557,-3.4083,-3.5848,-3.8272,-4.1713,-4.5574,-4.9853,-5.2665,-5.479,-5.6166,-5.7782,-5.8231,-5.6765,-5.7004,-5.6765,-5.5568,-5.5388,-5.488,-5.3832,-5.3593,-5.3533,-5.3623,-5.3533,-5.3862,-5.464,-5.5209,-5.5149,-5.4521,-5.4521,-5.4162,-5.3473,-5.3384,-5.3324,-5.3294,-5.2636,-5.2336,-5.2306,-5.1648,-5.1003,-5.0495,-5.0375,-5.0062,-4.9599,-4.9599,-4.8486,-4.6726,0.0,0.0,0.0,0.0,0.0,0.0,0.0,0.0,0.0,0.0,0.0,0.0,0.0,0.0,0.0,0.0,0.0,0.0,0.0,0.0,-1.9897,-2.0381,-2.1304,-2.1744,-2.1667,-2.2511,-2.3678,-2.5154,-2.6071,-2.6942,-2.777,-2.6791,-2.5001,-2.2594,-2.0941,-2.0062,-1.9811,-1.9811,-1.9811,-1.9811,0.0,0.0,0.0,0.0,0.0,0.0,0.0,0.0,0.0,0.0,-2.4844,-2.5202,-2.5525,0.0,0.0,0.0,0.0,0.0,-2.735,-2.9445,-3.124,-3.0402,-3.1929,-3.3514,-3.2796,-3.2377,-3.2108,-3.2108,-3.2407,-3.3036,-3.4352,-3.6237,-3.8841,-4.2512,-4.5574,-4.8207,-5.0345,-5.1738,-5.3174,-5.491,-5.5269,-5.5448,-5.5628,-5.5239,-5.473,-5.4162,-5.4102,-5.3832,-5.3204,-5.3174,-5.3174,-5.3174,-5.3174,-5.3324,-5.3653,-5.3952,-5.4132,-5.4221,-5.3832,-5.3503,-5.3174,-5.2815,-5.2665,-5.2606,-5.1947,-5.1468,-5.1109,-5.0764,-5.0301,-4.9703,-4.9703,-4.9523,-4.9179,-4.8129,-4.6738,-4.5099,0.0,0.0,0.0,0.0,0.0,0.0,0.0,0.0,0.0,0.0,0.0,0.0,0.0,0.0,0.0,0.0,0.0,0.0,0.0,0.0,-2.0468,-2.1635,-2.2493,-2.3003,-2.3157,-2.4286,-2.5691,-2.7293,-2.7507,-2.787,-2.8298,-2.5753,-2.3803,-2.2246,-2.069,-1.9936,-1.9811,-1.9811,-1.9811,-1.9811,0.0,0.0,0.0,0.0,0.0,0.0,0.0,0.0,0.0,0.0,0.0,0.0,0.0,0.0,0.0,-2.5764,-2.5974,-2.6452,-2.6931,-2.8637,-3.0522,-3.1481,-3.3394,-3.51,-3.534,-3.4771,-3.4382,-3.4981,-3.5519,-3.5968,-3.6357,-3.8691,-4.1923,-4.6112,-4.8566,-5.0301,-5.1259,-5.1481,-5.2396,-5.4431,-5.3623,-5.3443,-5.482,-5.3892,-5.3114,-5.2965,-5.2965,-5.2815,-5.2516,-5.2636,-5.2665,-5.2486,-5.2364,-5.2318,-5.2466,-5.2318,-5.2732,-5.3743,-5.3204,-5.2875,-5.2695,-5.2187,-5.1977,-5.1947,-5.1289,-5.0644,-5.0196,-5.0016,-4.9613,-4.909,-4.909,-4.9,-4.8611,-4.6816,-4.5336,-4.4042,0.0,0.0,0.0,0.0,0.0,0.0,0.0,0.0,0.0,0.0,0.0,0.0,0.0,0.0,0.0,0.0,0.0,0.0,0.0,0.0,-2.0946,-2.1665,-2.2862,-2.4587,-2.685,-2.7137,-2.7698,-2.8577,-2.8588,-2.7954,-2.6625,-2.4858,-2.3427,-2.2272,-2.1144,-2.0339,-1.9811,-1.9811,-1.9811,-1.9811,-1.9811,0.0,0.0,0.0,0.0,0.0,0.0,0.0,0.0,0.0,0.0,0.0,0.0,0.0,-2.5674,-2.5615,-2.5621,-2.6093,-2.7949,-2.9056,-3.0103,-3.1988,-3.3036,-3.4412,-3.7434,-3.7165,-3.6956,-3.9409,-3.9948,-3.9798,-3.926,-4.1735,-4.4885,-4.7698,-5.0301,-5.2665,-5.4551,-5.5359,-5.5807,-5.6017,-5.5418,-5.479,-5.4311,-5.3623,-5.2935,-5.2306,-5.2276,-5.1738,-5.0465,-5.102,-5.1079,-5.0435,-4.9794,-4.9791,-5.0427,-4.982,-5.0437,-5.2336,-5.2306,-5.1947,-5.1349,-5.1319,-5.1289,-5.1259,-5.0554,-5.0226,-5.0136,-4.9583,-4.8955,-4.8356,-4.8356,-4.7967,-4.7298,-4.5956,-4.4666,-4.3368,0.0,0.0,0.0,0.0,0.0,0.0,0.0,0.0,0.0,0.0,0.0,0.0,0.0,0.0,0.0,0.0,0.0,0.0,0.0,-2.0927,-2.1346,-2.2802,-2.3002,-2.4454,-2.7417,-2.7728,-2.8849,-3.083,-2.9316,-2.7486,-2.541,-2.4079,-2.302,-2.2272,-2.1194,-2.0566,-2.0365,-2.0365,-2.0137,-1.9836,-2.0214,-2.0112,0.0,0.0,0.0,0.0,0.0,0.0,0.0,0.0,-2.4059,-2.4664,-2.5083,-2.5382,-2.5704,-2.6093,-2.5944,-2.5854,-2.7021,-2.9026,-3.1061,-3.2198,-3.3634,-3.54,-3.7823,-3.9326,-4.0583,-4.1953,-4.324,-4.3868,-4.318,-4.4436,-4.6441,-4.9075,-5.102,-5.2905,-5.491,-5.467,-5.4461,-5.491,-5.3982,-5.3234,-5.2995,-5.1977,-5.1259,-5.099,-5.0601,-5.0152,-4.9673,-5.0242,-5.0301,-4.9643,-4.9347,-4.9153,-4.896,-4.7935,-4.7787,-4.8587,-5.0607,-5.1468,-5.1229,-5.1229,-5.1229,-5.1122,-4.9657,-4.8799,-4.8436,-4.7746,-4.7102,-4.6562,-4.7376,-4.7519,-4.7149,-4.5869,-4.5115,-4.4396,0.0,0.0,0.0,0.0,0.0,0.0,0.0,0.0,0.0,0.0,0.0,0.0,0.0,0.0,0.0,0.0,0.0,0.0,-2.1914,-2.1395,-2.1784,-2.352,-2.3191,-2.432,-2.7225,-2.7524,-2.8684,-3.0838,-2.8519,-2.6408,-2.4531,-2.3371,-2.2744,-2.2493,-2.1446,-2.0943,-2.0943,-2.0943,-2.0616,-2.0112,-2.0717,-2.0616,0.0,0.0,0.0,0.0,0.0,0.0,0.0,0.0,-2.3755,-2.4425,-2.5322,-2.5615,-2.5734,-2.6393,-2.6422,-2.6333,-2.6806,-2.8727,-3.0883,-3.2198,-3.3844,-3.5968,-3.8996,-4.0943,-4.271,-4.4796,-4.5813,-4.6164,-4.5733,-4.6007,-4.697,-4.8992,-5.0964,-5.2755,-5.4341,-5.3773,-5.3204,-5.3264,-5.2456,-5.1738,-5.1319,-5.0451,-4.9942,-4.9942,-4.9523,-4.9209,-4.903,-4.9583,-4.9643,-4.903,-4.8705,-4.8355,-4.7875,-4.6602,-4.6067,-4.6261,-4.8393,-4.9692,-5.0277,-4.985,-4.9985,-5.0449,-4.8115,-4.6937,-4.6681,-4.5855,-4.521,-4.4932,-4.6211,-4.6432,-4.6032,-4.5598,-4.5161,-4.4535,0.0,0.0,0.0,0.0,0.0,0.0,0.0,0.0,0.0,0.0,0.0,0.0,0.0,0.0,0.0,0.0,0.0,0.0,-2.2572,-2.2074,-2.2263,-2.355,-2.358,-2.4537,-2.6512,-2.6572,-2.7067,-2.8083,-2.5959,-2.458,-2.3954,-2.2849,-2.2569,-2.3045,-2.1995,-2.1493,-2.1493,-2.1493,-2.1194,-2.0742,-2.1295,-2.1194,-2.0718,0.0,0.0,0.0,0.0,0.0,0.0,0.0,-2.3098,-2.3849,-2.5196,-2.5615,-2.5734,-2.6393,-2.7076,-2.7585,-2.7615,-2.8124,-2.9265,-3.1898,-3.3544,-3.5941,-4.1242,-4.1931,-4.295,-4.8251,-4.7728,-4.6367,-4.6413,-4.6373,-4.6561,-4.7329,-5.0088,-5.2426,-5.3084,-5.3144,-5.2665,-5.1379,-5.1199,-5.069,-4.9449,-4.9299,-4.9299,-4.9299,-4.9299,-4.9,-4.8327,-4.894,-4.9,-4.8297,-4.7578,-4.7166,-4.7166,-4.5937,-4.5553,-4.6082,-4.5674,-4.6469,-4.8211,-4.6911,-4.7319,-4.8997,-4.5825,-4.4795,-4.5188,-4.4001,-4.3504,-4.3646,-4.4932,-4.4627,-4.3693,-4.4932,-4.4581,-4.3504,0.0,0.0,0.0,0.0,0.0,0.0,0.0,0.0,0.0,0.0,0.0,0.0,0.0,0.0,0.0,0.0,0.0,0.0,-2.2622,-2.2523,-2.2763,-2.355,-2.3191,-2.343,-2.4477,-2.4069,-2.4402,-2.5574,-2.5354,-2.4392,-2.2824,-2.2844,-2.2945,-2.3095,-2.2769,-2.2422,-2.2071,-2.2071,-2.2028,-2.2086,-2.2633,-2.2528,-2.2086,0.0,0.0,0.0,0.0,0.0,0.0,0.0,0.0,0.0,-2.5027,-2.5914,-2.6422,-2.7106,-2.7435,-2.7705,-2.8158,-2.9804,-3.1869,-3.4083,-3.6985,-4.0254,-4.3629,-4.4287,-4.5514,-5.0331,-4.9763,-4.8566,-4.9008,-4.8343,-4.8044,-4.9215,-5.019,-5.1199,-5.2336,-5.1678,-5.096,-5.0524,-5.0122,-4.9748,-4.9359,-4.888,-4.8566,-4.8566,-4.8147,-4.7818,-4.7608,-4.8207,-4.8267,-4.7608,-4.7345,-4.6965,-4.6534,-4.5244,-4.4649,-4.4842,-4.381,-4.457,-4.6883,-4.6117,-4.6055,-4.649,-4.4189,-4.3245,-4.3402,-4.3499,-4.4022,-4.4978,-4.6255,-4.5958,-4.4886,-4.5252,-4.4581,-4.3504,0.0,0.0,0.0,0.0,0.0,0.0,0.0,0.0,0.0,0.0,0.0,0.0,0.0,0.0,0.0,0.0,0.0,0.0,0.0,-2.2463,-2.2682,-2.355,-2.3032,-2.2972,-2.358,-2.3231,-2.3427,-2.4163,-2.4202,-2.3709,-2.2728,-2.3447,-2.3932,-2.4213,-2.3901,-2.3471,-2.2975,-2.2719,-2.2556,-2.2521,-2.3062,-2.2959,-2.2521,0.0,0.0,0.0,0.0,0.0,0.0,0.0,0.0,0.0,-2.466,-2.5495,-2.6004,-2.6926,-2.7375,-2.7854,-2.9026,-3.1091,-3.3514,-3.6028,-3.905,-4.2192,-4.5364,-4.689,-4.8506,-5.1558,-5.0631,-4.9387,-4.9787,-4.8788,-4.8164,-4.8942,-4.9502,-5.0122,-5.093,-5.0361,-4.9763,-4.9494,-4.9105,-4.882,-4.8506,-4.8117,-4.7908,-4.7908,-4.7519,-4.7309,-4.7309,-4.7668,-4.7728,-4.7309,-4.7242,-4.704,-4.6632,-4.5381,-4.4836,-4.504,-4.3536,-4.3769,-4.5465,-4.4111,-4.4184,-4.537,-4.3877,-4.3152,-4.3008,-4.3879,-4.4396,-4.4794,-4.6077,-4.5779,-4.4674,-4.5207,-4.4932,-4.4256,0.0,0.0,0.0,0.0,0.0,0.0,0.0,0.0,0.0,0.0,0.0,0.0,0.0,0.0,0.0,0.0,0.0,0.0,0.0,0.0,-2.2323,-2.355,-2.3092,-2.299,-2.3515,-2.3523,-2.3555,-2.3621,-2.2925,-2.2909,-2.3599,-2.4587,-2.5306,-2.5796,-2.5205,-2.4545,-2.3879,-2.3321,-2.2879,-2.251,-2.3014,-2.2913,-2.2459,-2.2459,0.0,0.0,0.0,0.0,0.0,0.0,0.0,0.0,-2.4095,-2.4603,-2.4954,-2.6243,-2.7136,-2.8094,-2.9983,-3.1958,-3.4322,-3.7734,-4.0307,-4.297,-4.6651,-4.9314,-5.1229,-5.1887,-5.0601,-4.9353,-4.9359,-4.8348,-4.7496,-4.7585,-4.8512,-4.9299,-4.9239,-4.9209,-4.897,-4.8267,-4.8207,-4.7967,-4.7369,-4.7309,-4.7309,-4.7309,-4.7309,-4.7309,-4.7309,-4.7309,-4.7309,-4.7309,-4.7309,-4.7309,-4.7309,-4.6166,-4.5842,-4.6299,-4.4537,-4.3923,-4.4332,-4.1902,-4.2367,-4.5106,-4.4505,-4.3953,-4.3598,-4.4886,-4.472,-4.3787,-4.507,-4.4794,-4.3834,-4.4978,-4.5343,-4.5252,0.0,0.0,0.0,0.0,0.0,0.0,0.0,0.0,0.0,0.0,0.0,0.0,0.0,0.0,0.0,0.0,0.0,0.0,0.0,0.0,-2.2823,-2.358,-2.346,-2.3244,-2.2897,-2.2897,-2.2919,-2.292,-2.3684,-2.4401,-2.508,-2.6192,-2.6186,-2.5368,-2.5686,-2.4859,-2.3296,-2.317,-2.3408,-2.389,-2.4021,-2.3995,-2.3864,-2.3864,-2.3074,0.0,0.0,0.0,0.0,0.0,0.0,0.0,-2.3326,-2.4631,-2.5628,-2.6391,-2.744,-2.8697,-3.0103,-3.1958,-3.4532,-3.8871,-4.3419,-4.716,-4.858,-4.9329,-4.9883,-5.0511,-5.0285,-5.003,-4.9991,-4.9371,-4.888,-4.8878,-4.9119,-4.912,-4.8566,-4.8506,-4.8267,-4.7608,-4.7519,-4.7459,-4.7309,-4.7309,-4.7309,-4.7309,-4.7309,-4.7309,-4.7309,-4.7309,-4.7309,-4.7309,-4.7309,-4.7309,-4.7309,-4.7019,-4.6947,-4.7051,-4.5656,-4.5035,-4.5132,-4.3554,-4.3251,-4.389,-4.3752,-4.3614,-4.3598,-4.4886,-4.5252,-4.5115,-4.6388,-4.6121,-4.5024,-4.5298,-4.4794,-4.4069,0.0,0.0,0.0,0.0,0.0,0.0,0.0,0.0,0.0,0.0,0.0,0.0,0.0,0.0,0.0,0.0,0.0,0.0,0.0,0.0,-2.2972,-2.358,-2.361,-2.345,-2.3143,-2.3443,-2.3774,-2.4077,-2.5034,-2.5669,-2.6068,-2.7414,-2.7519,-2.655,-2.6858,-2.5829,-2.3873,-2.3321,-2.3335,-2.3691,-2.331,-2.3399,-2.3691,-2.331,-2.2803,-2.2272,-2.197,0.0,0.0,0.0,0.0,0.0,0.0,0.0,-2.4091,-2.5662,-2.639,-2.7347,-3.0199,-3.2437,-3.531,-4.0876,-4.5065,-4.7997,-4.87,-4.8805,-4.8895,-4.9224,-4.9553,-4.9763,-4.9763,-4.9224,-4.8805,-4.8805,-4.8536,-4.8207,-4.7878,-4.7818,-4.7698,-4.7339,-4.7309,-4.7309,-4.7309,-4.701,-4.683,-4.683,-4.6531,-4.6471,-4.68,-4.683,-4.698,-4.7309,-4.7309,-4.7309,-4.7309,-4.7309,-4.7309,-4.7309,-4.6638,-4.6299,-4.6255,-4.4978,-4.4396,-4.4442,-4.507,-4.5298,-4.5343,-4.6032,-4.6299,-4.6388,-4.7019,-4.6887,-4.6299,-4.6299,-4.5869,-4.5389,0.0,0.0,0.0,0.0,0.0,0.0,0.0,0.0,0.0,0.0,0.0,0.0,0.0,0.0,0.0,0.0,0.0,0.0,0.0,0.0,0.0,-2.358,-2.361,-2.364,-2.3759,-2.4306,-2.4993,-2.5764,-2.6333,-2.6891,-2.7455,-2.8591,-2.8786,-2.8241,-2.794,-2.6626,-2.4646,-2.3558,-2.3095,-2.3035,-2.2218,-2.2372,-2.3005,-2.2187,-2.2104,-2.2447,-2.2347,-2.202,-2.1627,-2.1613,0.0,0.0,0.0,0.0,-2.2318,-2.4733,-2.5156,-2.577,-3.0026,-3.3066,-3.6417,-4.2342,-4.5304,-4.695,-4.7608,-4.7758,-4.7758,-4.7758,-4.8386,-4.897,-4.897,-4.8476,-4.8117,-4.8117,-4.7668,-4.7309,-4.7309,-4.7309,-4.7309,-4.7309,-4.7309,-4.7249,-4.716,-4.6651,-4.6219,-4.6142,-4.5603,-4.5544,-4.6112,-4.593,-4.6083,-4.6661,-4.6444,-4.6387,-4.6505,-4.6505,-4.6564,-4.6638,-4.6638,-4.677,-4.6931,-4.5869,-4.5553,-4.5779,-4.6844,-4.7309,-4.7309,-4.7309,-4.7309,-4.7309,-4.7309,-4.7309,-4.7309,-4.7309,-4.7309,-4.7309,0.0,0.0,0.0,0.0,0.0,0.0,0.0,0.0,0.0,0.0,0.0,0.0,0.0,0.0,0.0,0.0,0.0,0.0,-2.0796,0.0,0.0,-2.361,-2.361,-2.3879,-2.4455,-2.4545,-2.5202,-2.6452,-2.6566,-2.8047,-3.0829,-2.9943,-2.94,-2.9173,-2.7923,-2.6237,-2.4311,-2.3445,-2.3095,-2.3035,-2.2218,-2.2372,-2.3005,-2.2187,-2.2378,-2.292,-2.2468,-2.2272,-2.2121,-2.168,-2.1506,0.0,0.0,0.0,-2.28,-2.4376,-2.5127,-2.6123,-2.9044,-3.3365,-3.7793,-4.0965,-4.3269,-4.4885,-4.5544,-4.5693,-4.5693,-4.5693,-4.6711,-4.7578,-4.7578,-4.7489,-4.7429,-4.7429,-4.7369,-4.7309,-4.7309,-4.7309,-4.7309,-4.7309,-4.7309,-4.707,-4.6501,-4.6339,-4.6082,-4.5484,-4.5334,-4.5334,-4.5424,-4.451,-4.3994,-4.4081,-4.3101,-4.2817,-4.3332,-4.3332,-4.3538,-4.4022,-4.4022,-4.4581,-4.5644,-4.5479,-4.6003,-4.7062,-4.7222,-4.7309,-4.7309,-4.7309,-4.7309,-4.7309,-4.7309,-4.7309,-4.7309,-4.7309,-4.7309,-4.7309,0.0,0.0,0.0,0.0,0.0,0.0,0.0,0.0,0.0,0.0,0.0,0.0,0.0,0.0,0.0,-1.7463,-1.85,-1.9989,-2.1778,-2.2974,-2.361,-2.361,-2.361,-2.3729,-2.4007,-2.4357,-2.5059,-2.6033,-2.6356,-2.824,-3.1481,-3.0913,-3.1161,-3.2009,-3.0747,-2.875,-2.6281,-2.4879,-2.3799,-2.3035,-2.2218,-2.2201,-2.258,-2.2091,-2.2232,-2.2644,-2.2719,-2.2744,-2.2669,-2.2146,-2.1945,-2.1851,-2.1267,0.0,0.0,0.0,-2.3984,-2.5426,-2.9557,-3.2886,-3.6028,-3.9439,-4.1205,-4.2581,-4.4347,-4.4466,-4.4407,-4.5155,-4.5484,-4.5753,-4.6112,-4.6172,-4.6292,-4.6681,-4.6741,-4.689,-4.7249,-4.7309,-4.7309,-4.7309,-4.7309,-4.704,-4.6381,-4.5963,-4.5454,-4.4796,-4.4407,-4.4032,-4.3818,-4.3311,-4.2897,-4.2624,-4.206,-4.1928,-4.2205,-4.2205,-4.2463,-4.3053,-4.3053,-4.35,-4.4349,-4.507,-4.6121,-4.7309,-4.7309,-4.7309,-4.7309,-4.7309,-4.7309,-4.7309,-4.7309,-4.7309,-4.7309,-4.7309,-4.7309,-4.7309,0.0,0.0,0.0,0.0,0.0,0.0,0.0,0.0,0.0,0.0,0.0,0.0,0.0,0.0,0.0,0.0,-1.9076,-2.0496,-2.234,-2.3165,-2.367,-2.3849,-2.3849,-2.3911,-2.4081,-2.453,-2.5036,-2.5531,-2.6191,-2.8212,-3.1456,-3.1662,-3.2908,-3.4952,-3.3362,-3.1066,-2.8266,-2.6658,-2.5173,-2.375,-2.2482,-2.2089,-2.226,-2.1825,-2.1934,-2.2368,-2.292,-2.3095,-2.3045,-2.2619,-2.2493,-2.2347,-2.1393,-2.1119,0.0,0.0,0.0,-2.5334,-2.9616,-3.1749,-3.3514,-3.6802,-3.8542,-3.9948,-4.2073,-4.2581,-4.288,-4.3838,-4.3778,-4.3718,-4.4227,-4.4855,-4.5454,-4.5963,-4.6052,-4.6232,-4.6711,-4.68,-4.68,-4.68,-4.68,-4.6531,-4.5873,-4.5334,-4.4766,-4.4107,-4.3559,-4.3027,-4.2405,-4.2066,-4.1577,-4.0868,-4.0577,-4.0494,-4.0657,-4.0746,-4.1152,-4.1727,-4.1727,-4.2168,-4.3074,-4.4022,-4.5298,-4.6844,-4.7149,-4.7309,-4.7309,-4.7309,-4.7309,-4.7309,-4.7309,-4.7309,-4.7309,-4.7309,-4.7309,-4.7309,0.0,0.0,0.0,0.0,0.0,0.0,0.0,0.0,0.0,0.0,0.0,0.0,-2.0686,-2.0225,-1.9866,-1.9863,-1.9349,-1.9825,-2.1631,-2.2913,-2.3857,-2.4515,-2.4545,0.0,-2.5394,-2.543,-2.5438,-2.5411,-2.6147,-2.8193,-3.1409,-3.2108,-3.4171,-3.7122,-3.4501,-3.184,-2.926,-2.8493,-2.7349,-2.5796,-2.3149,-2.2163,-2.221,-2.1386,-2.1564,-2.2368,-2.292,-2.3095,-2.3095,-2.307,-2.307,-2.297,-2.2368,-2.2221,-2.2407,0.0,0.0,0.0,-2.8312,-2.9684,-3.1001,-3.2497,-3.4801,-3.6866,-3.7614,-3.92,-4.0576,-4.0636,-4.1115,-4.1534,-4.1594,-4.3629,-4.5304,-4.5334,-4.5334,-4.5364,-4.5394,-4.5394,-4.5394,-4.5394,-4.5394,-4.5155,-4.4496,-4.4377,-4.4077,-4.3379,-4.3319,-4.282,-4.1728,-4.0631,-3.9502,-3.8323,-3.7227,-3.6922,-3.7453,-3.7934,-3.849,-3.9095,-3.9095,-4.0002,-4.169,-4.1789,-4.317,-4.5598,-4.677,-4.7309,-4.7309,-4.7309,-4.7309,-4.7309,-4.7309,-4.7309,-4.7309,-4.7309,-4.7309,-4.7309,0.0,0.0,0.0,0.0,0.0,0.0,0.0,0.0,0.0,0.0,0.0,0.0,0.0,-2.0998,-2.0918,-2.0598,-2.1478,-2.2289,-2.2966,-2.4194,-2.4807,-2.4605,-2.4605,-2.4492,-2.4234,-2.4157,-2.4352,-2.4749,-2.497,-2.658,-2.9493,-3.0192,-3.1634,-3.3633,-3.3951,-3.3071,-3.1232,-2.9688,-2.8183,-2.6802,-2.5418,-2.4656,-2.4305,-2.3966,-2.4051,-2.4357,-2.4387,-2.4676,-2.4879,-2.3988,-2.3678,-2.3527,-2.2598,-2.2322,-2.2483,-2.3363,-2.4986,-2.6645,-2.7165,-2.8278,-2.9594,-3.0881,-3.2587,-3.4322,-3.5848,-3.7075,-3.8123,-3.8931,-3.929,-3.9589,-4.0038,-4.1594,-4.306,-4.3898,-4.4047,-4.4317,-4.5185,-4.5304,-4.5304,-4.5304,-4.4915,-4.4407,-4.3708,-4.3299,-4.2791,-4.2132,-4.2073,-4.1449,-3.9929,-3.9491,-3.8556,-3.7057,-3.6615,-3.6505,-3.6707,-3.6908,-3.7236,-3.7789,-3.814,-3.8843,-3.9927,-4.1063,-4.2133,-4.3074,-4.5161,-4.655,-4.7309,-4.7309,-4.7309,-4.7309,-4.7309,-4.7309,-4.7309,-4.7309,-4.7309,-4.7309,0.0,0.0,0.0,0.0,0.0,0.0,0.0,0.0,0.0,-1.805,0.0,0.0,0.0,0.0,-2.2466,-2.1908,-2.3212,-2.4033,-2.4033,-2.5018,-2.5525,-2.5262,-2.5053,-2.4693,-2.4145,-2.3858,-2.3796,-2.398,-2.4209,-2.5563,-2.8054,-2.8742,-3.0075,-3.1869,-3.2766,-3.2882,-3.2361,-3.1246,-2.9839,-2.8244,-2.6947,-2.6358,-2.6162,-2.6105,-2.6244,-2.6465,-2.618,-2.6219,-2.6179,-2.4544,-2.4004,-2.3828,-2.2869,-2.2593,-2.2791,-2.3581,-2.4931,-2.62,-2.6486,-2.7382,-2.8457,-2.9295,-3.0522,-3.1869,-3.3215,-3.4352,-3.5519,-3.6806,-3.7255,-3.7704,-3.8571,-3.9469,-4.0546,-4.2064,-4.2521,-4.297,-4.3868,-4.3988,-4.3988,-4.3988,-4.3599,-4.3031,-4.2199,-4.1755,-4.1185,-4.0403,-4.0334,-3.9688,-3.8148,-3.809,-3.7395,-3.5898,-3.5981,-3.6081,-3.6081,-3.6329,-3.6681,-3.7186,-3.7563,-3.804,-3.8642,-4.0052,-4.0932,-4.1425,-4.3326,-4.507,-4.6682,-4.7106,-4.7309,-4.7309,-4.7309,-4.7309,-4.7309,-4.7309,-4.7309,-4.7309,0.0,0.0,0.0,0.0,0.0,0.0,0.0,0.0,-1.7885,-1.9793,0.0,0.0,0.0,0.0,0.0,-2.3817,-2.4373,-2.4771,-2.4771,-2.5307,-2.5944,-2.6572,-2.5974,-2.5525,-2.5384,-2.4749,-2.3981,-2.3125,-2.3927,-2.5331,-2.7273,-2.8026,-2.9812,-3.2377,-3.1091,-3.127,-3.2497,-3.3155,-3.2255,-3.0217,-2.7726,-2.7083,-2.7645,-2.7589,-2.801,-2.8566,-2.8211,-2.7723,-2.6887,-2.4841,-2.4111,-2.3954,-2.3321,-2.3218,-2.343,-2.4094,-2.486,-2.5664,0.0,0.0,0.0,-2.753,-2.8547,-2.9535,-2.9535,-3.1061,-3.2826,-3.4114,-3.4921,-3.5789,-3.7015,-3.7285,-3.7973,-3.9918,-4.0846,-4.1324,-4.1392,-4.1422,-4.1422,-4.1422,-4.1354,-4.0944,-3.9884,-3.9737,-3.9299,-3.8214,-3.8131,-3.7632,-3.6538,-3.6479,-3.5895,-3.4726,-3.5207,-3.5508,-3.5508,-3.6081,-3.6681,-3.7161,-3.7186,-3.7462,-3.799,-3.8567,-3.9544,-4.0746,-4.1301,-4.2972,-4.5331,-4.6653,-4.7236,-4.7266,-4.7236,-4.7279,-4.7309,-4.7309,-4.7309,-4.7309,0.0,0.0,0.0,0.0,0.0,0.0,-1.7506,-1.8707,-2.003,0.0,0.0,0.0,-2.5193,-2.5354,-2.5278,-2.5081,-2.5667,-2.6085,-2.6085,-2.6678,-2.6926,-2.6602,-2.6422,-2.5812,-2.4693,-2.4474,-2.4258,-2.3959,-2.4192,-2.5127,-2.6743,-2.742,-2.87,-3.0432,-3.1001,-3.1421,-3.175,-3.148,-3.1543,-3.1783,-3.0121,-3.0097,-3.1014,-3.0043,-3.0396,-3.1306,-3.0568,-3.0095,-2.9547,-2.7961,-2.6668,-2.5569,-2.418,-2.3893,-2.396,-2.3668,-2.4448,0.0,-2.5137,0.0,0.0,0.0,0.0,0.0,-2.8201,-2.9624,-3.115,-3.1539,-3.2138,-3.2856,-3.3693,-3.4651,-3.5639,-3.6686,-3.8601,-4.0127,-4.0606,-4.1085,-4.1422,-4.1422,-4.0965,-4.0262,-3.9208,-3.8621,-3.7908,-3.6829,-3.6749,-3.6484,-3.5817,-3.5425,-3.506,-3.4726,-3.5207,-3.5508,-3.5508,-3.6081,-3.648,-3.6631,-3.6985,-3.7262,-3.7437,-3.799,-3.8414,-3.8858,-3.9935,-4.0775,-4.1603,-4.4138,-4.5506,-4.5974,-4.6397,-4.689,-4.7309,-4.7309,-4.7309,-4.7309,0.0,0.0,0.0,0.0,0.0,-2.1159,-2.0644,-2.1538,-2.2503,0.0,0.0,0.0,-2.6314,-2.6931,-2.7171,-2.6871,-2.72,-2.744,-2.744,-2.7555,-2.7435,-2.7046,-2.6776,-2.6042,-2.4832,-2.4529,-2.4368,-2.4279,-2.4279,-2.5049,-2.6525,-2.7185,-2.8261,-2.9651,-3.0372,-3.1002,-3.1451,-3.0763,-3.112,-3.2019,-3.1212,-3.1719,-3.2856,-3.2347,-3.2826,-3.366,-3.3077,-3.2601,-3.1909,-2.9834,-2.779,-2.5896,-2.4431,-2.4213,-2.4322,-2.3467,0.0,0.0,0.0,0.0,0.0,-2.556,0.0,0.0,-2.6402,-2.735,-2.8505,-2.8798,-2.9431,-3.0163,-3.112,-3.2138,-3.2945,-3.329,-3.5259,-3.7345,-3.8889,-3.9469,-3.9828,-4.0098,-3.9559,-3.8656,-3.75,-3.6779,-3.5774,-3.4326,-3.4406,-3.4518,-3.4503,-3.4172,-3.4048,-3.4048,-3.4575,-3.4931,-3.5157,-3.5755,-3.6132,-3.6405,-3.6732,-3.6883,-3.686,-3.7412,-3.7663,-3.7712,-3.8669,-3.911,-3.9254,-4.1287,-4.294,-4.4322,-4.4656,-4.5183,-4.5734,-4.5734,-4.6077,-4.6506,0.0,0.0,-2.2154,-2.2297,-2.3803,-2.4829,-2.4314,-2.4688,-2.5089,0.0,-2.5712,-2.6477,-2.7684,-2.8903,-2.9355,-2.8757,-2.8697,-2.8667,-2.8607,-2.8064,-2.7675,-2.7585,-2.7046,-2.6305,-2.5412,-2.4804,-2.4449,-2.4279,-2.4366,-2.5161,-2.6525,-2.7353,-2.8402,-2.9621,-2.9771,-3.0432,-3.1451,-3.0853,-3.0943,-3.1511,-3.157,-3.2407,-3.3664,-3.4294,-3.4891,-3.5481,-3.5283,-3.4772,-3.3738,-3.0779,-2.8057,-2.5686,-2.4607,-2.4556,-2.4675,-2.3597,-2.4141,0.0,0.0,0.0,0.0,0.0,-2.5576,0.0,-2.4668,-2.5093,-2.5819,-2.6354,-2.7019,-2.7846,-2.9128,-2.9928,-3.0358,-3.0217,-3.1709,-3.3848,-3.6658,-3.7178,-3.751,-3.8212,-3.7764,-3.6887,-3.5571,-3.4823,-3.3619,-3.1686,-3.1921,-3.234,-3.2867,-3.2943,-3.2993,-3.2993,-3.3571,-3.4173,-3.468,-3.5232,-3.5805,-3.6405,-3.6405,-3.6405,-3.643,-3.686,-3.7086,-3.7111,-3.7613,-3.7814,-3.7887,-3.8407,-4.0121,-4.2389,-4.2473,-4.286,-4.3393,-4.3393,-4.4153,-4.5207,0.0,0.0,-2.3659,-2.4705,-2.6052,-2.7172,-2.7575,-2.7306,-2.7415,-2.8492,-2.8751,-2.8919,-2.9175,-2.9442,-2.9562,-2.9442,-2.9412,-2.9175,-2.8637,-2.8487,-2.8158,-2.7615,-2.7465,-2.6799,-2.5412,-2.5273,-2.4913,-2.4279,-2.4908,-2.566,-2.6525,-2.8334,-2.9337,-2.9651,-3.0672,-3.1271,-3.1481,-3.1361,-3.1391,-3.154,-3.2079,-3.3125,-3.4324,-3.4444,-3.4891,-3.5487,-3.5475,-3.4827,-3.3659,-3.1118,-2.9093,-2.7419,-2.6348,-2.577,-2.5335,-2.465,-2.4652,-2.4957,0.0,0.0,-2.6224,-2.5382,-2.6634,0.0,-2.4891,-2.5566,-2.6493,-2.5772,-2.6229,-2.6968,-2.775,-2.8944,-2.9733,-2.961,-3.0704,-3.2356,-3.453,-3.5665,-3.6576,-3.7515,-3.7494,-3.6985,-3.5898,-3.4948,-3.3887,-3.2633,-3.1909,-3.1587,-3.1712,-3.2139,-3.239,-3.239,-3.337,-3.4173,-3.468,-3.5232,-3.5805,-3.6405,-3.6405,-3.6405,-3.6405,-3.6531,-3.6581,-3.6581,-3.6681,-3.6732,-3.6707,-3.6843,-3.8303,-4.0522,-4.0977,-4.1882,-4.2879,-4.2879,-4.3277,-4.3882,0.0,-2.3531,-2.5077,-2.6374,-2.769,-2.8817,-2.9508,-2.9862,-3.0354,-3.1051,-3.114,-3.0745,-2.9708,-3.0163,-3.0402,-3.0073,-3.0043,-2.9894,-2.9564,-2.9265,-2.8963,-2.8603,-2.8205,-2.7301,-2.5938,-2.5484,-2.4947,-2.4279,-2.4681,-2.5245,-2.6015,-2.8041,-2.8662,-2.8133,-3.0473,-3.1152,-3.0612,-3.1241,-3.169,-3.2019,-3.2348,-3.3095,-3.4054,-3.4384,-3.4891,-3.5549,-3.5878,-3.5343,-3.4192,-3.2423,-3.0672,-2.9011,-2.7559,-2.6994,-2.664,-2.5536,-2.541,-2.561,-2.539,-2.586,-2.6238,-2.5536,-2.6143,0.0,0.0,-2.4672,-2.4981,-2.4472,-2.4666,-2.5145,-2.5738,-2.6485,-2.6967,-2.6773,-2.7543,-2.874,-3.0429,-3.2303,-3.3671,-3.4211,-3.4576,-3.4559,-3.3952,-3.335,-3.2651,-3.1784,-3.1265,-3.111,-3.1386,-3.1913,-3.2215,-3.2215,-3.3043,-3.3897,-3.468,-3.4956,-3.5554,-3.6405,-3.6405,-3.6405,-3.6358,-3.5715,-3.5763,-3.6358,-3.5667,-3.5427,-3.5475,-3.6121,-3.6681,-3.7253,-3.8533,-3.9738,-4.0795,-4.0795,-4.1528,-4.2544,-2.3272,-2.4433,-2.5815,-2.7149,-2.8617,-2.9844,-3.0629,-3.1822,-3.2599,-3.2652,-3.2772,-3.2225,-3.0543,-3.115,-3.163,-3.148,-3.0881,-3.0672,-3.1061,-3.0133,-2.9502,-2.9232,-2.8646,-2.7627,-2.6187,-2.5563,-2.4977,-2.4413,-2.471,-2.5093,-2.5605,-2.7796,-2.8186,-2.7227,-3.0061,-3.0881,-3.0193,-3.1122,-3.1899,-3.2497,-3.2647,-3.3095,-3.3754,-3.4444,-3.5011,-3.5547,-3.5889,-3.54,-3.4374,-3.3407,-3.2076,-3.0566,-2.8985,-2.8439,-2.8109,-2.6773,-2.6485,-2.6474,-2.5661,-2.6174,-2.6769,-2.6176,-2.6225,-2.6091,0.0,0.0,0.0,-2.3493,-2.3498,-2.3715,-2.415,-2.4422,-2.445,-2.4015,-2.4587,-2.538,-2.6227,-2.8325,-3.0025,-3.0703,-3.1301,-3.1722,-3.1803,-3.1598,-3.1128,-3.0324,-3.0281,-3.0507,-3.106,-3.1712,-3.2064,-3.2064,-3.2717,-3.3545,-3.455,-3.4675,-3.5228,-3.6207,-3.6355,-3.6263,-3.6026,-3.5162,-3.5066,-3.5595,-3.5017,-3.4483,-3.4117,-3.5475,-3.5379,-3.458,-3.6354,-3.7713,-3.8718,-3.8718,-3.9776,-4.1219,-2.2538,-2.3606,-2.4982,-2.6381,-2.8251,-2.995,-3.1212,-3.2094,-3.259,-3.2627,-3.3091,-3.3312,-3.3096,-3.2677,-3.3065,-3.4801,-3.2228,-3.127,-3.3036,-3.0939,-2.9082,-2.7884,-2.8123,-2.7371,-2.5383,-2.5635,-2.546,-2.476,-2.6176,-2.6593,-2.6155,-2.8968,-2.9903,-2.9277,-3.0225,-3.121,-3.2138,-3.169,-3.1899,-3.2557,-3.3155,-3.3784,-3.4474,-3.513,-3.5429,-3.5392,-3.4597,-3.3681,-3.2854,-3.2715,-3.2546,-3.2231,-3.1557,-3.0408,-2.932,-2.9109,-2.8177,-2.7268,-2.762,-2.8795,-2.9504,-2.7866,-2.9168,-2.9983,-2.6622,0.0,-2.6018,-2.4284,0.0,-2.4235,-2.4288,0.0,0.0,-2.3678,-2.4382,-2.4749,-2.3695,-2.4684,-2.6498,-2.918,-2.974,-3.0305,-3.1368,-3.1106,-3.0392,-2.9164,-2.9088,-2.9339,-2.9955,-3.0934,-3.1486,-3.1486,-3.2516,-3.337,-3.3997,-3.4474,-3.4981,-3.5608,-3.6132,-3.5763,-3.4678,-3.5715,-3.4945,-3.2883,-3.521,-3.48,-3.2632,-3.4068,-3.4532,-3.4532,-3.5932,-3.7136,-3.809,-3.809,-3.8869,-3.9929,-2.3375,-2.4312,0.0,-2.6273,-2.7822,-2.9243,-3.0212,-3.2651,-3.4255,-3.3841,-3.5051,-3.5815,-3.5321,-3.5031,-3.5185,-3.6001,-3.4083,-3.2856,-3.2916,-3.1539,-3.0462,-2.9894,-2.9608,-2.865,-2.6988,-2.6635,-2.618,-2.5547,-2.621,-2.6652,-2.6879,-2.8915,-2.9341,-2.8431,-2.9878,-3.0612,-3.0851,-3.1301,-3.2108,-3.3155,-3.3814,-3.4264,-3.4503,-3.4382,-3.4592,-3.4919,-3.4886,-3.4639,-3.4216,-3.381,-3.3589,-3.3316,-3.2755,-3.2,-3.1126,-3.0272,-2.9572,-2.896,-2.8268,-2.8939,-2.9627,-2.8889,-2.9383,-2.9542,-2.7514,-2.6448,-2.5625,-2.464,0.0,0.0,0.0,0.0,0.0,0.0,-2.3346,-2.3255,-2.2728,-2.2799,-2.3859,-2.6539,-2.766,-2.8528,-2.9341,-2.9914,-2.9578,-2.8091,-2.8574,-2.8988,-2.9277,-3.0633,-3.1386,-3.1386,-3.2533,-3.3345,-3.3897,-3.4449,-3.4956,-3.5508,-3.6107,-3.5715,-3.4434,-3.4969,-3.4629,-3.3552,-3.4727,-3.4557,-3.3601,-3.5017,-3.4605,-3.3304,-3.4727,-3.6381,-3.8015,-3.8015,-3.8718,-3.9697,-2.3739,0.0,0.0,-2.6115,-2.7258,-2.855,-3.0041,-3.3006,-3.5058,-3.4872,-3.6405,-3.7364,-3.7067,-3.708,-3.7394,-3.8077,-3.6241,-3.4711,-3.3903,-3.2706,-3.163,-3.0733,-3.0601,-2.9711,-2.798,-2.7627,-2.7273,-2.6907,-2.7124,-2.7443,-2.7873,-2.9319,-2.9375,-2.8411,-3.003,-3.0642,-3.0462,-3.157,-3.2617,-3.3574,-3.4412,-3.4683,-3.4444,-3.3754,-3.3593,-3.38,-3.4558,-3.4787,-3.4651,-3.4443,-3.4394,-3.4321,-3.3885,-3.3282,-3.2528,-3.1361,-3.0734,-3.0141,-2.8884,-2.9222,-2.9812,-2.946,-2.9631,-2.9481,-2.802,-2.6924,-2.6012,-2.5185,-2.4349,0.0,0.0,0.0,0.0,0.0,0.0,-2.2468,-2.2318,-2.2096,-2.2524,-2.4131,-2.604,-2.729,-2.7503,-2.8636,-2.8669,-2.6955,-2.772,-2.8373,-2.8662,-3.0281,-3.1235,-3.1386,-3.2533,-3.3269,-3.3671,-3.4223,-3.4731,-3.5282,-3.5881,-3.5519,-3.4434,-3.4775,-3.4532,-3.3871,-3.4629,-3.4532,-3.392,-3.5259,-3.4459,-3.2381,-3.3403,-3.5008,-3.6748,-3.7097,-3.7914,-3.8881,-2.3025,-2.3608,0.0,-2.5708,-2.6479,-2.8146,-3.1664,-3.2994,-3.4026,-3.5298,-3.6193,-3.7145,-3.8206,-3.8452,-3.9538,-4.2008,-3.8697,-3.6656,-3.7225,-3.4861,-3.2018,-2.8846,-3.028,-2.9981,-2.7394,-2.8398,-2.8916,-2.8916,-2.9756,-2.9864,-2.9289,-3.0748,-3.1063,-3.0434,-3.1152,-3.1809,-3.2437,-3.3155,-3.3455,-3.3604,-3.4951,-3.507,-3.4444,-3.3754,-3.2738,-3.1813,-3.282,-3.2982,-3.2806,-3.3711,-3.4677,-3.5457,-3.5457,-3.4398,-3.3102,-3.2646,-3.1505,-3.0299,-2.9847,-3.0443,-3.085,-2.9706,-3.0703,-3.1225,-2.8371,-2.8336,-2.8248,-2.6026,-2.5536,-2.5209,-2.418,0.0,0.0,0.0,0.0,0.0,0.0,-2.2719,-2.2869,-2.2451,-2.5295,-2.7019,-2.6319,-2.7486,-2.7525,-2.5769,-2.6248,-2.7027,-2.8072,-2.9729,-3.0859,-3.1361,-3.2533,-3.3136,-3.3136,-3.3646,-3.4198,-3.4705,-3.5257,-3.5127,-3.4434,-3.5763,-3.4896,-3.2532,-3.521,-3.4848,-3.2482,-3.3871,-3.3601,-3.228,-3.2331,-3.2769,-3.3526,-3.4796,-3.5914,-3.6904,0.0,0.0,-2.498,-2.4677,-2.5543,-2.7445,-3.1102,-3.2697,-3.4604,-3.774,-3.9515,-4.1348,-4.3418,-4.4134,-4.445,-4.4308,-4.1931,-3.9745,-3.8153,-3.6028,-3.4113,-3.2557,-3.2644,-3.204,-3.0587,-3.0483,-3.0472,-3.0472,-3.035,-3.0482,-3.0777,-3.1275,-3.1391,-3.1152,-3.1391,-3.163,-3.1899,-3.3036,-3.3484,-3.3574,-3.4472,-3.4951,-3.513,-3.4921,-3.3882,-3.2782,-3.4171,-3.4201,-3.3671,-3.4643,-3.5198,-3.5519,-3.5519,-3.5145,-3.4545,-3.3751,-3.2737,-3.1694,-3.0917,-3.0507,-3.0201,-2.999,-3.0102,-2.9964,-2.855,-2.8173,-2.765,-2.5952,-2.5586,-2.5259,-2.4205,0.0,0.0,0.0,0.0,0.0,0.0,-2.2443,-2.2824,-2.3557,-2.5067,-2.5739,-2.5032,-2.5644,-2.57,-2.4627,-2.577,-2.6826,-2.7519,-2.9151,-3.0482,-3.1361,-3.2114,-3.2692,-3.3111,-3.3621,-3.4173,-3.4726,-3.5232,-3.5102,-3.4434,-3.5763,-3.5403,-3.3773,-3.5595,-3.5858,-3.5041,-3.5523,-3.4338,-3.228,-3.228,-3.1516,-3.0648,-3.3019,-3.489,-3.6449,-2.5725,-2.6153,-2.6194,-2.5088,-2.6263,-2.8326,-3.1158,-3.3687,-3.6345,-3.9417,-4.1781,-4.4083,-4.6406,-4.6954,-4.6855,-4.6077,-4.4407,-4.2231,-3.929,-3.7943,-3.6417,-3.4593,-3.4292,-3.3594,-3.2326,-3.2121,-3.1733,-3.1161,-3.0818,-3.1004,-3.1692,-3.1279,0.0,0.0,-3.2079,-3.1959,-3.163,-3.3455,-3.3933,-3.3574,-3.4472,-3.51,-3.5519,-3.5519,-3.4409,-3.3061,-3.423,-3.4138,-3.3705,-3.5067,-3.5519,-3.5519,-3.5519,-3.5519,-3.5326,-3.4279,-3.3567,-3.2806,-3.1536,-3.0771,-3.0215,-2.9848,-2.9735,-2.9433,-2.8577,-2.8333,-2.7934,-2.6737,-2.6339,-2.5988,-2.5285,0.0,0.0,0.0,0.0,0.0,0.0,-2.2569,-2.29,-2.3758,-2.4727,-2.5067,-2.4363,-2.4807,-2.4741,-2.3764,-2.5059,-2.6113,-2.6666,-2.8473,-2.998,-3.1085,-3.1838,-3.2491,-3.3111,-3.342,-3.3972,-3.468,-3.5031,-3.5164,-3.5114,-3.6026,-3.5906,-3.5162,-3.6001,-3.6405,-3.6405,-3.6405,-3.48,-3.228,-3.228,-3.0893,-2.9159,-3.1336,-3.368,-3.592,-2.7355,-2.7853,-2.7962,-2.6909,-2.8605,-3.0592,-3.2019,-3.5794,-3.896,-4.0397,-4.3039,-4.548,-4.7336,-4.7095,-4.6956,-4.7366,-4.6202,-4.4077,-4.0816,-4.0516,-3.8781,-3.4923,-3.528,-3.4681,-3.2766,-3.3275,-3.2756,-3.1211,-3.1248,-3.1507,0.0,0.0,0.0,0.0,-3.3245,-3.2796,-3.172,-3.4382,-3.4771,-3.3694,-3.4981,-3.5519,-3.5549,-3.5454,-3.4274,-3.2743,-3.3111,-3.2948,-3.2876,-3.4839,-3.5519,-3.5519,-3.5519,-3.5519,-3.5326,-3.4346,-3.4013,-3.3602,-3.1792,-3.1241,-3.0839,-2.9302,-2.9534,-2.9793,-2.8431,-2.8785,-2.9116,-2.8279,-2.772,-2.7344,-2.7304,-2.5963,0.0,0.0,0.0,0.0,0.0,0.0,-2.312,-2.3145,-2.4305,-2.4889,-2.4303,-2.4754,-2.4536,-2.3206,-2.4148,-2.5034,-2.5561,-2.7695,-2.9364,-3.0532,-3.1612,-3.2441,-3.3061,-3.3111,-3.3621,-3.468,-3.468,-3.5303,-3.6405,-3.6405,-3.6405,-3.6405,-3.6405,-3.6405,-3.6405,-3.6405,-3.48,-3.2381,-3.2331,-3.0893,-2.9031,-3.0034,-3.2405,-3.5337,-2.8196,-2.8823,-2.9632,-2.9931,-3.091,-3.1951,-3.2811,-3.6473,-4.0157,-4.294,-4.6082,-4.8802,-5.0767,-5.0816,-5.02,-4.891,-4.7997,-4.6322,-4.3479,-4.2402,-4.0793,-3.8242,-3.7375,-3.6477,-3.5489,-3.4651,-3.3704,-3.2598,-3.2108,-3.1706,-3.1355,0.0,0.0,0.0,0.0,-3.3484,-3.2378,-3.4592,-3.531,-3.5011,-3.537,-3.5789,-3.6111,-3.4882,-3.4398,-3.4438,-3.4773,-3.3926,-3.2876,-3.4839,-3.5519,-3.5519,-3.5519,-3.5519,-3.5424,-3.5166,-3.4576,-3.3739,-3.2558,-3.1756,-3.0944,-2.9847,-2.9378,-2.9137,-2.8787,-2.8848,-2.8833,-2.8234,-2.8323,-2.8122,-2.6927,-2.6348,-2.5795,0.0,0.0,0.0,0.0,0.0,-2.3271,-2.3728,-2.3685,-2.3577,-2.3424,-2.3552,-2.3487,-2.312,-2.4148,-2.5034,-2.5561,-2.7318,-2.8825,-2.9955,-3.1035,-3.1863,-3.2441,-3.2867,-3.3621,-3.468,-3.468,-3.5303,-3.6405,-3.6405,-3.6405,-3.6405,-3.6405,-3.6405,-3.6405,-3.6405,-3.5403,-3.3773,-3.2705,-3.0893,-2.9109,-3.0681,-3.2736,-3.4955,-3.0645,-3.1763,-3.2872,-3.3062,-3.5066,-3.6393,-3.5565,-3.7723,-4.0569,-4.3898,-4.6711,-4.8925,-5.0331,-5.099,-5.078,-4.9449,-4.87,-4.7279,-4.4885,-4.3778,-4.2462,-4.0786,-3.8871,-3.7554,-3.6896,-3.5342,-3.4029,-3.3115,-3.1813,-3.1278,-3.1382,0.0,0.0,0.0,0.0,-3.353,-3.3036,-3.4472,-3.522,-3.5519,-3.5519,-3.5729,0.0,-3.5019,-3.4612,-3.4669,-3.5281,-3.4509,-3.3463,-3.5001,-3.5519,-3.5519,-3.5519,-3.5519,-3.5519,-3.5519,-3.51,-3.4346,-3.2947,-3.22,-3.1499,-3.0139,-2.9553,-2.9302,-2.9302,-2.9063,-2.8888,-2.885,-2.8699,-2.8373,-2.767,-2.6977,-2.6122,0.0,0.0,0.0,0.0,0.0,-2.3948,-2.433,-2.4048,-2.3847,-2.3847,-2.3396,-2.3221,-2.3471,-2.4299,-2.5034,-2.5561,-2.7193,-2.8499,-2.9377,-3.0934,-3.1888,-3.2215,-3.3269,-3.4098,-3.468,-3.4931,-3.5529,-3.6405,-3.6405,-3.6405,-3.6405,-3.6405,-3.6405,-3.6405,-3.6405,-3.5742,-3.4594,-3.2982,-3.1037,-2.9388,-3.0782,-3.2287,-3.3759,-3.3514,-3.519,-3.6357,-3.5639,-3.923,-4.1572,-3.9469,-4.0038,-4.1743,-4.4586,-4.6711,-4.8117,-4.8626,-4.9613,-4.9942,-4.9239,-4.8626,-4.7459,-4.5544,-4.4796,-4.3868,-4.259,-4.0038,-3.8302,-3.7554,-3.5609,-3.4177,-3.3231,-3.1213,-3.0754,0.0,0.0,0.0,0.0,0.0,0.0,-3.3784,-3.4294,-3.4891,-3.5519,-3.5519,-3.5519,-3.5519,-3.5519,-3.4968,-3.4279,-3.5034,-3.4739,-3.4143,-3.5166,-3.5519,-3.5519,-3.5519,-3.5519,-3.5519,-3.5519,-3.5519,-3.51,-3.329,-3.27,-3.2191,-3.0419,-2.9895,-2.9804,-2.9804,-2.9402,-2.9176,-2.9679,-2.9001,-2.8448,-2.8813,-2.7645,-2.6273,0.0,0.0,-2.4901,-2.4901,-2.4825,0.0,0.0,-2.4825,0.0,-2.4876,-2.3948,-2.3521,-2.4079,-2.4607,-2.5134,-2.5561,-2.7193,-2.8323,-2.8762,-3.0959,-3.2164,-3.2315,-3.3847,-3.4726,-3.4951,-3.5307,-3.583,-3.6405,-3.6405,-3.6405,-3.6405,-3.6405,-3.6405,-3.6405,-3.6405,-3.5865,-3.4923,-3.3321,-3.1505,-2.9948,-3.0624,-3.1469,-3.2309,-3.3604,-3.5519,-3.6866,-3.5699,-3.8871,-4.1953,-4.309,-4.5693,-4.7758,-4.8371,-5.0122,-5.1169,-5.075,-5.0375,-4.9717,-4.8566,-4.8356,-4.7668,-4.6232,-4.5514,-4.4526,-4.317,-4.1175,-3.9469,-3.8242,-3.6327,-3.4857,-3.3835,-3.215,-3.142,-3.164,0.0,0.0,0.0,0.0,0.0,-3.513,-3.4651,-3.4891,-3.5519,-3.5519,-3.5519,-3.5519,-3.5519,-3.5392,-3.5133,-3.4509,-3.4143,-3.4143,-3.5166,-3.5519,-3.5519,-3.5519,-3.5519,-3.5519,-3.5519,-3.5519,-3.5231,-3.4075,-3.3192,-3.2343,-3.1204,-3.0381,-2.9804,-2.9804,-2.9704,-2.9679,-2.9779,-2.9628,-2.9377,-2.8963,-2.7946,-2.6952,-2.6323,-2.5762,-2.546,-2.546,-2.5084,-2.4951,0.0,-2.5084,-2.4951,-2.541,-2.4883,-2.455,-2.465,-2.5159,-2.5511,-2.5586,-2.7193,-2.8147,-2.8247,-3.0382,-3.1989,-3.2918,-3.3671,-3.4726,-3.6128,-3.5705,-3.583,-3.6405,-3.6405,-3.6405,-3.6405,-3.6405,-3.6405,-3.6405,-3.6405,-3.5668,-3.4499,-3.4147,-3.2889,-3.1217,-3.1007,-3.1014,-3.1341,-3.7075,-3.7823,-3.8571,-3.899,-4.1773,-4.4496,-4.6112,-4.8895,-5.0182,-4.8476,-4.8775,-4.9045,-4.8716,-4.9314,-4.9344,-4.8356,-4.8297,-4.7728,-4.6369,-4.5693,-4.4855,-4.3858,-4.1624,-3.9948,-3.8931,-3.6327,-3.4937,-3.4773,-3.2487,-3.1744,-3.2427,-3.2263,0.0,-3.3215,0.0,-3.5519,-3.5489,-3.516,-3.519,-3.5519,-3.5519,-3.5519,-3.5519,-3.5519,-3.5166,-3.4643,-3.4177,-3.3705,-3.3429,-3.4409,-3.5067,-3.5519,-3.5519,-3.5519,-3.5519,-3.5519,-3.5519,-3.5294,-3.4279,-3.3671,-3.2982,-3.1573,-3.0857,-3.0381,-2.9895,-2.9804,-2.9804,-2.9804,-2.9804,-2.9628,-2.8988,-2.8021,-2.7329,-2.7354,-2.6841,-2.6465,-2.6465,-2.6264,-2.6088,0.0,0.0,0.0,-2.6021,-2.5536,-2.5234,-2.5234,-2.546,-2.5737,-2.6072,-2.7369,-2.8097,-2.8097,-3.0507,-3.2089,-3.2616,-3.4048,-3.5152,-3.5931,-3.5956,-3.6107,-3.6405,-3.6405,-3.6405,-3.6405,-3.6405,-3.6405,-3.6455,-3.6985,-3.6284,-3.4909,-3.5672,-3.4832,-3.3041,-3.2339,-3.2035,-3.2035,-4.0516,-4.0516,-4.0935,-4.256,-4.5095,-4.7249,-4.8147,-5.0391,-5.1109,-4.8656,-4.7638,-4.7057,-4.695,-4.8207,-4.885,-4.8147,-4.8087,-4.7578,-4.6411,-4.5693,-4.5005,-4.4347,-4.1923,-4.0247,-3.9439,-3.6447,-3.51,-3.5519,-3.2879,-3.2202,-3.3359,-3.2625,0.0,-3.3747,-3.4961,-3.5519,-3.5519,-3.5294,-3.5326,-3.5457,-3.5294,-3.5166,-3.5166,-3.5166,-3.4576,-3.3671,-3.3498,-3.3052,-3.27,-3.3463,-3.4346,-3.5198,-3.5424,-3.5519,-3.5519,-3.5519,-3.5519,-3.5326,-3.4543,-3.4177,-3.3602,-3.1938,-3.1352,-3.097,-3.0011,-2.9804,-2.9804,-2.9804,-2.9804,-2.9628,-2.8988,-2.8222,-2.7695,-2.7896,-2.767,-2.7369,-2.7178,-2.7253,-2.7102,0.0,0.0,0.0,-2.6273,-2.5963,-2.5737,-2.5611,-2.5711,-2.6021,-2.6474,-2.7494,-2.8097,-2.8097,-3.0783,-3.234,-3.2566,-3.4505,-3.5608,-3.5859,-3.6207,-3.6405,-3.6405,-3.6405,-3.6405,-3.6405,-3.6405,-3.648,-3.6656,-3.7588,-3.7122,-3.5907,-3.7063,-3.6484,-3.4916,-3.3951,-3.3564,-3.3417,-4.1265,-4.2671,-4.3898,-4.4107,-4.683,-4.888,-4.8356,-5.0002,-5.1409,-5.1708,-5.0661,-4.9643,-4.909,-4.8626,-4.8117,-4.7459,-4.7399,-4.71,-4.6339,-4.5693,-4.5005,-4.4347,-4.2372,-4.0696,-3.9439,-3.7375,-3.6028,-3.5519,-3.378,-3.3259,-3.3926,-3.3824,-3.4355,-3.5302,-3.5457,-3.5519,-3.5424,-3.4543,-3.4643,-3.5424,-3.4509,-3.4143,-3.4143,-3.4143,-3.3567,-3.2629,-3.1792,-3.1947,-3.2593,-3.27,-3.3359,-3.4279,-3.5198,-3.5519,-3.5519,-3.5519,-3.5519,-3.5457,-3.5392,-3.4677,-3.3739,-3.2735,-3.1829,-3.097,-3.0011,-2.9804,-2.9804,-2.9804,-2.9804,-2.9628,-2.8988,-2.8813,-2.8473,-2.7519,-2.7745,-2.767,-2.67,-2.7002,-2.7102,-2.6549,0.0,0.0,-2.5711,-2.6147,-2.6197,-2.5636,-2.6122,-2.6424,-2.6499,-2.7494,-2.8097,-2.8097,-3.0783,-3.2717,-3.3721,-3.4906,-3.6009,-3.7036,-3.6631,-3.6405,-3.6405,-3.6405,-3.6405,-3.6405,-3.6405,-3.6681,-3.7161,-3.7764,-3.7915,-3.7717,-3.7573,-3.7091,-3.6373,-3.5436,-3.5068,-3.5068,-4.4347,-4.4646,-4.5394,-4.701,-4.7399,-4.8057,-4.9793,-5.0391,-5.0674,-5.0943,-4.9883,-4.8955,-4.8716,-4.8087,-4.7578,-4.7339,-4.7309,-4.686,-4.5783,-4.5454,-4.4825,-4.3738,-4.2222,-4.0935,-4.0038,-3.7704,-3.6357,-3.6088,-3.4626,-3.4257,-3.4905,-3.4905,-3.51,-3.5519,-3.5519,-3.5519,-3.5424,-3.4442,-3.4245,-3.4509,-3.3567,-3.3157,-3.3157,-3.3157,-3.2558,-3.1719,-3.1315,-3.1082,-3.1033,-3.1573,-3.2735,-3.4177,-3.5166,-3.5519,-3.5519,-3.5519,-3.5519,-3.5519,-3.5519,-3.5198,-3.4509,-3.301,-3.2307,-3.1646,-3.0139,-2.9804,-2.9804,-2.9804,-2.9804,-2.9729,-2.9478,-2.9113,-2.8863,-2.88,-2.8674,-2.8448,-2.7996,-2.7846,-2.757,-2.7052,0.0,-2.6021,-2.6147,-2.6047,-2.6113,-2.6565,-2.6549,-2.6499,-2.6499,-2.7494,-2.8097,-2.8097,-3.0783,-3.2591,-3.3395,-3.4781,-3.5931,-3.6732,-3.6857,-3.6908,-3.6908,-3.7186,-3.7161,-3.6835,-3.6556,-3.6531,-3.6807,-3.7638,-3.8015,-3.8066,-3.858,-3.8669,-3.8341,-3.7062,-3.6595,-3.6487,-4.707,-4.68,-4.713,-4.9194,-4.8566,-4.8416,-5.0331,-5.0242,-4.9883,-4.9703,-4.8686,-4.8057,-4.8267,-4.7698,-4.7309,-4.7309,-4.7309,-4.6741,-4.5394,-4.5304,-4.4706,-4.3349,-4.2073,-4.1085,-4.0397,-3.8003,-3.6656,-3.6477,-3.534,-3.504,-3.5519,-3.5519,-3.5519,-3.5519,-3.5519,-3.5519,-3.5424,-3.4143,-3.3739,-3.3876,-3.2664,-3.2164,-3.2164,-3.2164,-3.1609,-3.0809,-3.0809,-3.0343,-2.9934,-3.0857,-3.2055,-3.3394,-3.4643,-3.5231,-3.5519,-3.5519,-3.5519,-3.5519,-3.5519,-3.5519,-3.5034,-3.308,-3.2593,-3.2119,-3.0216,-2.9804,-2.9804,-2.9804,-2.9804,-2.9804,-2.9804,-2.9453,-2.9252,-2.9503,-2.9327,-2.8963,-2.8524,-2.8247,-2.7846,-2.7153,-2.6339,-2.5971,-2.6223,-2.6021,-2.6189,-2.7002,-2.6876,-2.6725,-2.6725,-2.7595,-2.8247,-2.8599,-3.111,-3.2893,-3.3796,-3.5278,-3.6307,-3.6908,-3.7236,-3.7437,-3.7437,-3.7663,-3.7563,-3.7161,-3.6656,-3.6505,-3.6732,-3.7613,-3.8115,-3.8366,-3.932,-3.9697,-3.9569,-3.853,-3.8137,-3.8031,-4.888,-4.9269,-4.9434,-5.0076,-5.0704,-5.075,-4.9539,-4.9329,-4.909,-4.8386,-4.7728,-4.7549,-4.8207,-4.7698,-4.7309,-4.7309,-4.7309,-4.6741,-4.5394,-4.5304,-4.4706,-4.3349,-4.2073,-4.1085,-4.0397,-3.8422,-3.7105,-3.6477,-3.5818,-3.5489,-3.5519,-3.5519,-3.5519,-3.5519,-3.5519,-3.5519,-3.5359,-3.3429,-3.3122,-3.3842,-3.1947,-3.1204,-3.1204,-3.1204,-3.062,-2.9818,-2.9818,-2.9804,-2.9934,-3.0857,-3.1204,-3.1573,-3.3429,-3.4706,-3.5519,-3.5519,-3.5519,-3.5519,-3.5519,-3.5519,-3.5034,-3.308,-3.2593,-3.2119,-3.0216,-2.9804,-2.9804,-2.9804,-2.9804,-2.9804,-2.9804,-2.9779,-2.9603,-2.8988,-2.9402,-2.9202,-2.7544,-2.777,-2.7695,-2.6625,-2.6499,-2.6273,-2.5661,-2.6147,-2.6474,-2.6499,-2.7002,-2.7268,-2.7268,-2.7795,-2.8624,-2.9729,-3.1913,-3.3847,-3.5458,-3.6609,-3.7437,-3.799,-3.799,-3.799,-3.799,-3.7437,-3.7186,-3.7161,-3.6656,-3.6732,-3.7211,-3.7789,-3.8341,-3.8919,-3.9471,-3.9697,-3.9697,-3.9697,-3.9697,-3.9697,-4.9733,-4.9912,-5.0002,-5.0166,-4.9673,-4.9224,-4.9299,-4.894,-4.8506,-4.8327,-4.8087,-4.7878,-4.7638,-4.7429,-4.7309,-4.7309,-4.7309,-4.692,-4.6052,-4.5544,-4.4706,-4.3349,-4.2073,-4.1085,-4.0397,-3.8422,-3.7315,-3.7105,-3.6028,-3.5519,-3.5519,-3.5519,-3.5519,-3.5519,-3.5519,-3.5519,-3.5359,-3.3429,-3.277,-3.2876,-3.0996,-3.0254,-3.0254,-3.0254,-3.0062,-2.9804,-2.9804,-2.9804,-2.9856,-3.0139,-3.0658,-3.1278,-3.1901,-3.3185,-3.461,-3.5294,-3.5519,-3.5519,-3.5519,-3.5519,-3.5034,-3.308,-3.2593,-3.2119,-3.0216,-2.9804,-2.9804,-2.9804,-2.9804,-2.9804,-2.9804,-2.9804,-2.9729,-2.9553,-2.9679,-2.9478,-2.8524,-2.8222,-2.7846,-2.7153,-2.6725,-2.6424,-2.6223,-2.6725,-2.7052,-2.7052,-2.7519,-2.7846,-2.7846,-2.875,-2.9603,-3.0331,-3.2867,-3.4625,-3.5483,-3.701,-3.7839,-3.8015,-3.8417,-3.8592,-3.8567,-3.8015,-3.7538,-3.7161,-3.6656,-3.6732,-3.7236,-3.7789,-3.8341,-3.8919,-3.9471,-3.9697,-3.9697,-3.9697,-3.9697,-3.9697,-5.0106,-5.0196,-5.0046,-4.9583,-4.9045,-4.8626,-4.8536,-4.8386,-4.8297,-4.8297,-4.8057,-4.7848,-4.7698,-4.7459,-4.7309,-4.7309,-4.7309,-4.692,-4.5992,-4.5544,-4.4706,-4.3349,-4.2073,-4.1175,-4.0786,-3.8571,-3.7404,-3.7404,-3.6118,-3.5519,-3.5519,-3.5519,-3.5519,-3.5519,-3.5519,-3.5519,-3.5359,-3.3429,-3.2593,-3.2415,-3.057,-2.9804,-2.9804,-2.9804,-2.9804,-2.9804,-2.9804,-2.9804,-2.9804,-2.9804,-3.0177,-3.0733,-3.1082,-3.1983,-3.315,-3.4109,-3.4673,-3.4938,-3.4938,-3.4938,-3.4543,-3.301,-3.2307,-3.1683,-3.0139,-2.9804,-2.9804,-2.9804,-2.9804,-2.9804,-2.9804,-2.9804,-2.9804,-2.9804,-2.9804,-2.9528,-2.8725,-2.8323,-2.7896,-2.7344,-2.7002,-2.6876,-2.7102,-2.757,-2.7896,-2.7896,-2.88,-2.9252,-2.9051,-2.9729,-3.0457,-3.1185,-3.3495,-3.5232,-3.6411,-3.7487,-3.8216,-3.8642,-3.9019,-3.917,-3.917,-3.8592,-3.814,-3.7838,-3.7211,-3.7186,-3.7538,-3.809,-3.8542,-3.8919,-3.9471,-3.9697,-3.9697,-3.9697,-3.9697,-3.9697,-5.0106,-5.0076,-4.9657,-4.8506,-4.879,-4.876,-4.7489,-4.7818,-4.8207,-4.8207,-4.7698,-4.7549,-4.8147,-4.7668,-4.7309,-4.7309,-4.7309,-4.6741,-4.5454,-4.5334,-4.4676,-4.329,-4.2073,-4.1354,-4.1235,-3.8781,-3.7434,-3.7345,-3.6081,-3.5484,-3.5519,-3.5424,-3.5424,-3.5519,-3.5519,-3.5457,-3.5294,-3.3394,-3.2558,-3.2343,-3.0533,-2.9804,-2.9804,-2.9804,-2.9804,-2.9804,-2.9804,-2.9804,-2.9804,-2.9804,-2.9804,-2.9934,-3.0846,-3.1093,-3.1278,-3.2307,-3.3192,-3.391,-3.391,-3.391,-3.3671,-3.2735,-3.1792,-3.0857,-3.0011,-2.9804,-2.9804,-2.9804,-2.9804,-2.9804,-2.9804,-2.9804,-2.9779,-2.9729,-2.9729,-2.9327,-2.8197,-2.8072,-2.7896,-2.7344,-2.7379,-2.7595,-2.8122,-2.8637,-2.8963,-2.9013,-3.0457,-3.116,-3.0758,-3.0809,-3.1311,-3.2365,-3.4022,-3.5906,-3.804,-3.8115,-3.8642,-3.9697,-3.9697,-3.9672,-3.9622,-3.9145,-3.8894,-3.8844,-3.8241,-3.804,-3.8115,-3.8642,-3.8944,-3.902,-3.9496,-3.9697,-3.9697,-3.9697,-3.9697,-3.9697,-4.9404,-4.9105,-4.8656,-4.8327,-4.7997,-4.7668,-4.7369,-4.7429,-4.7549,-4.7549,-4.7399,-4.7369,-4.7519,-4.7399,-4.7309,-4.7309,-4.7309,-4.695,-4.6142,-4.5574,-4.4496,-4.271,-4.1841,-4.0905,-3.9918,-3.8751,-3.7674,-3.6716,-3.5624,-3.5242,-3.5457,-3.471,-3.4773,-3.5519,-3.5519,-3.5067,-3.4279,-3.3115,-3.2164,-3.1426,-3.0292,-2.9804,-2.9804,-2.9804,-2.9804,-2.9804,-2.9804,-2.9804,-2.9804,-2.9804,-2.9804,-2.9818,-3.0062,-3.0139,-3.0457,-3.2119,-3.2735,-3.2912,-3.2912,-3.2912,-3.27,-3.1792,-3.0846,-3.0062,-2.9856,-2.9804,-2.9804,-2.9804,-2.9804,-2.9804,-2.9804,-2.9804,-2.9654,-2.9202,-2.9088,-2.875,-2.7645,-2.7846,-2.7896,-2.7344,-2.8021,-2.8562,-2.8687,-2.9252,-2.9779,-3.0181,-3.0583,-3.111,-3.1788,-3.2667,-3.342,-3.4098,-3.573,-3.7262,-3.8642,-3.9094,-3.9421,-3.9697,-3.9697,-3.9471,-3.912,-3.8969,-3.8617,-3.8216,-3.8065,-3.8266,-3.8668,-3.8869,-3.912,-3.9521,-3.9647,-3.9697,-3.9697,-3.9697,-3.9697,-3.9697,-4.8805,-4.8536,-4.8177,-4.7908,-4.7549,-4.7309,-4.7309,-4.7309,-4.7429,-4.7728,-4.7489,-4.7429,-4.7728,-4.7489,-4.7309,-4.7309,-4.7309,-4.689,-4.5933,-4.5514,-4.4556,-4.288,-4.1893,-4.1055,-4.0337,-3.905,-3.7913,-3.6896,-3.5623,-3.5096,-3.528,-3.439,-3.4279,-3.4839,-3.5294,-3.4938,-3.3945,-3.2982,-3.2055,-3.1119,-3.0177,-2.9804,-2.9804,-2.9804,-2.9804,-2.9804,-2.9804,-2.9804,-2.9804,-2.9804,-2.9804,-2.9804,-2.9804,-2.9804,-3.0011,-3.1033,-3.1609,-3.1947,-3.1947,-3.1947,-3.1756,-3.0809,-3.0177,-2.9854,-3.0105,-3.0181,-3.0231,-3.0482,-3.0532,-3.0457,-3.0206,-3.0181,-2.9905,-2.9038,-2.9113,-2.8925,-2.7821,-2.8122,-2.8473,-2.8423,-2.895,-2.9528,-3.0005,-3.0809,-3.121,-3.0984,-3.2139,-3.2511,-3.1687,-3.3378,-3.4632,-3.5056,-3.6458,-3.7713,-3.8919,-3.9421,-3.9697,-3.9697,-3.9697,-3.9546,-3.9245,-3.9245,-3.9069,-3.8768,-3.8768,-3.8944,-3.9245,-3.9245,-3.9421,-3.9645,-3.8973,-3.8687,-3.8687,-3.8687,-3.8267,-3.7873,-4.8237,-4.8147,-4.7967,-4.7399,-4.7309,-4.7309,-4.7309,-4.7309,-4.7489,-4.8057,-4.7638,-4.7519,-4.8087,-4.7638,-4.7309,-4.7309,-4.7309,-4.6741,-4.5394,-4.5304,-4.4676,-4.324,-4.2013,-4.1324,-4.1235,-3.9469,-3.8212,-3.7554,-3.5892,-3.5088,-3.5107,-3.4133,-3.3848,-3.4157,-3.4769,-3.4576,-3.3739,-3.277,-3.1865,-3.0932,-3.0101,-2.9804,-2.9804,-2.9804,-2.9804,-2.9804,-2.9804,-2.9804,-2.9804,-2.9804,-2.9804,-2.9804,-2.9804,-2.9804,-2.9804,-2.9804,-3.0343,-3.097,-3.097,-3.097,-3.0809,-3.0011,-2.9854,-3.003,-3.0507,-3.0683,-3.0859,-3.1311,-3.1386,-3.126,-3.0809,-3.0658,-3.0281,-2.9189,-2.9402,-2.9302,-2.8247,-2.8649,-2.9277,-2.9854,-3.0131,-3.0683,-3.1662,-3.2641,-3.2867,-3.2089,-3.3826,-3.4001,-3.1705,-3.3501,-3.4817,-3.5324,-3.6476,-3.7717,-3.8994,-3.9471,-3.9697,-3.9697,-3.9697,-3.9697,-3.9697,-3.9697,-3.9697,-3.9697,-3.9697,-3.9569,-3.9362,-3.9362,-3.9258,-3.8921,-3.7636,-3.7186,-3.7186,-3.7186,-3.6379,-3.5672,-4.7489,-4.7459,-4.7429,-4.7309,-4.7309,-4.7309,-4.7309,-4.7309,-4.7339,-4.7429,-4.7369,-4.7339,-4.7459,-4.7369,-4.7309,-4.7309,-4.7309,-4.6741,-4.5394,-4.5304,-4.4466,-4.262,-4.1841,-4.1115,-4.0576,-3.9709,-3.8931,-3.8242,-3.6274,-3.5479,-3.5698,-3.3385,-3.3184,-3.4714,-3.355,-3.2947,-3.2735,-3.1829,-3.0884,-3.0011,-2.9856,-2.9804,-2.9804,-2.9804,-2.9804,-2.9804,-2.9804,-2.9804,-2.9804,-2.9804,-2.9804,-2.9804,-2.9804,-2.9804,-2.9804,-2.9804,-2.9895,-3.0011,-3.0011,-3.0011,-2.9972,-2.9818,-3.0156,-3.0507,-3.0608,-3.0959,-3.1286,-3.1361,-3.1386,-3.1361,-3.1286,-3.0909,-3.0407,-2.9754,-2.9327,-2.8825,-2.8197,-2.9001,-2.9854,-3.0432,-3.1712,-3.2817,-3.3445,-3.3671,-3.4098,-3.4806,-3.3381,-3.3005,-3.4286,-3.3292,-3.3214,-3.4509,-3.5996,-3.767,-3.9572,-3.9647,-3.9697,-3.9697,-3.9697,-3.9697,-3.9697,-3.9697,-3.9697,-3.9697,-3.9697,-3.8973,-3.7849,-3.7849,-3.7103,-3.5945,-3.5727,-3.5617,-3.5617,-3.5617,-3.5508,-3.5343,-4.7309,-4.7309,-4.7309,-4.7309,-4.7309,-4.7309,-4.7309,-4.7309,-4.7309,-4.7309,-4.7309,-4.7309,-4.7309,-4.7309,-4.7309,-4.7309,-4.7309,-4.6741,-4.5394,-4.5304,-4.4586,-4.297,-4.2252,-4.1482,-4.0427,-3.9738,-3.926,-3.8931,-3.7139,-3.6052,-3.5592,-3.4242,-3.3796,-3.4084,-3.3543,-3.3052,-3.2522,-3.1609,-3.0658,-2.9804,-2.9804,-2.998,-3.0231,-3.0231,-3.0231,-3.0231,-3.0231,-3.0055,-2.9804,-2.9804,-2.9804,-2.9804,-2.9804,-2.9804,-2.9804,-2.9804,-2.9804,-2.9804,-2.9804,-2.9804,-2.9854,-3.0156,-3.0432,-3.0758,-3.1336,-3.1913,-3.239,-3.2692,-3.2968,-3.2993,-3.2416,-3.1838,-3.1286,-3.0733,-2.9955,-2.9503,-2.9829,-3.0331,-3.0984,-3.1838,-3.2867,-3.3746,-3.4299,-3.458,-3.4831,-3.5031,-3.4121,-3.3545,-3.3503,-3.2685,-3.2179,-3.2121,-3.5389,-3.7608,-3.853,-3.931,-3.9697,-3.9697,-3.9697,-3.9697,-3.9697,-3.9697,-3.9697,-3.9645,-3.8844,-3.8137,-3.7453,-3.6649,-3.589,-3.5233,-3.4403,-3.4125,-3.4125,-3.4125,-3.3586,-3.3155,-4.7309,-4.7309,-4.7309,-4.7309,-4.7309,-4.7309,-4.7309,-4.7309,-4.7309,-4.7309,-4.7309,-4.7309,-4.7309,-4.7309,-4.7309,-4.7309,-4.7309,-4.6741,-4.5394,-4.5304,-4.4706,-4.3349,-4.2551,-4.1632,-4.0427,-3.9738,-3.9373,-3.9373,-3.7901,-3.6759,-3.5945,-3.5192,-3.4561,-3.3991,-3.3768,-3.3262,-3.2522,-3.1609,-3.0736,-2.998,-2.998,-3.0306,-3.0809,-3.0809,-3.0809,-3.0783,-3.0658,-3.0357,-2.9955,-2.9829,-2.9804,-2.9804,-2.9955,-2.998,-3.0005,-3.0131,-3.0156,-3.0131,-3.0005,-3.008,-3.0256,-3.0683,-3.0884,-3.1235,-3.219,-3.2842,-3.342,-3.3972,-3.4424,-3.4474,-3.3621,-3.2993,-3.2416,-3.1863,-3.1085,-3.0809,-3.1486,-3.1813,-3.234,-3.3345,-3.3947,-3.45,-3.5052,-3.5479,-3.5554,-3.5127,-3.5042,-3.4303,-3.2587,-3.2362,-3.1666,-3.0409,-3.4351,-3.6811,-3.7506,-3.8635,-3.9362,-3.9697,-3.9362,-3.9181,-3.9181,-3.8816,-3.8712,-3.8582,-3.7477,-3.6811,-3.6356,-3.5288,-3.457,-3.4146,-3.3021,-3.2794,-3.3077,-3.2701,-3.2092,-3.1672,-4.7309,-4.7309,-4.7309,-4.7309,-4.7309,-4.7309,-4.7309,-4.7309,-4.7309,-4.7309,-4.7309,-4.7309,-4.7309,-4.7309,-4.7309,-4.7309,-4.7309,-4.6741,-4.5394,-4.5304,-4.4706,-4.3349,-4.2132,-4.1115,-4.0427,-3.9738,-3.9373,-3.9373,-3.8302,-3.7681,-3.7577,-3.5442,-3.4918,-3.5647,-3.3612,-3.2664,-3.2522,-3.1609,-3.0931,-3.0557,-3.0557,-3.0859,-3.1336,-3.1336,-3.1336,-3.126,-3.0783,-3.0583,-3.0482,-2.9955,-2.9804,-2.988,-3.0382,-3.0557,-3.0658,-3.1135,-3.126,-3.116,-3.0683,-3.0909,-3.1286,-3.1311,-3.1712,-3.2265,-3.2867,-3.3445,-3.3997,-3.455,-3.4655,-3.47,-3.4625,-3.4148,-3.3596,-3.3043,-3.2935,-3.2667,-3.2215,-3.3068,-3.3947,-3.4525,-3.5031,-3.5629,-3.6229,-3.6329,-3.6329,-3.6279,-3.56,-3.4684,-3.357,-3.2781,-3.1922,-3.0878,-3.2509,-3.4714,-3.7453,-3.7636,-3.8348,-3.9697,-3.8295,-3.769,-3.7636,-3.6271,-3.5617,-3.5617,-3.5508,-3.4681,-3.3417,-3.3304,-3.2493,-3.1228,-3.1112,-3.1883,-3.2907,-3.1556,-3.1883,-3.2758,-4.7309,-4.7309,-4.7309,-4.7309,-4.7309,-4.7309,-4.7309,-4.7309,-4.7309,-4.7309,-4.7309,-4.7309,-4.7309,-4.7309,-4.7309,-4.7309,-4.7309,-4.692,-4.5992,-4.5544,-4.4706,-4.3349,-4.2073,-4.1265,-4.1025,-4.0367,-4.0038,-4.0038,-4.0025,-3.9475,-3.839,-3.7788,-3.691,-3.5842,-3.464,-3.3838,-3.3359,-3.2206,-3.1625,-3.1461,-3.1175,-3.1411,-3.1913,-3.1913,-3.1913,-3.1863,-3.1687,-3.1386,-3.106,-3.0859,-3.0783,-3.0809,-3.1035,-3.111,-3.121,-3.1738,-3.2139,-3.2466,-3.2616,-3.2039,-3.1461,-3.1813,-3.2315,-3.2893,-3.347,-3.4274,-3.4931,-3.5132,-3.5504,-3.5629,-3.5257,-3.4776,-3.4449,-3.4575,-3.3746,-3.337,-3.4129,-3.4304,-3.4625,-3.5132,-3.573,-3.6257,-3.681,-3.6606,-3.6681,-3.7337,-3.628,-3.5147,-3.4182,-3.2406,-3.1319,-3.0879,-3.1441,-3.2701,-3.4714,-3.5672,-3.6433,-3.6942,-3.6379,-3.6162,-3.6108,-3.5563,-3.5288,-3.5233,-3.4348,-3.3642,-3.3077,-3.3077,-3.2264,-3.0995,-3.194,-3.2587,-3.2907,-3.1441,-3.1825,-3.2907,-4.7309,-4.7309,-4.7309,-4.7309,-4.7309,-4.7309,-4.7309,-4.7309,-4.7309,-4.7309,-4.7309,-4.7309,-4.7309,-4.7309,-4.7309,-4.7309,-4.7309,-4.695,-4.6052,-4.5155,-4.4287,-4.3319,-4.2282,-4.1722,-4.1722,-4.1055,-4.0696,-4.0696,-4.1145,-4.0656,-3.9294,-3.938,-3.8424,-3.6662,-3.6026,-3.5334,-3.4577,-3.3652,-3.3019,-3.2541,-3.2246,-3.2295,-3.2491,-3.2491,-3.2491,-3.2466,-3.229,-3.1964,-3.1612,-3.1461,-3.1386,-3.1461,-3.1813,-3.2164,-3.2516,-3.2893,-3.3294,-3.3671,-3.4048,-3.3319,-3.2516,-3.2918,-3.3571,-3.4305,-3.4868,-3.5539,-3.6106,-3.6284,-3.6362,-3.6307,-3.6107,-3.5755,-3.5629,-3.5959,-3.5253,-3.4951,-3.5931,-3.5881,-3.5859,-3.6235,-3.6659,-3.7036,-3.7412,-3.7111,-3.7186,-3.7939,-3.7241,-3.6176,-3.4751,-3.2684,-3.1383,-3.0898,-3.0898,-3.1383,-3.2416,-3.3845,-3.4847,-3.5288,-3.4847,-3.4626,-3.457,-3.4146,-3.3923,-3.3866,-3.2871,-3.2701,-3.3077,-3.3077,-3.2473,-3.171,-3.2701,-3.3077,-3.2907,-3.1441,-3.1825,-3.2907,-4.7309,-4.7309,-4.7309,-4.7309,-4.7309,-4.7309,-4.7309,-4.7309,-4.7309,-4.7309,-4.7309,-4.7309,-4.7309,-4.7309,-4.7309,-4.7309,-4.7309,-4.6741,-4.5394,-4.4077,-4.329,-4.329,-4.2701,-4.241,-4.241,-4.1752,-4.1384,-4.1384,-4.1384,-4.1055,-4.0397,-3.9738,-3.908,-3.8362,-3.7704,-3.6891,-3.6021,-3.6021,-3.5162,-3.3833,-3.3793,-3.3535,-3.3111,-3.3111,-3.3111,-3.3061,-3.2441,-3.224,-3.2139,-3.1612,-3.1411,-3.1612,-3.2742,-3.3847,-3.468,-3.4726,-3.4726,-3.4726,-3.4726,-3.4751,-3.4751,-3.468,-3.5613,-3.6637,-3.7219,-3.7307,-3.7466,-3.8002,-3.7196,-3.6581,-3.7134,-3.7186,-3.7186,-3.7186,-3.7638,-3.7814,-3.7262,-3.7663,-3.8015,-3.8015,-3.8015,-3.8015,-3.8015,-3.8015,-3.8015,-3.8015,-3.8542,-3.7865,-3.5431,-3.3901,-3.2416,-3.0937,-3.0898,-3.0898,-3.0898,-3.2358,-3.3789,-3.5233,-3.3789,-3.3077,-3.3021,-3.1536,-3.0898,-3.0898,-3.0898,-3.171,-3.3077,-3.3077,-3.3077,-3.3077,-3.3077,-3.3077,-3.2907,-3.1441,-3.1825,-3.2907,-4.7309,-4.7309,-4.7309,-4.7309,-4.7309,-4.7309,-4.7309,-4.7309,-4.7309,-4.7309,-4.7309,-4.7309,-4.7309,-4.7309,-4.7309,-4.7309,-4.7309,-4.6741,-4.5394,-4.4915,-4.4287,-4.3319,-4.2701,-4.241,-4.241,-4.2201,-4.2111,-4.2111,-4.2521,-4.2402,-4.1811,-4.1115,-4.0187,-3.908,-3.8392,-3.7685,-3.6956,-3.6664,-3.6331,-3.5815,-3.4848,-3.4354,-3.4163,-3.3386,-3.3319,-3.3646,-3.347,-3.3646,-3.3947,-3.3771,-3.3721,-3.3796,-3.4123,-3.4449,-3.4756,-3.5132,-3.5257,-3.5332,-3.578,-3.6157,-3.6182,-3.5002,-3.6225,-3.7811,-3.7997,-3.9267,-4.0504,-4.0668,-3.9714,-3.8929,-3.9086,-3.8347,-3.7764,-3.7764,-3.7889,-3.7939,-3.7789,-3.7889,-3.8015,-3.8015,-3.8015,-3.8165,-3.8567,-3.8241,-3.8341,-3.912,-3.8396,-3.7575,-3.6865,-3.4437,-3.2907,-3.2473,-3.1441,-3.0898,-3.0898,-3.1325,-3.1767,-3.2227,-3.1767,-3.1556,-3.1556,-3.1112,-3.0898,-3.0898,-3.0898,-3.117,-3.1652,-3.2701,-3.2473,-3.1652,-3.2701,-3.3077,-3.2907,-3.1441,-3.1825,-3.2907,-4.7309,-4.7309,-4.7309,-4.7309,-4.7309,-4.7309,-4.7309,-4.7309,-4.7309,-4.7309,-4.7309,-4.7309,-4.7309,-4.7309,-4.7309,-4.7309,-4.707,-4.6471,-4.5364,-4.5035,-4.4436,-4.3349,-4.294,-4.2761,-4.2761,-4.2761,-4.2761,-4.2761,-4.315,-4.3,-4.2381,-4.1991,-4.1055,-3.9798,-3.9379,-3.8811,-3.8207,-3.8193,-3.7804,-3.7109,-3.6111,-3.5315,-3.462,-3.3725,-3.3621,-3.3922,-3.4148,-3.4449,-3.468,-3.468,-3.4831,-3.5006,-3.5006,-3.5203,-3.5429,-3.578,-3.6031,-3.6257,-3.6609,-3.7086,-3.7262,-3.6282,-3.7444,-3.9024,-3.9527,-4.075,-4.1907,-4.2402,-4.1104,-3.9949,-4.0187,-3.9228,-3.8417,-3.8642,-3.8668,-3.8668,-3.8668,-3.8668,-3.8668,-3.8668,-3.8668,-3.8818,-3.917,-3.8894,-3.8969,-3.9647,-3.8844,-3.8137,-3.753,-3.5266,-3.3677,-3.3134,-3.1652,-3.0898,-3.0898,-3.0898,-3.0898,-3.0898,-3.0898,-3.0898,-3.0898,-3.0898,-3.0898,-3.0898,-3.1074,-3.1366,-3.1825,-3.2887,-3.2752,-3.1883,-3.2737,-3.2758,-3.2092,-3.1228,-3.1441,-3.2092,-4.7309,-4.7309,-4.7309,-4.7309,-4.7309,-4.7309,-4.7309,-4.7309,-4.7309,-4.7309,-4.7309,-4.7309,-4.7309,-4.7309,-4.7309,-4.7309,-4.6741,-4.6112,-4.5424,-4.4766,-4.4107,-4.3409,-4.3319,-4.329,-4.329,-4.329,-4.329,-4.329,-4.329,-4.303,-4.25,-4.244,-4.1752,-4.0576,-4.0516,-4.0157,-3.9619,-4.0217,-3.9512,-3.7844,-3.7426,-3.6266,-3.4726,-3.4183,-3.3997,-3.4123,-3.4625,-3.4826,-3.4876,-3.4876,-3.5157,-3.5583,-3.5583,-3.5956,-3.6405,-3.6455,-3.6832,-3.7186,-3.7236,-3.7663,-3.809,-3.809,-3.8925,-4.0103,-4.1333,-4.1727,-4.2238,-4.3514,-4.1892,-4.0378,-4.0962,-4.0018,-3.9247,-3.9673,-3.9697,-3.9697,-3.9697,-3.9697,-3.9697,-3.9697,-3.9697,-3.9697,-3.9697,-3.9697,-3.9697,-3.9697,-3.9569,-3.8921,-3.7583,-3.5999,-3.4515,-3.3134,-3.1652,-3.0898,-3.0898,-3.0898,-3.0898,-3.0898,-3.0898,-3.0898,-3.0898,-3.0937,-3.0937,-3.0976,-3.1387,-3.2133,-3.3054,-3.3372,-3.3288,-3.297,-3.2928,-3.2092,-3.0898,-3.0898,-3.0898,-3.0898,-4.7309,-4.7309,-4.7309,-4.7309,-4.7309,-4.7309,-4.7309,-4.7309,-4.7309,-4.7309,-4.7309,-4.7309,-4.7309,-4.7309,-4.7309,-4.7309,-4.7189,-4.68,-4.6142,-4.5454,-4.4796,-4.4137,-4.3559,-4.329,-4.329,-4.329,-4.329,-4.329,-4.329,-4.323,-4.312,-4.265,-4.2261,-4.1961,-4.1422,-4.1085,-4.0965,-4.1115,-4.0161,-3.8543,-3.8109,-3.6891,-3.5289,-3.4742,-3.4781,-3.5157,-3.5282,-3.5655,-3.6053,-3.6053,-3.6128,-3.6182,-3.6182,-3.6304,-3.648,-3.6885,-3.7086,-3.7287,-3.7713,-3.8241,-3.8668,-3.8668,-3.9196,-3.9928,-4.0786,-4.208,-4.3491,-4.476,-4.3817,-4.2766,-4.2903,-4.1897,-4.0739,-3.9853,-3.9697,-3.9697,-3.9697,-3.9697,-3.9697,-3.9697,-3.9697,-3.9697,-3.9697,-3.9697,-3.9697,-3.9697,-3.8635,-3.7849,-3.753,-3.4991,-3.3395,-3.3134,-3.1652,-3.0898,-3.0898,-3.0898,-3.0898,-3.0898,-3.0898,-3.0898,-3.0898,-3.123,-3.1387,-3.1406,-3.1836,-3.2214,-3.2376,-3.2078,-3.1919,-3.18,-3.1522,-3.117,-3.0898,-3.0898,-3.0898,-3.0996,-4.7309,-4.7309,-4.7309,-4.7309,-4.7309,-4.7309,-4.7309,-4.7309,-4.7309,-4.7309,-4.7309,-4.7309,-4.7309,-4.7309,-4.7309,-4.7309,-4.7309,-4.704,-4.6339,-4.5693,-4.5005,-4.4347,-4.3648,-4.3439,-4.3768,-4.3439,-4.329,-4.329,-4.329,-4.329,-4.329,-4.3,-4.2671,-4.2381,-4.2051,-4.1722,-4.1414,-4.1752,-4.084,-3.9136,-3.8712,-3.7446,-3.5824,-3.5283,-3.5257,-3.5533,-3.5855,-3.6107,-3.6405,-3.6405,-3.6405,-3.6455,-3.6732,-3.6807,-3.6908,-3.7412,-3.7764,-3.804,-3.8341,-3.8843,-3.927,-3.927,-3.9471,-3.9956,-4.0926,-4.1892,-4.293,-4.421,-4.3504,-4.2593,-4.2593,-4.1541,-4.0465,-3.98,-3.9697,-3.9697,-3.9697,-3.9697,-3.9697,-3.9697,-3.9697,-3.9413,-3.8739,-3.8635,-3.8372,-3.766,-3.6888,-3.6433,-3.6433,-3.4348,-3.3077,-3.3077,-3.1652,-3.0898,-3.0898,-3.1094,-3.1191,-3.1191,-3.1191,-3.1191,-3.1211,-3.1641,-3.1816,-3.1855,-3.2285,-3.2363,-3.2229,-3.2129,-3.2012,-3.1777,-3.1348,-3.1191,-3.1172,-3.0957,-3.0898,-3.0976,-4.7309,-4.7309,-4.7309,-4.7309,-4.7309,-4.7309,-4.7309,-4.7309,-4.7309,-4.7309,-4.7309,-4.7309,-4.7309,-4.7309,-4.7309,-4.7309,-4.7309,-4.707,-4.6488,-4.5753,-4.5035,-4.4496,-4.3708,-4.3589,-4.4317,-4.3738,-4.3529,-4.3618,-4.3529,-4.3469,-4.3469,-4.3469,-4.315,-4.256,-4.2365,-4.196,-4.1445,-4.1824,-4.0906,-3.9191,-3.8948,-3.7768,-3.6147,-3.5775,-3.5633,-3.5708,-3.6207,-3.6405,-3.6405,-3.6405,-3.6405,-3.6505,-3.701,-3.7186,-3.7312,-3.7965,-3.8492,-3.8944,-3.8994,-3.9346,-3.9697,-3.9697,-3.9697,-3.9981,-4.1019,-4.1269,-4.164,-4.293,-4.235,-4.1644,-4.1723,-4.0821,-3.9955,-3.9874,-3.9747,-3.9722,-3.9823,-3.9747,-3.9722,-3.9823,-3.9515,-3.8844,-3.7636,-3.724,-3.6595,-3.5398,-3.5068,-3.4902,-3.4902,-3.3529,-3.2737,-3.2737,-3.1556,-3.0918,-3.0996,-3.1348,-3.1562,-3.1621,-3.1699,-3.1699,-3.1641,-3.207,-3.2285,-3.2305,-3.2715,-3.2695,-3.2402,-3.2676,-3.2559,-3.2129,-3.1777,-3.1543,-3.1367,-3.1016,-3.0898,-3.0957,-4.7309,-4.7309,-4.7309,-4.7309,-4.7309,-4.7309,-4.7309,-4.7309,-4.7309,-4.7309,-4.7309,-4.7309,-4.7309,-4.7309,-4.7309,-4.7309,-4.7309,-4.7279,-4.7189,-4.5992,-4.5244,-4.5155,-4.3988,-4.3589,-4.4317,-4.4227,-4.4466,-4.5035,-4.4466,-4.4167,-4.4167,-4.4167,-4.3838,-4.313,-4.2158,-4.1691,-4.1522,-4.0647,-3.9243,-3.7641,-3.8051,-3.7163,-3.5663,-3.6125,-3.6304,-3.6304,-3.638,-3.6405,-3.6405,-3.6405,-3.6405,-3.6505,-3.701,-3.7186,-3.7387,-3.8442,-3.8869,-3.8969,-3.9446,-3.9647,-3.9697,-3.9697,-3.9697,-3.9749,-3.9929,-3.9981,-4.0313,-4.1591,-4.1739,-4.1749,-4.22,-4.1784,-4.1151,-4.0534,-3.9998,-3.9848,-4.035,-3.9998,-3.9873,-4.035,-3.8851,-3.7743,-3.753,-3.6325,-3.5508,-3.5288,-3.4125,-3.3417,-3.3417,-3.1998,-3.1228,-3.1228,-3.0995,-3.1074,-3.1426,-3.1484,-3.1699,-3.209,-3.2441,-3.2441,-3.209,-3.2519,-3.2715,-3.2734,-3.3144,-3.3301,-3.3223,-3.293,-3.2559,-3.2168,-3.2109,-3.1621,-3.0976,-3.0918,-3.0898,-3.0957,-4.7309,-4.7309,-4.7309,-4.7309,-4.7309,-4.7309,-4.7309,-4.7309,-4.7309,-4.7309,-4.7309,-4.7309,-4.7309,-4.7309,-4.7309,-4.7309,-4.7309,-4.7309,-4.7309,-4.6052,-4.5304,-4.5304,-4.4377,-4.4197,-4.4855,-4.4855,-4.5364,-4.6411,-4.5364,-4.4855,-4.4855,-4.4496,-4.3812,-4.2843,-4.2009,-4.1253,-4.0618,-4.0102,-3.9091,-3.7738,-3.8002,-3.7272,-3.6031,-3.6329,-3.6405,-3.6405,-3.6405,-3.6405,-3.6405,-3.6405,-3.6606,-3.691,-3.7462,-3.7864,-3.8291,-3.9094,-3.932,-3.9371,-3.9622,-3.9697,-3.9697,-3.9697,-3.9697,-3.9697,-3.9697,-3.9697,-3.9826,-4.0415,-4.0747,-4.1055,-4.1312,-4.1389,-4.1334,-4.0981,-4.0777,-4.0701,-4.0899,-4.0752,-4.0601,-4.0526,-3.9476,-3.8084,-3.6433,-3.5672,-3.4626,-3.2985,-3.2264,-3.1883,-3.1883,-3.1267,-3.0898,-3.0898,-3.1113,-3.1328,-3.1523,-3.1992,-3.2324,-3.2519,-3.2949,-3.293,-3.2539,-3.2949,-3.3144,-3.3164,-3.334,-3.3418,-3.3398,-3.3223,-3.3027,-3.2851,-3.2617,-3.2148,-3.1601,-3.1601,-3.1601,-3.1641]},{"header":{"parameterUnit":"m.s-1","parameterCategory":1,"la1":30.6,"la2":28.766,"lo1":-90.7593,"lo2":-88.6598,"dy":0.0162,"dx":0.0183,"nx":116,"ny":114,"refTime":"2023-09-03T12:00:00:Z","depth":0,"parameterNumber":3,"parameterNumberName":"V-component_of_WINDS"},"data":[0.0,0.0,0.0,0.0,0.0,0.0,0.0,0.0,0.0,0.0,0.0,0.0,0.0,0.0,0.0,0.0,0.0,0.0,0.0,0.0,0.0,0.0,0.0,0.0,0.0,0.0,0.0,0.0,0.0,0.0,0.0,0.0,0.0,0.0,0.0,0.0,0.0,0.0,0.0,0.0,0.0,0.0,0.0,0.0,0.0,0.0,0.0,0.0,0.0,0.0,0.0,0.0,0.0,0.0,0.0,0.0,0.0,0.0,0.0,0.0,0.0,0.0,0.0,0.0,0.0,0.0,0.0,0.0,0.0,0.0,0.0,0.0,0.0,0.0,0.0,0.0,0.0,0.0,0.0,0.0,0.0,0.0,0.0,0.0,0.0,0.0,0.0,0.0,0.0,0.0,0.0,0.0,0.0,0.0,0.0,0.0,0.0,0.0,0.0,0.0,0.0,0.0,0.0,0.0,0.0,0.0,0.0,0.0,0.0,0.0,0.0,0.0,0.0,0.0,0.0,0.0,0.0,0.0,0.0,0.0,0.0,0.0,0.0,0.0,0.0,0.0,0.0,0.0,0.0,0.0,0.0,0.0,0.0,0.0,0.0,0.0,0.0,0.0,0.0,0.0,0.0,0.0,0.0,0.0,0.0,0.0,0.0,0.0,0.0,0.0,0.0,0.0,0.0,0.0,0.0,0.0,0.0,0.0,0.0,0.0,0.0,0.0,0.0,0.0,0.0,0.0,0.0,0.0,0.0,0.0,0.0,0.0,0.0,0.0,0.0,0.0,0.0,0.0,0.0,0.0,0.0,0.0,0.0,0.0,0.0,0.0,0.0,0.0,0.0,0.0,0.0,0.0,0.0,0.0,0.0,0.0,0.0,0.0,0.0,0.0,0.0,0.0,0.0,0.0,0.0,0.0,0.0,0.0,0.0,0.0,0.0,0.0,0.0,0.0,0.0,0.0,0.0,0.0,0.0,0.0,0.0,0.0,0.0,0.0,0.0,0.0,0.0,0.0,0.0,0.0,0.0,0.0,0.0,0.0,0.0,0.0,0.0,0.0,0.0,0.0,0.0,0.0,0.0,0.0,0.0,0.0,0.0,0.0,0.0,0.0,0.0,0.0,0.0,0.0,0.0,0.0,0.0,0.0,0.0,0.0,0.0,0.0,0.0,0.0,0.0,0.0,0.0,0.0,0.0,0.0,0.0,0.0,0.0,0.0,0.0,0.0,0.0,0.0,0.0,0.0,0.0,0.0,0.0,0.0,0.0,0.0,0.0,0.0,0.0,0.0,0.0,0.0,0.0,0.0,0.0,0.0,0.0,0.0,0.0,0.0,0.0,0.0,0.0,0.0,0.0,0.0,0.0,0.0,0.0,0.0,0.0,0.0,0.0,0.0,0.0,0.0,0.0,0.0,0.0,0.0,0.0,0.0,0.0,0.0,0.0,0.0,0.0,0.0,0.0,0.0,0.0,0.0,0.0,0.0,0.0,0.0,0.0,0.0,0.0,0.0,0.0,0.0,0.0,0.0,0.0,0.0,0.0,0.0,0.0,0.0,0.0,0.0,0.0,0.0,0.0,0.0,0.0,0.0,0.0,0.0,0.0,0.0,0.0,0.0,0.0,0.0,0.0,0.0,0.0,0.0,0.0,0.0,0.0,0.0,0.0,0.0,0.0,0.0,0.0,0.0,0.0,0.0,0.0,0.0,0.0,0.0,0.0,0.0,0.0,0.0,0.0,0.0,0.0,0.0,0.0,0.0,0.0,0.0,0.0,0.0,0.0,0.0,0.0,0.0,0.0,0.0,0.0,0.0,0.0,0.0,0.0,0.0,0.0,0.0,0.0,0.0,0.0,0.0,0.0,0.0,0.0,0.0,0.0,0.0,0.0,0.0,0.0,0.0,0.0,0.0,0.0,0.0,0.0,0.0,0.0,0.0,0.0,0.0,0.0,0.0,0.0,0.0,0.0,0.0,0.0,0.0,0.0,0.0,0.0,0.0,0.0,0.0,0.0,0.0,0.0,0.0,0.0,0.0,0.0,0.0,0.0,0.0,0.0,0.0,0.0,0.0,0.0,0.0,0.0,0.0,0.0,0.0,0.0,0.0,0.0,0.0,0.0,0.0,0.0,0.0,0.0,0.0,0.0,0.0,0.0,0.0,0.0,0.0,0.0,0.0,0.0,0.0,0.0,0.0,0.0,0.0,0.0,0.0,0.0,0.0,0.0,0.0,0.0,0.0,0.0,0.0,0.0,0.0,0.0,0.0,0.0,0.0,0.0,0.0,0.0,0.0,0.0,0.0,0.0,0.0,0.0,0.0,0.0,0.0,0.0,0.0,0.0,0.0,0.0,0.0,0.0,0.0,0.0,0.0,0.0,0.0,0.0,0.0,0.0,0.0,0.0,0.0,0.0,0.0,0.0,0.0,0.0,0.0,0.0,0.0,0.0,0.0,0.0,0.0,0.0,0.0,0.0,0.0,0.0,0.0,0.0,0.0,0.0,0.0,0.0,0.0,0.0,0.0,0.0,0.0,0.0,0.0,0.0,0.0,0.0,0.0,0.0,0.0,0.0,0.0,0.0,0.0,0.0,0.0,0.0,0.0,0.0,0.0,0.0,0.0,0.0,0.0,0.0,0.0,0.0,0.0,0.0,0.0,0.0,0.0,0.0,0.0,0.0,0.0,0.0,0.0,0.0,0.0,0.0,0.0,0.0,0.0,0.0,0.0,0.0,0.0,0.0,0.0,0.0,0.0,0.0,0.0,0.0,0.0,0.0,0.0,0.0,0.0,0.0,0.0,0.0,0.0,0.0,0.0,0.0,0.0,0.0,0.0,0.0,0.0,0.0,0.0,0.0,0.0,0.0,0.0,0.0,0.0,0.0,0.0,0.0,0.0,0.0,0.0,0.0,0.0,0.0,0.0,0.0,0.0,0.0,0.0,0.0,0.0,0.0,0.0,0.0,0.0,0.0,0.0,0.0,0.0,0.0,0.0,0.0,0.0,0.0,0.0,0.0,0.0,0.0,0.0,0.0,0.0,0.0,0.0,0.0,0.0,0.0,0.0,0.0,0.0,0.0,0.0,0.0,0.0,0.0,0.0,0.0,0.0,0.0,0.0,0.0,0.0,0.0,0.0,0.0,0.0,0.0,0.0,0.0,0.0,0.0,0.0,0.0,0.0,0.0,0.0,0.0,0.0,0.0,0.0,0.0,0.0,0.0,0.0,0.0,0.0,0.0,0.0,0.0,0.0,0.0,0.0,0.0,0.0,0.0,0.0,0.0,0.0,0.0,0.0,0.0,0.0,0.0,0.0,0.0,0.0,0.0,0.0,0.0,0.0,0.0,0.0,0.0,0.0,0.0,0.0,0.0,0.0,0.0,0.0,0.0,0.0,0.0,0.0,0.0,0.0,0.0,0.0,0.0,0.0,0.0,0.0,0.0,0.0,0.0,0.0,0.0,0.0,0.0,0.0,0.0,0.0,0.0,0.0,0.0,0.0,0.0,0.0,0.0,0.0,0.0,0.0,0.0,0.0,0.0,0.0,0.0,0.0,0.0,0.0,0.0,0.0,0.0,0.0,0.0,0.0,0.0,0.0,0.0,0.0,0.0,0.0,0.0,0.0,0.0,0.0,0.0,0.0,0.0,0.0,0.0,0.0,0.0,0.0,0.0,0.0,0.0,0.0,0.0,0.0,0.0,0.0,0.0,0.0,0.0,0.0,0.0,0.0,0.0,0.0,0.0,0.0,0.0,0.0,0.0,0.0,0.0,0.0,0.0,0.0,0.0,0.0,0.0,0.0,0.0,0.0,0.0,0.0,0.0,0.0,0.0,0.0,0.0,0.0,0.0,0.0,0.0,0.0,0.0,0.0,0.0,0.0,0.0,0.0,0.0,0.0,0.0,0.0,0.0,0.0,0.0,0.0,0.0,0.0,0.0,0.0,0.0,0.0,0.0,0.0,0.0,0.0,0.0,0.0,0.0,0.0,0.0,0.0,0.0,0.0,0.0,0.0,0.0,0.0,0.0,0.0,0.0,0.0,0.0,0.0,0.0,0.0,0.0,0.0,0.0,0.0,0.0,0.0,0.0,0.0,0.0,0.0,0.0,0.0,0.0,0.0,0.0,0.0,0.0,0.0,0.0,0.0,0.0,0.0,0.0,0.0,0.0,0.0,0.0,0.0,0.0,0.0,0.0,0.0,0.0,0.0,0.0,0.0,0.0,0.0,0.0,0.0,0.0,0.0,0.0,0.0,0.0,0.0,0.0,0.0,0.0,0.0,0.0,0.0,0.0,0.0,0.0,0.0,0.0,0.0,0.0,0.0,0.0,0.0,0.0,0.0,0.0,0.0,0.0,0.0,0.0,0.0,0.0,0.0,0.0,0.0,0.0,0.0,0.0,0.0,0.0,0.0,0.0,0.0,0.0,0.0,0.0,0.0,0.0,0.0,0.0,0.0,0.0,0.0,0.0,0.0,0.0,0.0,0.0,0.0,0.0,0.0,0.0,0.0,0.0,0.0,0.0,0.0,0.0,0.0,0.0,0.0,0.0,0.0,0.0,0.0,0.0,0.0,0.0,0.0,0.0,0.0,0.0,0.0,0.0,0.0,0.0,0.0,0.0,0.0,0.0,0.0,0.0,0.0,0.0,0.0,0.0,0.0,0.0,0.0,0.0,0.0,0.0,0.0,0.0,0.0,0.0,0.0,0.0,0.0,0.0,0.0,0.0,0.0,0.0,0.0,0.0,0.0,0.0,0.0,0.0,0.0,0.0,0.0,0.0,0.0,0.0,0.0,0.0,0.0,0.0,0.0,0.0,0.0,0.0,0.0,0.0,0.0,0.0,0.0,0.0,0.0,0.0,0.0,0.0,0.0,0.0,0.0,0.0,0.0,0.0,0.0,0.0,0.0,0.0,0.0,0.0,0.0,0.0,0.0,0.0,0.0,0.0,0.0,0.0,0.0,0.0,0.0,0.0,0.0,0.0,0.0,0.0,0.0,0.0,0.0,0.0,0.0,0.0,0.0,0.0,0.0,0.0,0.0,0.0,0.0,0.0,0.0,0.0,0.0,0.0,0.0,0.0,0.0,0.0,0.0,0.0,0.0,0.0,0.0,0.0,0.0,0.0,0.0,0.0,0.0,0.0,0.0,0.0,0.0,0.0,0.0,0.0,0.0,0.0,0.0,0.0,0.0,0.0,0.0,0.0,0.0,0.0,0.0,0.0,0.0,0.0,0.0,0.0,0.0,0.0,0.0,0.0,0.0,0.0,0.0,0.0,0.0,0.0,0.0,0.0,0.0,0.0,0.0,0.0,0.0,0.0,0.0,0.0,0.0,0.0,0.0,0.0,0.0,0.0,0.0,0.0,0.0,0.0,0.0,0.0,0.0,0.0,0.0,0.0,0.0,0.0,0.0,0.0,0.0,0.0,0.0,0.0,0.0,0.0,0.0,0.0,0.0,0.0,0.0,0.0,0.0,0.0,0.0,0.0,0.0,0.0,0.0,0.0,0.0,0.0,0.0,0.0,0.0,0.0,0.0,0.0,0.0,0.0,0.0,0.0,0.0,0.0,0.0,0.0,0.0,0.0,0.0,0.0,0.0,0.0,0.0,0.0,0.0,0.0,0.0,0.0,0.0,0.0,0.0,0.0,0.0,0.0,0.0,0.0,0.0,0.0,0.0,0.0,0.0,0.0,0.0,0.0,0.0,0.0,0.0,0.0,0.0,0.0,0.0,0.0,0.0,0.0,0.0,0.0,0.0,0.0,0.0,0.0,0.0,0.0,0.0,0.0,0.0,0.0,0.0,0.0,0.0,0.0,0.0,0.0,0.0,0.0,0.0,0.0,0.0,0.0,0.0,0.0,0.0,0.0,0.0,0.0,0.0,0.0,0.0,0.0,0.0,0.0,0.0,0.0,0.0,0.0,0.0,0.0,0.0,0.0,0.0,0.0,0.0,0.0,0.0,0.0,0.0,0.0,0.0,0.0,0.0,0.0,0.0,0.0,0.0,0.0,0.0,0.0,0.0,0.0,0.0,0.0,0.0,0.0,0.0,0.0,0.0,0.0,0.0,0.0,0.0,0.0,0.0,0.0,0.0,0.0,0.0,0.0,0.0,0.0,0.0,2.5266,2.4072,0.0,0.0,0.0,0.0,0.0,0.0,0.0,0.0,0.0,0.0,0.0,0.0,0.0,0.0,0.0,0.0,0.0,0.0,0.0,0.0,0.0,0.0,0.0,0.0,0.0,0.0,0.0,0.0,0.0,0.0,0.0,0.0,0.0,0.0,0.0,0.0,0.0,2.1845,2.2171,2.2272,2.2246,2.439,2.4517,2.2925,0.0,0.0,0.0,0.0,0.0,0.0,0.0,0.0,0.0,0.0,0.0,0.0,0.0,0.0,0.0,0.0,0.0,0.0,0.0,0.0,0.0,0.0,0.0,0.0,0.0,0.0,0.0,0.0,0.0,0.0,0.0,0.0,0.0,0.0,0.0,0.0,0.0,0.0,0.0,0.0,0.0,0.0,0.0,0.0,0.0,0.0,0.0,0.0,0.0,0.0,0.0,0.0,0.0,0.0,0.0,0.0,0.0,0.0,0.0,0.0,0.0,0.0,0.0,0.0,0.0,0.0,0.0,0.0,0.0,0.0,2.7758,2.6268,0.0,0.0,0.0,0.0,0.0,0.0,0.0,0.0,0.0,0.0,0.0,0.0,0.0,0.0,0.0,0.0,0.0,0.0,0.0,0.0,0.0,0.0,0.0,1.4157,1.4704,1.5452,1.6454,1.7361,0.0,0.0,0.0,0.0,0.0,0.0,0.0,2.0943,2.1619,2.297,2.2518,2.3276,2.5134,2.5971,2.4991,2.2523,2.2774,0.0,0.0,0.0,0.0,0.0,0.0,0.0,0.0,0.0,0.0,0.0,0.0,0.0,0.0,0.0,0.0,0.0,0.0,0.0,0.0,0.0,0.0,0.0,0.0,0.0,0.0,0.0,0.0,0.0,0.0,0.0,0.0,0.0,0.0,0.0,0.0,0.0,0.0,0.0,0.0,0.0,0.0,0.0,0.0,0.0,0.0,0.0,0.0,0.0,0.0,0.0,0.0,0.0,0.0,0.0,0.0,0.0,0.0,0.0,0.0,0.0,0.0,0.0,3.1305,3.3028,3.342,3.4449,3.465,3.4117,3.111,2.9654,2.924,2.784,0.0,0.0,0.0,0.0,0.0,0.0,0.0,0.0,0.0,0.0,0.0,0.0,0.0,0.0,0.0,0.0,0.0,0.0,0.0,0.0,0.0,1.4067,1.4612,1.5118,1.6207,1.7168,1.7885,0.0,0.0,0.0,0.0,0.0,2.1395,2.1845,2.2196,2.2422,2.2347,2.3653,2.6273,2.5887,2.5988,2.6524,2.5561,2.5435,2.5845,0.0,0.0,0.0,0.0,0.0,0.0,0.0,0.0,0.0,0.0,0.0,0.0,0.0,0.0,0.0,0.0,0.0,0.0,0.0,0.0,0.0,0.0,0.0,0.0,0.0,0.0,0.0,0.0,0.0,0.0,0.0,0.0,0.0,0.0,0.0,0.0,0.0,0.0,0.0,0.0,0.0,2.3462,2.4498,0.0,0.0,0.0,0.0,0.0,0.0,0.0,0.0,0.0,0.0,0.0,0.0,0.0,2.625,2.6499,2.8428,3.003,3.1321,3.5102,3.7305,3.8064,3.8642,3.8894,3.8743,3.7312,0.0,3.1009,3.0335,0.0,0.0,0.0,0.0,0.0,0.0,0.0,0.0,0.0,0.0,0.0,0.0,0.0,0.0,0.0,0.0,0.0,0.0,0.0,0.0,0.0,1.4626,1.549,1.5808,1.7666,1.8599,1.8061,1.9373,0.0,0.0,0.0,2.0943,2.1468,2.202,2.2774,2.3697,2.5586,2.6967,2.7871,2.885,2.9578,3.003,2.9528,2.8247,2.6474,2.6047,0.0,0.0,0.0,0.0,0.0,0.0,0.0,0.0,0.0,0.0,0.0,0.0,0.0,0.0,0.0,0.0,0.0,0.0,0.0,0.0,0.0,0.0,0.0,0.0,0.0,0.0,0.0,0.0,0.0,0.0,0.0,0.0,0.0,0.0,0.0,0.0,0.0,0.0,0.0,2.3829,2.5086,2.5022,2.6921,2.8075,0.0,0.0,0.0,0.0,0.0,0.0,0.0,0.0,0.0,3.1886,3.1879,3.1686,3.1323,3.356,3.5189,3.6069,3.9188,4.0744,4.0805,4.1605,4.1505,4.0601,4.0425,3.8894,3.6332,3.3922,3.1938,3.0306,0.0,0.0,0.0,0.0,2.9202,2.9302,0.0,0.0,0.0,0.0,0.0,0.0,0.0,0.0,0.0,0.0,0.0,0.0,1.4258,1.5371,1.6365,1.7094,1.8757,1.938,1.8416,1.9543,1.9838,1.8922,2.0,2.0902,2.1468,2.2573,2.4023,2.5828,2.8499,2.9854,3.003,3.1662,3.2667,3.3025,3.3025,3.1235,2.8184,2.7846,2.7316,2.6629,0.0,0.0,0.0,0.0,0.0,0.0,0.0,0.0,0.0,0.0,0.0,0.0,0.0,0.0,0.0,0.0,0.0,0.0,0.0,0.0,0.0,0.0,0.0,0.0,0.0,0.0,0.0,0.0,0.0,0.0,0.0,0.0,0.0,0.0,0.0,0.0,0.0,2.6038,2.7186,2.6168,2.9064,3.0698,0.0,0.0,0.0,0.0,0.0,0.0,3.7284,3.7364,3.6858,3.5844,3.6456,3.6431,3.5587,3.7783,3.9148,3.9698,4.222,4.3187,4.2866,4.379,4.3489,4.2128,4.2308,4.1907,4.0877,3.7262,3.4951,3.3571,3.234,3.1612,3.1336,3.2014,3.2089,3.2022,0.0,0.0,0.0,0.0,0.0,0.0,0.0,0.0,0.0,0.0,0.0,1.3848,1.6278,1.6269,1.6907,1.8997,1.8527,1.8381,1.9007,1.8029,1.7999,1.9309,2.0032,2.0767,2.1493,2.4079,2.6515,2.8687,2.9453,3.0859,3.2867,3.2993,3.3872,3.5332,3.5332,3.4399,3.2566,2.9955,2.88,2.8635,2.7245,0.0,0.0,0.0,0.0,0.0,0.0,0.0,0.0,0.0,0.0,0.0,0.0,0.0,0.0,0.0,0.0,0.0,0.0,0.0,0.0,0.0,0.0,0.0,0.0,0.0,0.0,0.0,0.0,0.0,0.0,0.0,0.0,0.0,0.0,0.0,0.0,0.0,0.0,2.8862,3.3203,0.0,0.0,0.0,0.0,3.6225,3.78,3.9343,4.0772,4.1323,4.1378,4.0949,3.9625,3.8911,3.8856,3.9586,4.0192,4.0798,4.3276,4.4518,4.4518,4.5121,4.507,4.4392,4.3388,4.2911,4.2635,3.9823,3.8291,3.7563,3.5884,3.5232,3.5157,3.468,3.4831,3.5107,0.0,0.0,0.0,0.0,0.0,0.0,0.0,0.0,1.3027,1.3457,1.4363,1.5391,1.657,1.8066,1.9314,2.0077,2.0605,2.0545,1.9677,1.9383,1.9228,1.9216,2.0641,2.2615,2.5184,2.6866,2.8461,2.9966,3.1637,3.2842,3.3621,3.4745,3.555,3.6107,3.681,3.6609,3.5579,3.352,3.1436,2.939,2.8083,2.6986,0.0,0.0,0.0,0.0,0.0,0.0,0.0,0.0,0.0,0.0,0.0,0.0,0.0,0.0,0.0,0.0,0.0,0.0,0.0,0.0,0.0,0.0,0.0,0.0,0.0,0.0,0.0,0.0,0.0,0.0,0.0,0.0,0.0,0.0,0.0,0.0,0.0,3.3226,3.6694,0.0,3.5774,3.6542,3.8461,4.1536,4.2316,4.3219,4.4543,4.4782,4.445,4.3438,4.2903,4.265,4.265,4.2848,4.3243,4.3869,4.4736,4.5171,4.5196,4.5773,4.5497,4.4618,4.4593,4.4166,4.3438,4.2459,4.0877,3.9044,3.8442,3.7764,3.7111,3.691,3.696,3.7061,0.0,0.0,0.0,0.0,0.0,0.0,0.0,0.0,1.3242,1.3652,1.5107,1.6496,1.748,1.9375,2.084,2.1387,2.1699,2.1367,2.0215,1.9685,1.9233,1.8903,2.1234,2.4077,2.7508,2.9186,3.0643,3.1989,3.3646,3.465,3.5027,3.5755,3.6483,3.7285,3.7764,3.7914,3.7688,3.6584,3.4198,3.106,2.9754,2.8674,2.7605,0.0,0.0,0.0,0.0,0.0,0.0,0.0,0.0,0.0,0.0,0.0,0.0,0.0,0.0,0.0,0.0,0.0,0.0,0.0,0.0,0.0,0.0,0.0,0.0,0.0,0.0,0.0,0.0,0.0,0.0,0.0,0.0,0.0,0.0,3.4977,3.7563,3.701,4.0224,4.1774,4.0,4.0488,4.2112,4.5023,4.5875,4.6486,4.6953,4.7252,4.6726,4.5196,4.502,4.492,4.492,4.5095,4.5397,4.5773,4.5949,4.5949,4.5773,4.615,4.5899,4.5196,4.5397,4.507,4.4342,4.3966,4.2509,4.0501,4.0325,3.9798,3.9094,3.8718,3.8567,3.8517,0.0,0.0,0.0,0.0,0.0,0.0,0.0,1.3223,1.3633,1.4036,1.5273,1.6946,1.9043,2.0116,2.1289,2.2925,2.1562,2.0605,2.0605,1.8609,1.7763,1.8593,2.1762,2.4981,2.8131,3.0836,3.305,3.4731,3.5307,3.611,3.7186,3.6085,3.681,3.8894,3.8291,3.8366,3.8944,3.8944,3.7036,3.3897,3.2164,3.1135,3.0331,0.0,0.0,0.0,0.0,0.0,0.0,0.0,0.0,0.0,0.0,0.0,0.0,0.0,0.0,0.0,0.0,0.0,0.0,0.0,0.0,0.0,0.0,0.0,0.0,0.0,0.0,0.0,0.0,0.0,0.0,0.0,0.0,0.0,3.4073,3.7889,4.0501,3.9998,4.379,4.5372,4.2715,4.4342,4.5824,4.6376,4.8221,4.8919,4.797,4.879,4.8366,4.6436,4.5849,4.5573,4.5573,4.61,4.6351,4.6376,4.6903,4.6878,4.6326,4.6326,4.6326,4.6276,4.5748,4.5497,4.5338,4.4292,4.3187,4.2078,4.1501,4.125,4.11,4.0099,3.9697,3.9546,0.0,0.0,0.0,0.0,0.0,0.0,0.0,1.2993,1.3203,1.3607,1.5625,1.748,1.8637,2.0703,2.2168,2.2594,2.1387,2.0605,2.0605,1.8609,1.8522,2.1066,2.2895,2.5905,3.0252,3.18,3.3646,3.5956,3.6885,3.7487,3.7789,3.7889,3.8291,3.8919,3.912,3.932,3.9471,3.9471,3.8718,3.7262,3.4374,3.239,3.0959,0.0,0.0,0.0,0.0,0.0,0.0,0.0,0.0,0.0,0.0,0.0,0.0,0.0,0.0,0.0,0.0,0.0,0.0,0.0,0.0,0.0,0.0,0.0,0.0,0.0,0.0,0.0,0.0,0.0,0.0,0.0,3.5529,3.7638,3.804,4.158,4.4367,4.502,4.7581,4.8837,4.7657,4.8109,4.8535,4.8686,4.9191,4.9204,4.8598,4.8798,4.8444,4.7481,4.733,4.723,4.723,4.7405,4.7481,4.7481,4.7631,4.7431,4.6903,4.6903,4.6702,4.6301,4.615,4.514,4.3651,4.4202,4.3251,4.1465,4.134,4.0799,4.0099,3.9798,3.9697,3.9647,0.0,0.0,0.0,0.0,0.0,0.0,0.0,1.3224,1.3223,1.3477,1.5762,1.7578,1.8066,2.0098,2.1348,2.1172,2.0293,1.9687,1.9512,1.8828,1.9687,2.2431,2.4116,2.6889,3.1043,3.263,3.4606,3.7086,3.7713,3.8241,3.8718,3.8567,3.8768,3.922,3.932,3.9471,3.9697,3.9697,3.9521,3.9019,3.686,3.5102,3.3596,3.1461,3.0407,2.993,2.8938,2.88,2.8925,2.7469,0.0,0.0,0.0,0.0,0.0,0.0,0.0,0.0,0.0,0.0,0.0,0.0,0.0,0.0,0.0,0.0,0.0,0.0,0.0,0.0,0.0,0.0,0.0,0.0,3.8919,4.153,4.3263,4.5221,4.7004,4.8335,4.9841,5.0745,5.067,5.0645,5.0645,5.0645,5.0444,5.0067,4.949,4.9238,4.8862,4.8284,4.8485,4.8611,4.8611,4.8611,4.851,4.8259,4.8033,4.7506,4.6778,4.6778,4.6602,4.6301,4.6075,4.4825,4.302,4.3173,4.1931,4.0,0.0,0.0,0.0,0.0,3.9697,3.9672,0.0,0.0,0.0,0.0,0.0,0.0,0.0,1.3658,1.3514,1.3437,1.5566,1.7109,1.7148,1.8633,1.9512,1.9238,1.8769,1.8364,1.8164,1.9355,2.0976,2.314,2.5206,2.7732,3.0775,3.3131,3.545,3.7792,3.8016,3.8718,3.9672,3.8668,3.8743,3.9672,3.917,3.927,3.9798,3.9722,3.9722,3.9747,3.9195,3.8241,3.691,3.4324,3.3571,3.3671,3.1989,3.126,3.0884,2.959,0.0,0.0,0.0,0.0,0.0,0.0,0.0,0.0,0.0,0.0,0.0,0.0,0.0,0.0,0.0,0.0,0.0,0.0,0.0,0.0,0.0,0.0,0.0,0.0,4.2434,4.5372,4.851,4.8611,4.8937,5.0419,5.1122,5.1649,5.2151,5.2201,5.2151,5.2026,5.1624,5.1096,5.0444,5.0017,0.0,0.0,0.0,4.9766,4.969,4.969,4.9389,4.8761,4.8259,4.7456,4.6401,4.6401,4.6376,4.6276,4.5723,4.459,4.2997,4.1864,4.0093,3.8191,4.0214,4.1043,4.0974,4.0049,3.9697,3.9622,0.0,0.0,0.0,0.0,0.0,0.0,0.0,1.3757,1.3556,1.3062,1.4363,1.541,1.5762,1.7031,1.8105,1.8676,1.8066,1.8027,1.8984,2.0254,2.1892,2.4036,2.5571,2.7487,2.9891,3.267,3.4853,3.6365,3.8386,3.9471,3.9697,3.9471,3.9496,3.9697,3.9572,3.9848,4.0325,3.9873,3.9948,4.03,3.9747,3.8592,3.7036,3.5604,3.4575,3.3671,3.1989,3.2491,3.3621,3.1587,3.1738,3.2533,3.0983,2.9467,0.0,0.0,0.0,0.0,0.0,0.0,0.0,0.0,0.0,0.0,0.0,0.0,0.0,0.0,0.0,0.0,0.0,0.0,0.0,4.1856,4.502,4.7807,4.9816,5.0795,5.1423,5.1749,5.2277,5.2653,5.2754,5.2779,5.2402,5.1498,5.1749,5.1498,5.0469,5.077,5.0896,5.0795,5.0896,5.072,5.0268,5.0268,4.9766,4.8761,4.8661,0.0,4.6979,4.6979,4.6728,4.6276,4.5723,4.453,4.2875,4.1805,3.9674,3.7084,3.8288,3.9267,3.9998,3.9772,3.9697,3.9672,0.0,0.0,0.0,0.0,0.0,0.0,0.0,1.419,1.3757,1.3667,1.4314,1.4941,1.5371,1.6191,1.6797,1.698,1.7051,1.804,2.0343,2.1549,2.3164,2.5312,2.6445,2.7973,2.9971,3.2075,3.3953,3.5604,3.7789,3.8994,3.9295,3.9572,3.9697,3.9697,3.9973,4.0099,4.0099,4.0099,4.0099,4.0074,3.9798,3.9195,3.8316,3.7211,3.6107,3.4977,3.3872,3.3822,3.4173,3.3345,3.3445,3.3696,3.2591,3.1461,3.0256,0.0,0.0,0.0,0.0,0.0,0.0,0.0,0.0,0.0,0.0,0.0,0.0,0.0,0.0,3.2411,3.5219,0.0,4.1506,4.4928,4.7531,4.9665,5.1071,5.1749,5.2201,5.2477,5.2754,5.2929,5.2929,5.2929,5.2703,5.2151,5.2101,5.185,5.1297,5.1548,5.1574,5.1297,5.1825,5.1699,5.087,5.0845,5.0293,4.9188,4.8912,4.8335,4.7506,4.7193,4.6918,4.6652,4.5547,4.4112,4.2434,4.0572,3.857,3.6837,3.805,3.8545,3.8687,3.9413,3.9697,3.9697,0.0,0.0,0.0,0.0,0.0,0.0,0.0,1.4767,1.4226,1.4443,1.4547,1.4723,1.5059,1.5416,1.5652,1.5676,1.6769,1.8785,2.2,2.3206,2.4826,2.699,2.7699,2.8712,3.0129,3.1753,3.3412,3.4964,3.7219,3.8567,3.9044,3.9496,3.9747,3.9873,4.0325,4.04,4.0174,4.0425,4.0325,3.9998,3.9772,3.9622,3.9421,3.8291,3.7287,3.6455,3.5529,3.448,3.3646,3.4223,3.4098,3.3696,3.347,3.2918,3.1989,2.9941,2.9428,0.0,0.0,0.0,0.0,0.0,0.0,0.0,0.0,2.9235,3.0298,3.1505,3.2458,3.4318,3.8421,4.0917,4.3708,4.7571,4.9565,5.0946,5.1975,5.2101,5.2226,5.2578,5.2603,5.2653,5.2754,5.2779,5.2779,5.2779,5.2452,5.2226,5.2126,5.2201,5.2076,5.1624,5.2352,5.2277,5.1297,5.1172,5.0544,4.9439,4.8987,4.846,4.7883,4.738,4.7068,4.6993,4.5472,4.3742,4.1971,3.9712,3.8069,3.6994,3.8353,3.8373,3.7833,3.9179,3.9697,3.9697,0.0,0.0,0.0,0.0,0.0,0.0,0.0,0.0,1.522,1.4719,1.4221,1.3924,1.3987,1.4028,1.4754,1.6501,1.8791,2.1218,2.3756,2.5311,2.7171,2.9506,2.943,2.9402,2.9617,3.2339,3.3914,3.4116,3.7719,3.9546,3.9597,3.9672,3.9948,4.0425,4.0501,4.1028,4.1886,4.0902,4.0752,4.1025,4.0099,3.9396,3.8894,3.7713,3.7186,3.6835,3.4801,3.337,3.2491,3.3068,3.3262,3.3345,3.4248,3.3822,3.2742,3.1486,2.9779,2.8473,2.9202,2.8841,2.8586,3.0112,2.9343,2.9337,0.0,3.3654,3.3179,3.4721,3.5746,3.721,3.9983,4.249,4.5309,4.8857,5.0419,5.1398,5.2026,5.2101,5.195,5.1523,5.1473,5.1649,5.2151,5.2201,5.2201,5.2201,5.2603,5.2628,5.2126,5.2578,5.2804,5.2754,5.2377,5.19,5.1297,5.077,4.9967,4.8862,4.8812,4.846,4.7883,4.738,4.7068,4.7079,4.5899,4.389,4.1448,4.1153,3.9674,3.7605,3.8517,3.8587,3.8311,3.9303,3.9697,3.9697,0.0,0.0,0.0,0.0,0.0,0.0,0.0,0.0,0.0,1.5614,1.5076,1.4781,1.5064,1.5086,1.5709,1.7298,1.8764,2.0867,2.3774,2.5475,2.7339,2.9459,2.9978,3.0339,3.0671,3.2646,3.3877,3.4253,3.6897,3.8391,3.8718,3.9069,3.9521,4.0074,4.0701,4.1078,4.1178,4.1053,4.0899,4.0802,3.9998,3.9371,3.8768,3.731,3.5952,3.462,3.3018,3.1738,0.0,3.1813,3.2089,3.234,3.3796,3.347,3.2365,3.126,3.0733,3.0884,3.2667,3.1378,3.0039,3.1942,3.2116,3.2205,3.3659,3.3983,3.4267,3.5292,3.5806,3.7147,4.0815,4.2753,4.5212,4.9361,5.0745,5.1473,5.2026,5.1272,5.0318,4.9414,4.8761,4.9113,5.0946,5.1423,5.1749,5.2076,5.2628,5.2829,5.2603,5.2804,5.2929,5.2929,5.2402,5.185,5.1297,5.072,5.0017,4.9264,4.9264,4.8962,4.8385,4.7832,4.7079,4.615,4.5673,4.4469,4.2823,4.2823,4.1302,3.9125,4.0321,3.977,3.8407,3.9327,3.9697,3.9697,0.0,0.0,0.0,0.0,0.0,0.0,0.0,0.0,0.0,0.0,1.58,1.5515,1.5853,1.6033,1.6558,1.7676,1.8772,2.0593,2.3432,2.5471,2.7428,2.9272,3.0444,3.1213,3.1624,3.3166,3.4195,3.4625,3.6677,3.7864,3.8266,3.8818,3.9396,3.9948,4.0752,4.0924,4.0752,4.0949,4.0877,4.045,3.9747,3.8944,3.799,3.6204,3.4142,3.2064,3.1235,2.9838,2.8474,2.9802,3.0138,3.0254,3.2156,3.2315,3.1662,3.1185,3.1712,3.2767,3.4179,3.3434,3.2656,3.4456,3.5114,3.5232,3.4584,3.4889,3.5392,3.5709,3.606,3.7391,4.0909,4.2583,4.486,4.9262,5.0569,5.1247,5.18,5.0419,4.8887,4.7631,4.6376,4.6527,4.8837,4.9992,5.0946,5.1825,5.2251,5.2528,5.2678,5.2703,5.2779,5.2929,5.2251,5.1674,5.1272,5.0544,4.9992,4.959,4.959,4.9389,4.8987,4.8234,4.7104,4.5723,4.5723,4.507,4.4041,4.4041,4.2772,4.0918,4.1853,4.0933,3.9188,3.9733,3.9823,3.9697,0.0,0.0,0.0,0.0,0.0,0.0,0.0,0.0,0.0,0.0,0.0,0.0,0.0,1.6075,1.6663,1.7357,1.9409,2.1337,2.301,2.5745,2.8024,2.9688,3.1134,3.1849,3.1872,3.4029,3.5175,3.5199,3.7641,3.8869,3.8894,3.9421,3.9973,4.0501,4.0526,4.0774,4.1225,4.0752,4.0526,4.0425,3.932,3.7939,3.6257,3.4022,3.1854,2.988,2.9854,2.7508,2.4781,2.677,2.6867,2.6602,2.9148,3.0256,3.0859,3.1863,3.2591,3.2943,3.2441,3.4037,3.6193,3.7786,3.7798,3.7636,3.8458,3.7854,3.7121,3.6699,3.7799,3.9087,4.0199,4.2068,4.4678,4.8283,4.9741,5.0645,5.1222,4.9866,4.8184,4.6552,4.4895,4.4342,4.5522,4.7581,4.954,5.1172,5.1322,5.1574,5.2101,5.2126,5.2377,5.2904,5.1875,5.1297,5.1272,5.0167,4.9615,4.959,4.959,4.959,4.954,4.841,4.7305,4.6276,4.6276,4.5648,4.4593,4.4593,4.3883,4.283,4.2359,4.1806,4.1146,4.0648,4.0149,3.9697,0.0,0.0,0.0,0.0,0.0,0.0,0.0,0.0,0.0,0.0,0.0,0.0,0.0,0.0,0.0,0.0,1.8429,1.9886,2.192,2.4305,2.6389,2.8047,3.001,3.1385,3.2074,3.3227,3.4139,3.4854,3.5672,3.6483,3.726,3.7436,3.7965,3.8868,3.9245,3.9747,4.0199,3.9672,3.9848,4.0325,3.8115,3.691,3.6081,3.3093,3.0583,2.8524,0.0,2.5625,2.3867,2.4556,2.4208,2.3909,2.6492,2.7383,2.8096,3.0848,3.2591,3.4073,3.6081,3.758,3.9046,4.1188,4.141,4.1132,4.1683,4.0993,4.0006,3.9149,3.825,3.7972,3.9137,4.0177,4.2171,4.601,4.8134,4.9227,4.8968,4.9149,4.7819,4.3869,4.3943,4.4342,4.4367,4.605,4.7983,5.0017,5.0845,5.1523,5.2076,5.2452,5.2729,5.2929,5.2201,5.1649,5.1272,5.0519,4.9967,4.959,4.9213,4.9063,4.9012,4.7908,4.7205,4.6828,4.6476,4.5874,4.5171,4.4794,4.4192,4.3463,4.2911,4.2133,4.125,4.1075,4.0475,3.9697,0.0,0.0,0.0,0.0,0.0,0.0,0.0,0.0,0.0,0.0,0.0,0.0,0.0,0.0,0.0,0.0,0.0,1.8606,2.0213,2.2397,2.4205,2.546,2.7846,2.9453,3.0156,3.111,3.1938,3.2641,3.3244,3.3997,3.4876,3.5349,3.5956,3.686,3.7437,3.7889,3.8191,3.7839,3.7864,3.7965,3.578,3.4449,3.3445,3.0683,2.8499,0.0,2.5259,2.3936,2.2973,2.3256,2.3048,2.3062,2.5177,2.681,2.8415,3.0923,3.3294,3.5755,3.8894,4.0627,4.2074,4.4486,4.4512,4.3926,4.3954,4.2675,4.0879,3.9086,3.7798,3.6939,3.6831,3.7684,3.9623,4.3144,4.5221,4.6686,4.741,4.7689,4.6649,4.3529,4.382,4.4342,4.4392,4.5372,4.6928,4.9138,5.0343,5.1222,5.1774,5.2327,5.2729,5.2929,5.2402,5.185,5.1297,5.072,5.0142,4.959,4.9238,4.8962,4.8736,4.8033,4.7506,4.7043,4.6753,4.6075,4.5146,4.4769,4.4192,4.3463,4.3112,4.2434,4.1605,4.1351,4.0752,3.9948,0.0,0.0,0.0,0.0,0.0,0.0,0.0,0.0,0.0,0.0,0.0,0.0,0.0,0.0,0.0,0.0,0.0,0.0,1.8129,2.0188,2.1619,2.2196,2.4865,2.6348,2.6399,2.7946,2.8737,2.8762,3.0357,3.1411,3.1989,3.3068,3.3872,3.4405,3.4886,3.5136,3.5186,3.5161,3.4585,3.3627,3.2449,3.0758,2.8712,2.7052,2.5737,2.465,2.3521,2.261,2.2087,2.2867,2.3406,2.4016,2.5385,2.8461,3.1687,3.2365,3.4901,3.809,4.0852,4.3156,4.5397,4.7506,4.7066,4.5984,4.5412,4.2967,4.0003,3.6925,3.6512,3.5996,3.3526,3.4841,3.7186,3.9948,4.143,4.3388,4.6581,4.5789,4.5012,4.5429,4.4636,4.4468,4.5522,4.5673,4.6577,4.8686,4.9791,5.0645,5.1297,5.185,5.2377,5.2904,5.2402,5.185,5.1297,5.067,5.0117,4.959,4.959,4.9314,4.8812,4.8761,4.8159,4.7179,4.7043,4.6115,4.4669,4.4669,4.4016,4.3011,4.3011,4.2715,4.2137,4.158,4.1003,4.045,0.0,0.0,0.0,0.0,0.0,0.0,0.0,0.0,0.0,0.0,0.0,0.0,0.0,0.0,0.0,0.0,0.0,0.0,1.7574,1.8882,2.0087,2.1069,2.2949,2.4381,2.5209,2.6038,2.6666,2.7128,2.7555,2.8033,2.8549,2.8825,2.9478,3.0367,2.9828,3.0097,3.087,3.0455,3.0577,3.0978,2.9671,2.9076,2.8612,2.6189,2.5059,2.465,2.3521,2.2975,2.2856,2.3264,2.5094,2.7454,2.8582,3.119,3.4299,3.6533,3.922,4.2007,4.4392,4.6652,4.856,4.954,4.8918,4.7753,4.6328,4.3846,4.103,3.8153,3.5697,3.3621,3.2136,3.3308,3.5454,3.8191,4.1304,4.3904,4.5489,4.7217,4.7557,4.5498,4.6637,4.7456,4.7305,4.8058,4.8937,4.9916,4.9866,5.0419,5.1825,5.2427,5.2779,5.2929,5.2402,5.185,5.1297,5.0293,4.9741,4.959,4.959,4.9515,4.9364,4.851,4.7983,4.7657,4.6878,4.605,4.5271,4.5271,4.4593,4.3589,4.3589,4.3011,4.2187,4.2062,4.1329,4.0501,0.0,0.0,0.0,0.0,0.0,0.0,0.0,0.0,0.0,0.0,0.0,0.0,0.0,0.0,0.0,0.0,0.0,0.0,0.0,1.7827,1.8581,1.9233,2.0589,2.1591,2.2243,2.3025,2.3633,2.3935,2.4437,2.4908,2.546,2.5711,2.6414,2.7433,2.7224,2.7606,2.839,2.8096,2.8022,0.0,0.0,2.6414,2.5828,2.4274,2.3577,2.3301,2.2895,2.3672,2.5094,2.5994,2.7998,3.0417,3.2296,3.4711,3.7437,4.0224,4.266,4.492,4.7154,4.9012,5.0293,5.0092,4.9038,4.7431,4.502,4.2333,3.9346,3.583,3.3445,3.1512,2.988,3.0959,3.2993,3.5755,3.8642,4.1604,4.4524,4.6365,4.7334,4.7149,4.8337,0.0,4.9012,4.959,5.0293,5.1096,5.087,5.1122,5.2051,5.2628,5.2929,5.2929,5.2628,5.2076,5.1297,5.0167,4.959,4.959,4.959,4.9464,4.9213,4.8586,4.8033,4.7531,4.6928,4.6225,4.5497,4.5497,4.4819,4.379,4.379,4.3263,4.2514,4.1982,4.1404,4.0802,0.0,0.0,0.0,0.0,0.0,0.0,0.0,0.0,0.0,0.0,0.0,0.0,0.0,0.0,0.0,0.0,0.0,0.0,0.0,0.0,1.7345,1.751,1.8378,1.8957,1.9081,2.0064,2.0591,2.0591,2.1518,2.2192,2.2669,2.3201,2.3979,2.4958,2.5394,2.5902,2.6477,2.6477,2.5952,2.5078,2.4643,2.3597,2.2297,0.0,2.1945,2.1669,2.2221,2.4381,2.7268,2.9302,3.1336,3.347,3.6182,3.8592,4.0978,4.3689,4.5547,4.7205,4.9339,5.0645,5.1122,4.9992,4.8309,4.605,4.2766,3.9572,3.6157,3.1938,3.0457,2.9352,2.7419,2.8499,3.0608,3.3445,3.5429,3.8492,4.3865,4.4744,4.605,4.9314,4.9766,5.0067,5.0695,5.0745,5.1147,5.2151,5.2226,5.2226,5.2226,5.2678,5.2854,5.2703,5.2703,5.2176,5.1071,5.0092,4.959,4.959,4.959,4.9339,4.8887,4.8736,4.8134,4.723,4.7079,4.6451,4.5497,4.5573,4.4895,4.3815,4.389,4.3539,4.2861,4.1831,4.1401,4.125,0.0,0.0,0.0,0.0,0.0,0.0,0.0,0.0,0.0,0.0,1.8151,1.876,0.0,0.0,0.0,0.0,0.0,0.0,0.0,0.0,0.0,1.8035,1.8234,1.8748,1.964,1.9838,1.9962,1.9962,2.0137,2.0288,2.0388,2.0489,2.0891,2.1518,2.0913,2.1176,2.2063,2.2063,2.2262,2.2549,2.268,2.2573,2.2272,2.1794,0.0,0.0,2.2769,2.3923,2.5862,2.9779,3.3746,3.7412,3.9747,4.2308,4.4945,4.723,4.8435,4.9414,5.1197,5.1825,5.1699,5.0569,4.8008,4.4895,4.1555,3.7236,3.3068,2.998,2.7821,2.6339,2.5963,2.7645,3.0131,3.337,3.6056,3.9346,4.3966,4.5422,4.7079,0.0,5.0695,5.1373,5.2402,5.2503,0.0,5.2779,5.2779,5.2779,5.2779,5.2879,5.2503,5.1599,5.1574,5.1021,4.9891,4.969,4.959,4.959,4.959,4.954,4.9414,4.8485,4.7958,4.7732,4.6828,4.6075,4.5522,4.5974,4.5221,4.384,4.4292,4.3865,4.2911,4.2313,4.2062,4.1932,0.0,0.0,0.0,0.0,0.0,0.0,0.0,1.69,1.7063,1.7659,1.8151,1.8607,1.8874,1.8893,1.8703,0.0,0.0,0.0,0.0,0.0,0.0,0.0,1.8601,1.9345,1.984,2.0463,2.0792,2.0792,0.0,2.0321,2.0295,1.994,2.0112,2.0691,2.0261,2.0538,2.1272,2.1272,2.1418,2.1722,2.1852,2.1719,2.1468,0.0,0.0,0.0,0.0,2.3772,2.5686,2.8674,3.2616,3.6985,4.0953,4.3714,4.5974,4.846,4.9389,5.0017,5.2,5.2327,5.1774,5.0343,4.7054,4.3237,3.9597,3.4926,3.0583,2.777,2.6138,2.5109,2.4833,2.6565,2.8875,3.1361,3.3571,3.6734,4.1781,4.3438,4.5598,4.9515,5.0745,5.1724,5.2829,5.2929,5.2929,5.2929,5.2929,5.2929,5.2929,5.2653,5.2126,5.1297,5.0996,5.0569,5.0017,4.9741,4.959,4.959,4.959,4.9289,4.8711,4.846,4.7883,4.7054,4.6828,4.6426,4.5949,4.62,4.5497,4.4242,4.4518,4.394,4.2911,4.2414,4.2213,4.2137,0.0,0.0,0.0,0.0,0.0,0.0,0.0,1.6774,1.6795,1.7632,1.7953,1.8249,1.8684,1.893,1.9024,0.0,0.0,0.0,0.0,0.0,0.0,0.0,0.0,0.0,0.0,0.0,0.0,2.171,2.1088,0.0,0.0,0.0,0.0,0.0,2.0515,2.0817,2.1345,2.1345,2.1368,0.0,0.0,2.1094,0.0,0.0,0.0,0.0,0.0,2.3602,2.536,2.7293,3.0331,3.4198,3.927,4.2735,4.5422,4.7832,4.8962,4.9891,5.2,5.2427,5.1825,4.9891,4.6075,4.1756,3.7764,3.2918,2.8524,2.5963,2.4908,2.4374,2.4205,2.5686,2.7595,2.9628,3.1135,3.3947,3.9396,4.1204,4.379,4.8661,5.0343,0.0,5.2804,5.2929,0.0,5.2929,5.2829,5.2754,5.2754,5.2352,5.18,5.1122,5.0645,5.0368,5.0243,4.9816,4.959,4.959,4.9464,4.8962,4.8109,4.8435,4.7807,4.6527,4.7054,4.6928,4.6326,4.6451,4.5748,4.4618,4.4618,4.394,4.2911,4.2414,4.2288,4.2313,0.0,0.0,0.0,0.0,0.0,0.0,0.0,1.6543,1.6543,1.6625,1.7517,1.8112,1.8171,1.9043,1.9424,0.0,0.0,0.0,0.0,0.0,0.0,0.0,0.0,0.0,0.0,0.0,0.0,2.171,2.1088,0.0,0.0,0.0,0.0,0.0,0.0,2.0188,2.0767,2.0767,0.0,0.0,0.0,0.0,0.0,0.0,0.0,0.0,0.0,2.317,2.3747,2.6465,2.7971,2.9327,3.2867,3.8216,4.3463,4.4719,4.6878,4.9213,5.0971,5.2126,5.2201,4.9515,4.5581,4.1157,3.6734,3.1461,2.7017,2.5259,2.3998,2.3572,2.4525,2.5285,2.6791,3.0005,3.106,3.3244,3.8316,4.04,4.3006,4.7531,0.0,0.0,5.2779,5.2929,5.2929,5.2929,5.2477,5.2176,5.2176,5.2126,5.1599,5.0519,5.0444,5.0167,4.9665,4.9615,4.959,4.959,4.9088,4.8786,4.8686,4.8209,4.7657,4.7079,4.7606,4.7255,4.6351,4.6853,4.61,4.4618,4.4618,4.394,4.2911,4.2414,4.2539,4.2866,0.0,0.0,0.0,0.0,0.0,0.0,1.7021,1.671,1.6603,1.6942,1.7353,1.7854,1.8502,1.8968,1.9277,1.9369,0.0,0.0,0.0,0.0,0.0,0.0,0.0,0.0,0.0,0.0,2.2688,2.23,2.2044,0.0,0.0,0.0,0.0,0.0,0.0,1.9936,2.0137,2.0137,0.0,0.0,0.0,0.0,0.0,0.0,0.0,0.0,0.0,0.0,2.2908,2.4844,2.5813,2.6535,2.8759,3.2058,3.6029,4.0757,4.3865,4.6351,4.9038,5.0569,5.0896,4.8786,4.4443,3.9772,3.6358,3.1075,2.6449,2.5084,2.3898,2.3346,2.418,2.4757,2.5887,2.8222,2.8775,3.0432,3.4821,3.6533,3.9371,4.4794,4.7205,4.949,0.0,0.0,5.2929,5.2929,5.2427,5.195,5.1624,5.1272,5.072,4.9941,4.9916,4.9816,4.959,4.959,4.959,4.959,4.9038,4.8761,4.8761,4.8184,4.7631,4.7093,4.7355,4.7004,4.6326,4.6552,4.5849,4.4618,4.4618,4.394,4.2961,4.2791,4.2841,4.2936,0.0,0.0,0.0,0.0,0.0,1.7673,1.7146,1.6731,1.6625,1.7001,1.7188,1.7598,1.8327,1.8588,1.8817,1.9173,1.8521,0.0,0.0,0.0,0.0,0.0,0.0,0.0,0.0,0.0,2.3363,2.2936,2.2746,2.211,0.0,0.0,2.0425,1.9811,0.0,0.0,0.0,0.0,0.0,0.0,0.0,0.0,0.0,0.0,0.0,0.0,0.0,0.0,0.0,0.0,0.0,2.4965,2.6328,2.7813,3.0299,3.6539,4.023,4.2986,4.5999,4.8109,4.8962,4.6954,4.2936,3.8592,3.5328,3.0421,2.6122,2.4833,2.3772,2.3271,2.3904,2.4456,2.531,2.6826,2.7318,2.8775,3.2315,3.3922,3.6684,4.1957,0.0,4.7029,5.0519,5.2126,5.2854,5.2703,5.2176,5.1624,5.1046,5.0494,4.9992,4.9615,4.959,4.959,4.959,4.959,4.959,4.959,4.8862,4.851,4.8485,4.7933,4.738,4.6903,4.723,4.6954,4.6301,4.6301,4.5648,4.4593,4.4443,4.3815,4.2986,4.2986,4.2986,4.2986,0.0,0.0,0.0,0.0,0.0,0.0,1.6607,1.65,1.65,1.6522,1.6985,1.7312,1.7333,1.7773,1.8112,1.8112,1.8112,0.0,0.0,0.0,0.0,0.0,0.0,0.0,0.0,0.0,2.3577,2.3474,2.2895,2.2251,2.1589,2.0986,2.039,1.9811,0.0,0.0,0.0,0.0,0.0,0.0,0.0,0.0,0.0,0.0,0.0,0.0,0.0,0.0,0.0,0.0,0.0,0.0,0.0,2.6593,2.788,3.2135,3.6044,3.9472,4.1685,4.4644,4.6502,4.3714,4.0927,3.7713,3.3269,2.9252,2.6021,2.4356,2.3521,2.3271,2.3904,2.4456,2.5184,2.6323,2.7394,2.9076,3.1838,3.3671,3.5956,0.0,4.1257,4.3771,4.7581,5.0971,5.2703,5.2151,5.1599,5.1046,5.0469,4.9891,4.9615,4.959,4.959,4.959,4.959,4.959,4.959,4.959,4.846,4.7908,4.7908,4.738,4.6853,4.6376,4.7431,4.7305,4.6301,4.6301,4.5648,4.4568,4.4016,4.3463,4.2986,4.2986,4.2986,4.2986,0.0,0.0,0.0,0.0,0.0,0.0,0.0,1.6731,1.65,1.65,1.6646,1.69,1.725,1.7456,1.7693,1.8052,1.7753,0.0,0.0,0.0,0.0,0.0,0.0,0.0,0.0,0.0,2.3376,2.2871,2.3114,2.2895,2.23,2.211,2.1916,2.1753,2.0854,2.0472,0.0,0.0,0.0,0.0,0.0,0.0,0.0,0.0,0.0,0.0,0.0,0.0,0.0,0.0,0.0,0.0,0.0,0.0,0.0,2.8152,3.2147,3.5981,3.7281,3.9521,4.0902,3.8492,3.6383,3.4048,3.0733,2.7846,2.5544,2.4255,2.3521,2.3271,2.3904,2.4456,2.5402,2.7293,2.8524,2.9804,3.1436,3.4073,3.7086,4.0425,4.5623,4.959,5.1172,5.1975,5.2302,5.2126,5.1222,5.0619,5.0419,4.9891,4.959,4.959,4.959,4.959,4.959,4.959,4.959,4.959,4.8435,4.8309,4.9012,4.733,4.6878,4.738,4.6979,4.6627,4.6301,4.6301,4.5648,4.4593,4.4443,4.379,4.2986,4.2986,4.2986,4.2986,0.0,0.0,0.0,0.0,0.0,0.0,0.0,1.6837,1.65,1.65,1.65,1.6625,1.6964,1.698,1.7126,1.7476,1.7188,0.0,0.0,0.0,0.0,0.0,0.0,0.0,2.1874,2.3015,2.3515,2.3304,2.3953,2.394,2.3312,2.3571,2.3338,2.2647,2.1871,2.1377,0.0,0.0,0.0,0.0,0.0,0.0,2.1476,0.0,0.0,0.0,0.0,0.0,0.0,0.0,0.0,0.0,0.0,0.0,0.0,0.0,2.9046,3.1465,3.2668,3.4675,3.5931,3.4079,3.2767,0.0,2.8574,2.659,2.4983,2.3904,2.3346,2.3221,2.3572,2.4274,2.5227,2.664,2.8147,2.9603,3.0909,3.3947,3.7513,4.148,4.7029,5.067,5.0996,5.1674,5.1925,5.1498,5.0619,5.0117,5.0117,4.9364,4.9063,4.9264,4.949,4.959,4.959,4.959,4.949,4.9264,4.836,4.8184,4.8611,4.7029,4.6677,4.728,4.6602,4.6301,0.0,4.5849,4.5246,4.4593,4.4166,4.3589,4.2986,4.2986,4.2986,4.2936,0.0,0.0,0.0,0.0,0.0,0.0,0.0,1.6942,1.6565,1.6565,1.6522,1.65,1.65,1.65,1.65,1.65,0.0,0.0,0.0,0.0,0.0,0.0,0.0,0.0,2.1751,2.2964,2.3902,2.4492,2.5232,2.5322,2.48,2.541,2.4741,2.3041,2.2908,2.2419,2.171,2.171,2.171,2.171,2.171,2.2086,0.0,0.0,0.0,0.0,0.0,0.0,0.0,0.0,0.0,0.0,0.0,0.0,0.0,0.0,0.0,0.0,0.0,3.008,3.1436,3.0407,2.9779,2.8875,2.6751,2.546,0.0,2.3321,2.3095,2.3145,2.3271,2.4123,2.4901,2.5101,2.6942,2.8925,3.0557,3.3828,3.7865,4.271,4.62,4.8159,4.8033,5.0419,5.1523,5.0444,4.9841,4.9515,4.9464,4.8485,4.8159,4.8686,4.9213,4.9464,4.9464,4.9464,4.9213,4.8711,4.8134,4.7606,4.7179,4.6577,4.6326,4.6376,4.6276,4.625,4.6175,4.507,4.4593,4.4468,4.3438,4.3011,4.2986,4.2986,4.2961,4.2891,0.0,0.0,0.0,0.0,0.0,0.0,0.0,0.0,0.0,0.0,1.6752,1.65,1.65,1.65,1.65,0.0,0.0,0.0,0.0,0.0,0.0,0.0,0.0,0.0,2.0512,2.2534,2.3902,2.4492,2.5693,2.6675,2.751,2.7653,2.7267,2.636,2.4896,2.3295,2.171,2.171,2.171,2.171,2.171,2.2086,0.0,0.0,0.0,0.0,2.1781,2.1267,0.0,0.0,0.0,0.0,0.0,0.0,0.0,0.0,2.4869,2.4704,2.4532,0.0,2.6389,2.5711,2.5762,2.5636,0.0,2.4054,2.3979,2.3246,2.3095,2.3496,2.4782,2.5234,2.6113,2.8273,2.9754,3.106,3.2315,3.7889,4.2936,4.5824,4.9088,5.0619,4.9314,5.0167,5.0519,4.9841,4.9264,4.8761,4.8335,4.8058,4.7958,4.8109,4.8234,4.8309,4.8309,4.8309,4.8234,4.8109,4.7581,4.7456,4.7682,4.6753,4.6552,4.6903,4.605,4.5673,4.5623,4.492,4.4367,4.3966,4.3714,4.3338,4.2986,4.2986,4.271,4.2528,0.0,0.0,0.0,0.0,0.0,0.0,0.0,0.0,0.0,0.0,0.0,0.0,0.0,0.0,0.0,0.0,0.0,0.0,0.0,0.0,0.0,0.0,0.0,2.0202,2.0465,2.2834,2.4535,2.5448,2.6792,2.8108,2.9369,2.9369,2.8737,2.7495,2.5219,2.3606,2.2569,2.2569,2.2569,2.2569,2.2569,0.0,0.0,0.0,0.0,0.0,2.1946,2.1304,0.0,2.1337,2.1091,2.095,0.0,0.0,0.0,0.0,2.4139,2.385,2.3702,2.4202,2.4725,2.4456,2.4607,2.4625,2.4023,2.3722,2.3471,2.317,2.3321,2.3879,2.5034,2.5862,2.7042,2.9076,3.0507,3.2416,3.5374,3.9747,4.3865,4.7104,4.9088,5.0017,4.964,4.964,4.9414,4.8862,4.8335,4.7983,4.7908,4.7431,4.728,4.7556,4.7305,4.7405,4.7908,4.7908,4.7782,4.7556,4.728,4.7154,4.7154,4.6326,4.61,4.6326,4.5472,4.5095,4.5045,4.4493,4.4066,4.379,4.3514,4.3237,4.2986,4.2986,4.269,4.2326,0.0,0.0,0.0,0.0,0.0,0.0,0.0,0.0,0.0,0.0,0.0,0.0,0.0,0.0,0.0,0.0,0.0,0.0,0.0,0.0,0.0,0.0,1.8983,2.0286,2.1089,2.3304,2.5222,2.6776,2.8188,2.9505,3.0672,3.0881,2.9744,2.7495,2.4896,2.3699,2.361,2.361,2.361,2.361,2.361,0.0,0.0,0.0,0.0,0.0,0.0,0.0,0.0,2.1261,2.1395,2.1582,2.276,0.0,0.0,0.0,0.0,0.0,2.4079,2.4705,2.5076,2.475,2.4883,2.5059,2.4926,2.4173,2.3471,2.3471,2.3904,2.4456,2.5151,2.6615,2.8072,2.9352,3.116,3.4048,3.8818,4.1003,4.3457,4.733,4.8008,4.8435,4.9163,4.8862,4.836,4.7707,4.7255,4.7129,4.738,4.6552,4.6276,4.6667,4.6301,4.6527,4.7531,4.7631,4.7405,4.6878,4.6878,4.6602,4.605,4.5573,4.5347,4.5321,4.4744,4.4493,4.4468,4.389,4.3639,4.3514,4.3037,4.2811,4.2735,4.2735,4.2524,4.2322,0.0,0.0,0.0,0.0,0.0,0.0,0.0,0.0,0.0,0.0,0.0,0.0,0.0,0.0,0.0,0.0,0.0,0.0,0.0,0.0,0.0,1.7271,1.8552,2.0098,2.1879,2.3189,2.5022,2.7435,2.9295,3.0612,3.1361,3.2527,3.1091,2.7495,2.5405,2.4126,2.361,2.361,2.361,2.361,2.361,0.0,0.0,0.0,0.0,0.0,0.0,0.0,0.0,2.083,2.0817,2.0945,2.161,0.0,0.0,0.0,0.0,0.0,2.3761,2.5459,2.6465,2.4582,2.5184,2.6122,2.5586,2.5335,2.5209,2.5209,2.5285,2.5812,2.7318,2.8599,3.008,3.2114,3.5002,3.8241,4.1831,4.4192,4.5974,4.7129,4.8485,4.8862,4.7631,4.7832,4.7631,4.6627,4.6476,4.605,4.5171,4.497,4.492,4.4995,4.492,4.5196,4.5849,4.6326,4.6276,4.5748,4.5748,4.5447,4.4869,4.4794,4.4744,4.4719,4.4166,4.3915,4.389,4.3338,4.2891,4.2464,4.2363,4.2007,4.1526,4.1526,4.187,4.2443,0.0,0.0,0.0,0.0,0.0,0.0,0.0,0.0,0.0,0.0,0.0,0.0,0.0,0.0,0.0,0.0,0.0,0.0,0.0,0.0,1.6881,1.7756,1.8601,1.9925,2.1809,2.4087,2.6355,2.8494,3.0593,3.2108,3.3095,3.1928,2.9861,2.6986,2.4956,2.3909,2.361,2.361,2.361,2.361,0.0,0.0,0.0,0.0,0.0,0.0,0.0,0.0,0.0,0.0,2.0893,2.1194,2.1418,0.0,0.0,0.0,0.0,0.0,2.2949,2.4707,2.6214,2.5511,2.6851,2.8122,2.7519,2.7168,2.6942,2.6942,2.7193,2.772,2.8825,3.0407,3.2591,3.5751,3.8241,4.045,4.2338,4.3413,4.4618,4.6075,4.6376,4.6527,4.6677,4.6351,4.5924,4.5447,4.5397,4.5171,4.4644,4.4618,4.4618,4.4618,4.4618,4.4744,4.502,4.5271,4.5422,4.5497,4.5171,4.4895,4.4618,4.4317,4.4192,4.4141,4.3589,4.3187,4.2886,4.269,4.2208,4.1706,4.1706,4.1555,4.1358,4.1746,4.2547,4.3552,0.0,0.0,0.0,0.0,0.0,0.0,0.0,0.0,0.0,0.0,0.0,0.0,0.0,0.0,0.0,0.0,0.0,0.0,0.0,0.0,1.7174,1.8154,1.8832,2.0218,2.2412,2.4931,2.737,2.972,3.1366,3.2704,3.3724,3.076,2.8368,2.6512,2.4657,2.3759,2.361,2.361,2.361,2.361,0.0,0.0,0.0,0.0,0.0,0.0,0.0,0.0,0.0,0.0,0.0,0.0,0.0,0.0,0.0,2.1619,2.1794,2.2196,2.2598,2.4029,2.5611,2.6474,2.8083,2.9453,2.9654,2.9176,2.885,2.9352,2.9804,3.0181,3.0507,3.2466,3.5177,3.8693,4.0752,4.2208,4.3011,4.3294,4.3966,4.5673,4.4995,4.4844,4.5999,4.5221,4.4568,4.4443,4.4443,4.4317,4.4066,4.4166,4.4192,4.4041,4.4428,4.4783,4.491,4.4783,4.4839,4.5095,4.4644,4.4367,4.4217,4.379,4.3614,4.3589,4.3037,4.259,4.2213,4.2062,4.163,4.11,4.11,4.1025,4.1062,4.1877,4.3022,4.4235,0.0,0.0,0.0,0.0,0.0,0.0,0.0,0.0,0.0,0.0,0.0,0.0,0.0,0.0,0.0,0.0,0.0,0.0,0.0,0.0,1.7576,1.8179,1.9183,2.1373,2.4874,2.514,2.71,3.0982,3.113,3.1388,3.166,2.9624,2.7919,2.6542,2.5143,2.4186,2.361,2.361,2.361,2.361,2.361,0.0,0.0,0.0,0.0,0.0,0.0,0.0,0.0,0.0,0.0,0.0,0.0,0.0,2.1543,2.1493,2.1546,2.1895,2.3452,2.4381,2.5259,2.6841,2.772,2.8875,3.1411,3.1185,3.1009,3.3068,3.352,3.3395,3.2943,3.5097,3.7663,4.0023,4.2208,4.4192,4.5773,4.6451,4.6828,4.7004,4.6502,4.5974,4.5573,4.4995,4.4418,4.389,4.3865,4.3413,4.2439,4.2811,4.2861,4.2414,4.4054,4.5227,4.5805,4.5253,4.4623,4.3915,4.389,4.3589,4.3087,4.3062,4.3037,4.3011,4.2514,4.2238,4.2162,4.1605,4.1078,4.0576,4.0576,4.0249,3.9952,4.1198,4.2479,4.3748,0.0,0.0,0.0,0.0,0.0,0.0,0.0,0.0,0.0,0.0,0.0,0.0,0.0,0.0,0.0,0.0,0.0,0.0,0.0,1.7599,1.7951,1.9133,1.9259,2.0748,2.3833,2.5131,2.7198,3.0099,3.0825,3.0863,3.0283,2.8697,2.7495,2.6542,2.5202,2.4455,2.4216,2.4216,2.3999,2.364,2.4036,2.3969,0.0,0.0,0.0,0.0,0.0,0.0,0.0,0.0,2.0188,2.0742,2.1094,2.1345,2.1568,2.1895,2.1769,2.1694,2.2673,2.4356,2.6063,2.7077,2.8222,2.9704,3.1738,3.2925,3.3978,3.5203,3.6282,3.681,3.6232,3.7287,3.8969,4.1178,4.2811,4.4392,4.6075,4.5874,4.5698,4.6075,4.5296,4.4669,4.4468,4.3614,4.3011,4.2785,4.2459,4.2082,4.1681,4.2158,4.2208,4.1656,4.3851,4.4942,4.4863,4.539,4.5546,4.5209,4.3896,4.3187,4.2986,4.2986,4.2986,4.2992,4.3262,4.3174,4.2759,4.2242,4.1672,4.1104,4.0284,3.9873,3.9826,4.1119,4.1887,4.2593,0.0,0.0,0.0,0.0,0.0,0.0,0.0,0.0,0.0,0.0,0.0,0.0,0.0,0.0,0.0,0.0,0.0,0.0,1.8429,1.7953,1.8279,1.9736,1.9459,2.0362,2.2794,2.4245,2.6112,2.8444,2.9532,2.9783,2.9235,2.7914,2.7165,2.6866,2.5501,2.4903,2.4903,2.4903,2.4515,2.3969,2.4634,2.4515,0.0,0.0,0.0,0.0,0.0,0.0,0.0,0.0,2.0244,2.0541,2.1295,2.1493,2.1594,2.2146,2.2171,2.2096,2.2443,2.4104,2.5971,2.7017,2.8398,3.0181,3.2649,3.4279,3.5759,3.7588,3.8442,3.8995,3.932,3.912,3.9675,4.2121,4.324,4.4267,4.5598,4.5121,4.4644,4.4694,4.4016,4.3413,4.3062,4.2333,4.1907,4.1907,4.1555,4.12,4.105,4.1605,4.1656,4.105,4.328,4.4309,4.3966,4.52,4.5967,4.616,4.4441,4.3579,4.3322,4.3813,4.3836,4.3661,4.3993,4.4057,4.3817,4.3041,4.2529,4.2084,4.0794,4.0541,4.0995,4.1419,4.1838,4.2447,0.0,0.0,0.0,0.0,0.0,0.0,0.0,0.0,0.0,0.0,0.0,0.0,0.0,0.0,0.0,0.0,0.0,0.0,1.8982,1.8481,1.8681,1.9761,1.9786,2.0589,2.2246,2.2297,2.3581,2.6188,2.7117,2.7905,2.8547,2.723,2.6956,2.7525,2.6213,2.5615,2.5615,2.5615,2.5202,2.4664,2.5322,2.5202,2.4582,0.0,0.0,0.0,0.0,0.0,0.0,0.0,2.0346,2.0012,2.1142,2.1493,2.1594,2.2146,2.2669,2.3095,2.312,2.3547,2.4556,2.6766,2.8147,3.0091,3.453,3.5107,3.5959,4.0398,4.0049,3.9601,4.1974,4.049,3.9855,4.2709,4.3541,4.3991,4.4543,4.4593,4.4192,4.3112,4.2961,4.2534,4.1401,4.1275,4.1275,4.1275,4.1275,4.1025,4.0551,4.0974,4.1025,4.0526,4.2372,4.3409,4.3409,4.4652,4.5652,4.6283,4.5476,4.4776,4.4177,4.5499,4.5695,4.4996,4.4543,4.4698,4.5188,4.4001,4.3504,4.3361,4.2084,4.235,4.3313,4.2084,4.2398,4.3504,0.0,0.0,0.0,0.0,0.0,0.0,0.0,0.0,0.0,0.0,0.0,0.0,0.0,0.0,0.0,0.0,0.0,0.0,1.8982,1.8857,1.9058,1.9761,1.9459,1.966,2.0539,2.1016,2.2459,2.4913,2.5689,2.6445,2.72,2.7285,2.7405,2.7585,2.7195,2.6722,2.6303,2.6303,2.5621,2.4583,2.5247,2.513,2.4583,0.0,0.0,0.0,0.0,0.0,0.0,0.0,0.0,0.0,2.1281,2.1744,2.2171,2.2694,2.297,2.3195,2.3627,2.5008,2.6741,2.8599,3.1035,3.3702,3.6609,3.7161,3.8191,4.2233,4.1756,4.0933,4.2042,4.1016,4.0583,4.222,4.2583,4.2961,4.3915,4.3363,4.276,4.2489,4.2057,4.1652,4.1326,4.0924,4.0752,4.0752,4.04,4.0124,3.9948,4.045,4.0501,3.9948,4.2164,4.3224,4.2827,4.4075,4.4844,4.5038,4.5664,4.5853,4.5472,4.5418,4.5258,4.5091,4.5461,4.577,4.5837,4.4168,4.2978,4.2035,4.0743,4.1019,4.2133,4.1739,4.2398,4.3504,0.0,0.0,0.0,0.0,0.0,0.0,0.0,0.0,0.0,0.0,0.0,0.0,0.0,0.0,0.0,0.0,0.0,0.0,0.0,1.8807,1.9032,1.9761,1.9284,1.9233,1.9786,2.0194,2.1326,2.3283,2.4521,2.548,2.6204,2.7697,2.8207,2.7915,2.8234,2.8034,2.738,2.7136,2.6352,2.5399,2.6067,2.595,2.5399,0.0,0.0,0.0,0.0,0.0,0.0,0.0,0.0,0.0,2.1109,2.1393,2.182,2.2543,2.292,2.3321,2.4356,2.6088,2.8122,3.0231,3.2767,3.5403,3.8065,3.9346,4.0701,4.3263,4.2484,4.1717,4.2994,4.1577,4.0683,4.2358,4.2185,4.2057,4.2735,4.2258,4.1756,4.153,4.1204,4.0874,4.0701,4.0375,4.0199,4.0199,3.9873,3.9697,3.9697,3.9998,4.0049,3.9697,4.1158,4.1801,4.1438,4.269,4.3487,4.3781,4.4788,4.5324,4.5465,4.6079,4.5954,4.5172,4.5436,4.5374,4.5025,4.3403,4.2593,4.223,4.0945,4.1219,4.2301,4.1789,4.2084,4.2738,0.0,0.0,0.0,0.0,0.0,0.0,0.0,0.0,0.0,0.0,0.0,0.0,0.0,0.0,0.0,0.0,0.0,0.0,0.0,0.0,1.8731,1.9761,1.9334,1.9334,1.9863,1.9914,2.0476,2.1692,2.3585,2.4837,2.5529,2.816,2.8983,2.8337,2.9123,2.9122,2.8457,2.7854,2.7205,2.6648,2.7245,2.7126,2.6589,2.6589,0.0,0.0,0.0,0.0,0.0,0.0,0.0,0.0,2.0807,2.0874,2.1125,2.202,2.2719,2.3521,2.5159,2.6816,2.88,3.1662,3.3822,3.6056,3.9145,4.1379,4.2986,4.3539,4.2459,4.2059,4.4248,4.2029,4.0565,4.2658,4.2078,4.1275,4.1225,4.12,4.1,4.0501,4.045,4.0249,3.9747,3.9697,3.9697,3.9697,3.9697,3.9697,3.9697,3.9697,3.9697,3.9697,3.9697,3.9697,3.9697,4.0844,4.1731,4.2332,4.3009,4.3636,4.4332,4.6741,4.6848,4.5106,4.4602,4.4049,4.3409,4.2133,4.2252,4.3218,4.1936,4.223,4.317,4.2035,4.164,4.1739,0.0,0.0,0.0,0.0,0.0,0.0,0.0,0.0,0.0,0.0,0.0,0.0,0.0,0.0,0.0,0.0,0.0,0.0,0.0,0.0,1.9108,1.9786,1.9685,1.994,2.0572,2.0572,2.1186,2.2376,2.2822,2.3822,2.53,2.6946,2.7655,2.7564,2.8279,2.8284,2.7824,2.7675,2.7166,2.6533,2.6678,2.6649,2.6504,2.6504,2.6369,0.0,0.0,0.0,0.0,0.0,0.0,0.0,2.1609,2.2032,2.2674,2.2391,2.3025,2.4079,2.5259,2.6816,2.8976,3.2616,3.6433,3.9572,4.0674,4.13,4.1856,4.2384,4.2288,4.2167,4.2696,4.1796,4.1106,4.1653,4.149,4.1125,4.0752,4.0701,4.0501,3.9948,3.9873,3.9823,3.9697,3.9697,3.9697,3.9697,3.9697,3.9697,3.9697,3.9697,3.9697,3.9697,3.9697,3.9697,3.9697,3.9981,4.0185,4.0363,4.1471,4.2088,4.227,4.384,4.4302,4.389,4.3752,4.3614,4.3409,4.2133,4.1739,4.1887,4.0592,4.0895,4.1985,4.169,4.223,4.293,0.0,0.0,0.0,0.0,0.0,0.0,0.0,0.0,0.0,0.0,0.0,0.0,0.0,0.0,0.0,0.0,0.0,0.0,0.0,0.0,1.9233,1.9786,1.9811,1.994,2.0295,2.0604,2.1173,2.2062,2.2343,2.3214,2.4738,2.6998,2.7943,2.7795,2.8739,2.8939,2.8513,2.7854,2.7382,2.7074,2.7352,2.7276,2.7074,2.7352,2.7116,2.6542,2.6183,0.0,0.0,0.0,0.0,0.0,0.0,0.0,2.2564,2.2754,2.2991,2.3616,2.5509,2.7218,2.9628,3.4299,3.7814,4.0275,4.0774,4.0953,4.1028,4.1304,4.158,4.1756,4.1756,4.1304,4.0953,4.0953,4.0727,4.045,4.0174,4.0124,4.0023,3.9722,3.9697,3.9697,3.9697,3.9446,3.9295,3.9295,3.9044,3.8994,3.927,3.9295,3.9421,3.9697,3.9697,3.9697,3.9697,3.9697,3.9697,3.9697,4.0364,4.0693,4.0743,4.2035,4.2593,4.2544,4.1936,4.169,4.164,4.0995,4.0693,4.0592,3.9981,4.0134,4.0693,4.0693,4.1119,4.1591,0.0,0.0,0.0,0.0,0.0,0.0,0.0,0.0,0.0,0.0,0.0,0.0,0.0,0.0,0.0,0.0,0.0,0.0,0.0,0.0,0.0,1.9786,1.9811,1.9836,1.9936,2.044,2.1018,2.1619,2.2096,2.3068,2.4558,2.7073,2.8165,2.7996,2.9059,2.9377,2.8985,2.8013,2.7585,2.7635,2.8247,2.8125,2.766,2.8271,2.7789,2.6752,2.6632,2.6243,2.5604,2.4429,0.0,0.0,0.0,0.0,2.2318,2.2963,2.285,2.3102,2.5532,2.7745,3.0557,3.5529,3.8015,3.9396,3.9948,4.0074,4.0074,4.0074,4.0601,4.1,4.1,4.0676,4.0375,4.0375,3.9998,3.9697,3.9697,3.9697,3.9697,3.9697,3.9697,3.9647,3.9572,3.9145,3.8869,3.8718,3.8266,3.8216,3.8693,3.8969,3.9272,3.9677,3.9931,4.0058,4.016,4.016,4.0211,4.0364,4.0364,4.0211,4.0083,4.1119,4.1468,4.1219,4.0185,3.9697,3.9697,3.9697,3.9697,3.9697,3.9697,3.9697,3.9697,3.9697,3.9697,3.9697,0.0,0.0,0.0,0.0,0.0,0.0,0.0,0.0,0.0,0.0,0.0,0.0,0.0,0.0,0.0,0.0,0.0,0.0,2.0525,0.0,0.0,1.9811,1.9811,2.0037,2.0566,2.0641,2.1194,2.2196,2.2243,2.3638,2.6156,2.563,2.5897,2.6908,2.7261,2.7229,2.6941,2.7391,2.7585,2.7635,2.8247,2.8125,2.766,2.8271,2.807,2.7375,2.6836,2.6542,2.6363,2.561,2.5348,0.0,0.0,0.0,2.3922,2.2831,2.2824,2.3469,2.4697,2.7996,3.1712,3.4374,3.6307,3.7663,3.8216,3.8341,3.8341,3.8341,3.9195,3.9923,3.9923,3.9848,3.9798,3.9798,3.9747,3.9697,3.9697,3.9697,3.9697,3.9697,3.9697,3.9496,3.9019,3.8969,3.8668,3.8165,3.804,3.804,3.8115,3.912,3.9699,3.9778,4.0723,4.1529,4.212,4.212,4.2412,4.2978,4.2978,4.2398,4.1369,4.1492,4.0969,3.9929,3.98,3.9697,3.9697,3.9697,3.9697,3.9697,3.9697,3.9697,3.9697,3.9697,3.9697,3.9697,0.0,0.0,0.0,0.0,0.0,0.0,0.0,0.0,0.0,0.0,0.0,0.0,0.0,0.0,0.0,2.0582,2.0819,2.0881,2.0803,2.0192,1.9811,1.9811,1.9811,1.9911,2.0189,2.122,2.1783,2.1845,2.2911,2.4494,2.6474,2.5996,2.6969,2.9075,2.8485,2.8314,2.8369,2.7692,2.7499,2.7635,2.8247,2.7911,2.715,2.8148,2.7887,2.7046,2.7136,2.7165,2.7076,2.6393,2.6153,2.5926,2.4627,0.0,0.0,0.0,2.3466,2.371,2.53,2.7595,3.0231,3.3093,3.4575,3.573,3.7211,3.7312,3.7262,3.7889,3.8165,3.8391,3.8693,3.8743,3.8843,3.917,3.922,3.9346,3.9647,3.9697,3.9697,3.9697,3.9697,3.9471,3.8919,3.8567,3.814,3.7588,3.7262,3.7523,3.8427,3.8998,3.9741,4.0715,4.1242,4.1654,4.1929,4.1929,4.2279,4.2959,4.2959,4.2841,4.2641,4.1936,4.0895,3.9697,3.9697,3.9697,3.9697,3.9697,3.9697,3.9697,3.9697,3.9697,3.9697,3.9697,3.9697,3.9697,0.0,0.0,0.0,0.0,0.0,0.0,0.0,0.0,0.0,0.0,0.0,0.0,0.0,0.0,0.0,0.0,2.1562,2.1693,2.1062,2.027,1.9861,2.0012,2.0012,2.0242,2.0704,2.2086,2.2691,2.2489,2.3686,2.5235,2.6985,2.6804,2.8293,3.1059,2.9907,2.9288,2.9016,2.7908,2.7531,2.7747,2.7887,2.74,2.6705,2.781,2.7575,2.6716,2.7375,2.7585,2.7525,2.7016,2.6866,2.6632,2.5495,2.5113,0.0,0.0,0.0,2.3522,2.5351,2.664,2.8122,3.0949,3.234,3.352,3.5303,3.573,3.5981,3.6784,3.6734,3.6684,3.7111,3.7638,3.814,3.8567,3.8642,3.8793,3.9195,3.927,3.927,3.927,3.927,3.9044,3.8492,3.804,3.7563,3.701,3.6631,3.7075,3.8602,3.8971,3.9888,4.1497,4.1835,4.2024,4.2193,4.2378,4.2801,4.3494,4.3494,4.3666,4.3929,4.2978,4.169,4.0185,3.9826,3.9697,3.9697,3.9697,3.9697,3.9697,3.9697,3.9697,3.9697,3.9697,3.9697,3.9697,0.0,0.0,0.0,0.0,0.0,0.0,0.0,0.0,0.0,0.0,0.0,0.0,1.8997,1.9488,2.0348,2.1535,2.2258,2.2359,2.1679,2.0496,2.0063,2.0616,2.0641,0.0,2.3168,2.3303,2.3982,2.519,2.4597,2.5665,2.8281,2.7605,2.8737,3.1357,3.039,2.8795,2.6929,2.7515,2.7891,2.7967,2.6925,2.6531,2.6645,2.7311,2.717,2.6716,2.7375,2.7585,2.7585,2.7555,2.7555,2.7435,2.6716,2.6482,2.612,0.0,0.0,0.0,2.3809,2.4908,2.6013,2.7268,2.9202,3.0934,3.1562,3.2893,3.4048,3.4098,3.45,3.4851,3.4901,3.6609,3.8015,3.804,3.804,3.8065,3.809,3.809,3.809,3.809,3.809,3.7889,3.7337,3.7236,3.6985,3.648,3.643,3.6896,3.8069,3.9237,4.0374,4.1548,4.2637,4.3518,4.4143,4.481,4.5466,4.6079,4.6079,4.5814,4.5298,4.5207,4.3834,4.1419,4.0211,3.9697,3.9697,3.9697,3.9697,3.9697,3.9697,3.9697,3.9697,3.9697,3.9697,3.9697,0.0,0.0,0.0,0.0,0.0,0.0,0.0,0.0,0.0,0.0,0.0,0.0,0.0,1.9581,2.0288,2.1052,2.1666,2.1903,2.1651,2.1171,2.0815,2.0691,2.0691,2.1244,2.2353,2.3176,2.3983,2.4803,2.5409,2.6063,2.679,2.6888,2.7378,2.8284,2.8997,2.8939,2.8245,2.7444,2.7216,2.7333,2.6552,2.6038,2.5724,2.604,2.5962,2.5836,2.7084,2.7769,2.8059,2.8211,2.8218,2.8038,2.6931,2.6602,2.6209,2.4193,2.3608,2.347,2.3048,2.3728,2.4833,2.5912,2.7344,2.88,3.008,3.111,3.1989,3.2667,3.2968,3.3219,3.3596,3.4901,3.6132,3.6835,3.696,3.7186,3.7914,3.8015,3.8015,3.8015,3.7688,3.7262,3.6757,3.6332,3.5906,3.5353,3.5303,3.627,3.8559,3.9063,4.0365,4.2629,4.3061,4.3409,4.3648,4.3888,4.4377,4.5035,4.5454,4.5781,4.5931,4.5605,4.4886,4.3929,4.1838,4.0465,3.9697,3.9697,3.9697,3.9697,3.9697,3.9697,3.9697,3.9697,3.9697,3.9697,0.0,0.0,0.0,0.0,0.0,0.0,0.0,0.0,0.0,2.0902,0.0,0.0,0.0,0.0,2.1042,2.1623,2.1788,2.1878,2.1878,2.1652,2.1418,2.1245,2.1069,2.1608,2.2962,2.365,2.4481,2.5548,2.6189,2.6413,2.6276,2.6395,2.655,2.6801,2.7494,2.8083,2.8505,2.7584,2.7164,2.7097,2.5966,2.562,2.5765,2.5878,2.5959,2.6235,2.7769,2.8426,2.8569,2.861,2.8607,2.8397,2.7315,2.6629,2.6046,2.4904,2.4286,2.385,2.3177,2.3335,2.3879,2.4582,2.5611,2.6741,2.7871,2.8825,2.9804,3.0884,3.126,3.1637,3.2365,3.3119,3.4022,3.5374,3.568,3.6056,3.681,3.691,3.691,3.691,3.6584,3.6348,3.6361,3.5978,3.5801,3.5745,3.5763,3.6767,3.9075,3.9186,4.0277,4.2593,4.288,4.3,4.3,4.32,4.3618,4.4317,4.4766,4.5334,4.595,4.5771,4.5459,4.501,4.3515,4.1936,4.0313,3.9878,3.9697,3.9697,3.9697,3.9697,3.9697,3.9697,3.9697,3.9697,0.0,0.0,0.0,0.0,0.0,0.0,0.0,0.0,2.3204,2.16,0.0,0.0,0.0,0.0,0.0,2.3303,2.2778,2.2402,2.2402,2.1854,2.1769,2.2297,2.1794,2.2732,2.5329,2.4803,2.5493,2.756,2.6867,2.6635,2.6919,2.6192,2.6375,2.7168,2.6088,2.6239,2.7329,2.7821,2.7854,2.7387,2.5074,2.5255,2.693,2.6876,2.7227,2.7888,2.9341,2.9535,2.9086,2.8766,2.867,2.8547,2.7854,2.671,2.5737,2.6294,2.5024,2.3568,0.0,0.0,0.0,2.31,2.3954,2.4782,2.4782,2.6063,2.7544,2.8562,2.9302,3.003,3.106,3.1286,3.1863,3.3495,3.4274,3.4675,3.4655,3.468,3.468,3.468,3.47,3.5124,3.6149,3.6253,3.6727,3.7799,3.7882,3.8378,3.9527,3.9635,4.0217,4.1384,4.2051,4.241,4.241,4.3,4.3618,4.4287,4.4317,4.4646,4.5274,4.5963,4.5591,4.4467,4.5072,4.392,4.1538,4.0287,3.9724,3.9749,3.9724,3.9672,3.9697,3.9697,3.9697,3.9697,0.0,0.0,0.0,0.0,0.0,0.0,2.1812,2.2394,2.2491,0.0,0.0,0.0,2.1327,2.1559,2.1829,2.1995,2.2214,2.2328,2.2328,2.2535,2.2543,2.2322,2.2171,2.2937,2.4693,2.4581,2.5284,2.6785,2.6575,2.602,2.5047,2.5236,2.5392,2.5536,2.6013,2.6424,2.67,2.6414,2.6703,2.7265,2.5782,2.599,2.7079,2.629,2.6539,2.7515,2.8505,2.9509,3.0331,3.038,3.0543,3.0404,2.8816,2.7365,2.6205,2.5943,2.5372,0.0,2.339,0.0,0.0,0.0,0.0,0.0,2.4895,2.5582,2.6138,2.6465,2.6967,2.763,2.8334,2.9076,2.9905,3.0783,3.239,3.3671,3.4073,3.4474,3.468,3.468,3.4374,3.4539,3.5614,3.5389,3.5583,3.6588,3.6669,3.737,3.8917,4.0217,4.105,4.1384,4.2051,4.241,4.241,4.3,4.3379,4.3559,4.4077,4.4407,4.4616,4.5274,4.5376,4.4997,4.4255,4.3535,4.28,4.116,4.0705,4.0943,3.9626,3.9346,3.9697,3.9697,3.9697,3.9697,0.0,0.0,0.0,0.0,0.0,2.2248,2.2089,2.2696,2.285,0.0,0.0,0.0,2.2178,2.2598,2.2799,2.2548,2.2824,2.3025,2.3025,2.307,2.297,2.2644,2.2418,2.3091,2.4832,2.4637,2.5178,2.6496,2.6496,2.5769,2.4305,2.4856,2.5003,2.4825,2.5485,2.6072,2.6449,2.5871,2.6113,2.6927,2.6248,2.6615,2.757,2.7143,2.7544,2.8495,2.9522,3.0335,3.0949,3.1302,3.1273,3.0793,2.9116,2.8225,2.7612,2.67,0.0,0.0,0.0,0.0,0.0,2.4308,0.0,0.0,2.4782,2.4734,2.4725,2.4924,2.5026,2.531,2.6113,2.6967,2.7828,2.8747,3.065,3.2179,3.2777,3.3119,3.342,3.3646,3.3194,3.353,3.5276,3.4902,3.5155,3.657,3.6977,3.767,3.8998,4.001,4.0576,4.0576,4.1205,4.1722,4.1991,4.2611,4.306,4.329,4.3678,4.3858,4.3928,4.4586,4.4885,4.4844,4.4385,4.4206,4.4078,4.2289,4.1739,4.1877,4.083,4.0772,4.1269,4.1269,4.0945,4.0516,0.0,0.0,2.0345,2.1391,2.1955,2.2454,2.3124,2.3582,2.3498,0.0,2.305,2.3425,2.3281,2.4199,2.4632,2.413,2.4079,2.4054,2.4004,2.3496,2.317,2.3095,2.2644,2.3324,2.5356,2.4859,2.5208,2.6496,2.6416,2.566,2.4305,2.4846,2.4962,2.48,2.4926,2.5536,2.6449,2.5946,2.6021,2.6499,2.6549,2.7253,2.8247,2.8712,2.9277,2.9971,3.1216,3.1377,3.1119,3.1803,3.1505,3.0612,2.9325,2.9265,2.9472,2.8184,2.7771,0.0,0.0,0.0,0.0,0.0,2.5744,0.0,2.483,2.4232,2.3919,2.4202,2.3695,2.3573,2.4659,2.5224,2.5986,2.7387,2.9056,3.0477,3.124,3.1473,3.1685,3.2064,3.1687,3.2349,3.4804,3.4672,3.5195,3.7099,3.7874,3.8542,3.917,3.926,3.932,3.932,4.0008,4.0726,4.1422,4.2081,4.2671,4.329,4.329,4.329,4.3319,4.3928,4.4197,4.4227,4.4825,4.5065,4.4952,4.3316,4.2649,4.2574,4.238,4.2766,4.3393,4.3393,4.2732,4.1789,0.0,0.0,2.1302,2.1476,2.1333,2.1373,2.1934,2.1769,2.1758,2.2411,2.3648,2.4482,2.4481,2.465,2.475,2.465,2.4625,2.4481,2.4029,2.3904,2.3627,2.312,2.2995,2.3709,2.5356,2.5273,2.5629,2.6496,2.5906,2.5161,2.4305,2.4684,2.4835,2.4825,2.5737,2.6298,2.6474,2.6373,2.6399,2.6524,2.6977,2.7795,2.8737,2.8838,2.9277,2.9843,3.0099,3.061,3.1319,3.2506,3.2884,3.2677,3.1331,3.0644,3.0193,2.9442,2.9185,2.9028,0.0,0.0,2.8369,2.7338,2.7822,0.0,2.646,2.6302,2.6263,2.5326,2.4567,2.4282,2.4931,2.4994,2.5394,2.6661,2.8012,2.939,3.0887,3.1902,3.2289,3.1619,3.1461,3.1939,3.3329,3.4044,3.4938,3.6164,3.7114,3.7644,3.7793,3.8302,3.8601,3.8601,3.9768,4.0726,4.1422,4.2081,4.2671,4.329,4.329,4.329,4.329,4.3439,4.3499,4.3499,4.3618,4.3678,4.3648,4.3328,4.3199,4.3076,4.1608,4.17,4.2692,4.2692,4.2901,4.3122,0.0,2.1847,2.1703,2.2229,2.1977,2.1863,2.2438,2.2097,2.1953,2.2456,2.3841,2.4786,2.4818,2.531,2.5511,2.5234,2.5209,2.5084,2.4808,2.4556,2.4249,2.3948,2.4356,2.4962,2.5769,2.6218,2.6462,2.6496,2.6122,2.5577,2.485,2.5192,2.508,2.4617,2.5911,2.6197,2.5686,2.6273,2.665,2.6927,2.7203,2.777,2.8512,2.8787,2.9277,2.9829,3.0105,3.0791,3.1607,3.1654,3.2392,3.3008,3.1424,3.1397,3.1749,3.0432,3.0283,3.0319,2.9273,2.8911,2.8886,2.899,2.8655,0.0,0.0,2.6984,2.6268,2.562,2.472,2.4177,2.48,2.4751,2.5093,2.6425,2.7423,2.8491,2.9838,3.0991,3.1536,3.1007,3.0658,3.0913,3.2149,3.2773,3.3959,3.6084,3.6688,3.7075,3.7404,3.8033,3.8392,3.8392,3.9379,4.0397,4.1422,4.1752,4.2372,4.329,4.329,4.329,4.3329,4.381,4.3771,4.3329,4.3849,4.4043,4.4004,4.3527,4.3618,4.4005,4.2889,4.3272,4.4422,4.4422,4.4436,4.4442,2.3682,2.2884,2.2342,2.3187,2.307,2.29,2.3028,2.2856,2.2773,2.2969,2.414,2.512,2.5403,2.6138,2.66,2.6414,2.5912,2.5737,2.6063,2.5285,2.47,2.4474,2.5512,2.6103,2.6073,2.7115,2.7498,2.7113,2.679,2.6269,2.5605,2.575,2.5323,2.4461,2.5732,2.5912,2.5335,2.6172,2.6826,2.7329,2.7394,2.777,2.8323,2.8838,2.9377,2.9893,3.0517,3.1319,3.1984,3.1017,3.1728,3.2706,3.1082,3.1793,3.2911,3.1278,3.1216,3.1481,3.0582,2.9781,2.9406,3.0245,2.9318,2.8225,0.0,0.0,0.0,2.6206,2.5143,2.4397,2.4954,2.4852,2.5044,2.6208,2.7008,2.7818,2.8684,2.9718,3.0354,3.0172,2.938,2.9387,3.0779,3.1323,3.2874,3.5899,3.6088,3.6357,3.7015,3.7793,3.8212,3.8212,3.899,3.9978,4.1175,4.1324,4.1983,4.315,4.323,4.3409,4.3606,4.4205,4.4282,4.3858,4.432,4.4737,4.4968,4.4004,4.4082,4.4761,4.4297,4.4945,4.6142,4.6142,4.5959,4.5779,2.4542,2.4339,2.4177,2.4173,2.4182,2.3717,2.2366,2.2472,2.3193,2.4531,2.5277,2.6203,2.7587,2.7419,2.7806,2.9202,2.7042,2.6239,2.772,2.5904,2.4349,2.3346,2.5101,2.5918,2.5605,2.737,2.8588,2.9247,2.7826,2.6826,2.627,2.5855,2.5315,2.4785,2.5418,2.6189,2.6967,2.665,2.6826,2.7318,2.7821,2.8348,2.8863,2.9478,2.9729,2.9895,3.0811,3.1753,3.2497,3.236,3.2475,3.2513,3.1695,3.1834,3.2208,3.1977,3.2129,3.2497,3.2916,3.2834,3.2198,3.0678,3.0804,3.0779,2.8799,0.0,2.8769,2.837,0.0,2.6218,2.6275,0.0,0.0,2.5615,2.6666,2.7547,2.7743,2.8901,2.9493,2.899,2.7733,2.7406,2.8618,3.0038,3.1957,3.4526,3.4743,3.5043,3.5699,3.6866,3.7524,3.7524,3.8751,3.9768,4.0516,4.1085,4.1782,4.253,4.306,4.3771,4.4586,4.381,4.4327,4.5782,4.4167,4.4441,4.5961,4.5005,4.4699,4.4699,4.3784,4.4257,4.5394,4.5394,4.6117,4.7062,2.5734,2.5341,0.0,2.5371,2.4615,2.3786,2.3445,2.3777,2.4153,2.4531,2.5524,2.705,2.9311,2.8494,2.8428,3.0142,2.8599,2.757,2.762,2.6465,2.5561,2.5084,2.6311,2.701,2.6929,2.8252,2.8885,2.8876,2.8169,2.7479,2.6762,2.638,2.5788,2.4988,2.5405,2.5686,2.5887,2.6323,2.7002,2.7821,2.8373,2.8687,2.8888,2.885,2.9026,2.9365,3.0126,3.0646,3.0944,3.0577,3.105,3.1684,3.1083,3.1583,3.2444,3.2606,3.2771,3.2949,3.3391,3.3071,3.2403,3.1596,3.0761,3.0062,2.957,2.88,2.8335,2.9041,0.0,0.0,0.0,0.0,0.0,0.0,2.6857,2.6988,2.7026,2.7171,2.7447,2.7967,2.736,2.7309,2.8211,2.9525,3.1168,3.3183,3.4053,3.4623,3.4891,3.6507,3.7404,3.7404,3.8686,3.9738,4.0397,4.1055,4.1752,4.241,4.303,4.381,4.4774,4.4358,4.4624,4.5342,4.4548,4.4631,4.5306,4.432,4.4593,4.5525,4.4548,4.4628,4.5304,4.5304,4.6142,4.7309,2.6773,0.0,0.0,2.6749,2.5867,2.5148,2.5151,2.4872,2.4777,2.5104,2.5848,2.7522,3.0692,2.9561,2.9479,3.1739,3.0342,2.9126,2.8448,2.7505,2.66,2.5845,2.7193,2.7706,2.7257,2.8547,2.8993,2.8479,2.8272,2.7744,2.6976,2.6749,2.6161,2.5247,2.5648,2.5711,2.5561,2.6549,2.7369,2.8172,2.8875,2.9038,2.8838,2.8323,2.8754,2.9707,2.9909,3.024,3.0455,2.9743,3.0097,3.0768,3.0377,3.1036,3.2105,3.276,3.303,3.3256,3.3893,3.3395,3.2605,3.2291,3.0684,2.9352,3.0113,2.8999,2.8139,2.9553,2.9082,0.0,0.0,0.0,0.0,0.0,0.0,2.6836,2.6656,2.6333,2.6431,2.7156,2.7201,2.729,2.7684,2.8761,3.0145,3.1841,3.3036,3.3814,3.4234,3.6088,3.7225,3.7404,3.8686,3.9649,4.0127,4.0786,4.1482,4.2141,4.2761,4.3667,4.4774,4.451,4.4699,4.5153,4.4624,4.4699,4.5116,4.4128,4.4706,4.6138,4.5452,4.5417,4.5788,4.5506,4.6301,4.7377,2.744,2.8072,0.0,2.8364,2.8771,2.8641,2.7223,2.5146,2.4608,2.7085,2.6477,2.7424,3.1705,3.0723,3.124,3.5015,3.2398,3.0758,3.1235,2.9252,2.6866,2.4205,2.6907,2.7472,2.5322,2.7724,2.8979,2.8979,2.8115,2.7426,2.6897,2.6611,2.6181,2.5594,2.6197,2.6751,2.7278,2.7821,2.8072,2.8197,2.9327,2.9428,2.8838,2.8323,2.9607,3.1605,3.0672,3.1299,3.2379,3.1436,3.0545,2.9818,2.9818,3.0033,3.0599,3.2151,3.2839,3.343,3.5023,3.4714,3.3667,3.249,3.0837,2.9631,3.0159,2.96,2.9251,3.0272,3.0432,3.0043,2.8816,0.0,0.0,0.0,0.0,0.0,0.0,2.7136,2.7315,2.6697,2.6831,2.6842,2.6492,2.7426,2.8753,3.044,3.1212,3.2138,3.3455,3.5429,3.6776,3.7375,3.8686,3.9403,3.9403,4.0098,4.0756,4.1452,4.2111,4.3281,4.4774,4.3771,4.4365,4.6032,4.4167,4.4403,4.6067,4.5153,4.5306,4.6208,4.6173,4.6582,4.7002,4.6071,4.6593,4.7555,0.0,0.0,2.9573,2.8702,2.8618,2.8234,2.6799,2.6596,2.7341,2.9419,3.0252,3.216,3.6191,3.5501,3.5357,3.7014,3.5107,3.3276,3.2014,3.0231,2.8624,2.7318,2.7881,2.816,2.7967,2.8425,2.8665,2.8665,2.7994,2.7326,2.6637,2.6535,2.6399,2.6197,2.6399,2.66,2.6826,2.772,2.8097,2.8172,2.8925,2.9327,2.9478,2.9302,2.991,3.0771,3.0232,3.0727,3.1536,3.0582,3.0062,2.9804,2.9804,2.9884,3.0162,3.1336,3.2171,3.3036,3.4187,3.471,3.4666,3.3235,3.207,3.1232,3.0953,3.0344,2.9977,3.0386,3.0492,3.0103,2.8846,0.0,0.0,0.0,0.0,0.0,0.0,2.6806,2.6842,2.6568,2.6186,2.6078,2.6435,2.7201,2.8108,2.9155,3.0644,3.1899,3.2796,3.4741,3.6327,3.7375,3.8272,3.896,3.9373,4.0068,4.0726,4.1384,4.2081,4.3251,4.4774,4.3771,4.4013,4.5227,4.3858,4.3693,4.4251,4.3966,4.475,4.6208,4.6208,4.7391,4.8928,4.7265,4.683,4.6969,2.8507,2.9173,2.9607,2.9635,2.9232,2.8574,2.7566,2.8644,3.0094,3.1706,3.2938,3.5065,3.8767,3.7853,3.7353,3.8492,3.7262,3.5357,3.2968,3.1838,3.0557,2.8963,2.8775,2.8692,2.8662,2.8481,2.8447,2.8554,2.8178,2.7855,2.7549,2.7131,0.0,0.0,2.6977,2.6876,2.66,2.8072,2.8473,2.8172,2.8925,2.9453,2.9804,2.9804,3.0376,3.1101,3.0284,3.0738,3.1499,3.0216,2.9804,2.9804,2.9804,2.9804,2.9972,3.0932,3.1646,3.2379,3.3671,3.4476,3.4758,3.3885,3.3097,3.2474,3.2088,3.1467,3.1092,3.1514,3.139,3.0971,3.0133,0.0,0.0,0.0,0.0,0.0,0.0,2.6956,2.6932,2.6912,2.64,2.6186,2.6472,2.7072,2.7659,2.8196,2.9864,3.112,3.1779,3.3933,3.5729,3.7045,3.7943,3.8721,3.9373,3.9828,4.0487,4.1422,4.1841,4.2848,4.4243,4.3606,4.3654,4.4205,4.3576,4.329,4.329,4.329,4.4441,4.6208,4.6208,4.78,4.9875,4.8024,4.6892,4.6391,2.7058,2.7611,2.8766,3.0955,3.0475,2.9671,2.9469,3.1047,3.2692,3.3897,3.4619,3.6258,3.9544,3.8052,3.7602,3.9569,3.8768,3.6985,3.4248,3.3997,3.2541,2.9239,2.9603,2.9101,2.7494,2.7921,2.8349,2.8788,2.8633,2.8871,0.0,0.0,0.0,0.0,2.7896,2.7519,2.6675,2.885,2.9176,2.8273,2.9352,2.9804,2.9829,2.9882,3.0996,3.2387,3.0876,3.1335,3.2307,3.0419,2.9804,2.9804,2.9804,2.9804,2.9972,3.0857,3.1167,3.1609,3.3429,3.3945,3.41,3.446,3.39,3.3307,3.3509,3.2895,3.255,3.3331,3.3036,3.2587,3.2467,3.0941,0.0,0.0,0.0,0.0,0.0,0.0,2.7615,2.7645,2.7471,2.7102,2.658,2.7014,2.737,2.7594,2.8843,2.9834,3.0462,3.3006,3.5073,3.6387,3.7674,3.8661,3.9313,3.9373,4.0068,4.1422,4.1422,4.2073,4.329,4.329,4.329,4.329,4.329,4.329,4.329,4.329,4.4441,4.6138,4.6173,4.78,4.9905,4.8298,4.693,4.6052,2.7708,2.8573,2.9311,2.9285,2.9396,2.96,2.9934,3.1636,3.3696,3.6031,3.8241,4.0408,4.2504,4.2263,4.1659,4.0949,4.0275,3.8868,3.6483,3.5579,3.4154,3.2089,3.1361,3.0608,2.9779,2.9076,2.9105,2.9936,2.9486,2.9117,2.8921,0.0,0.0,0.0,0.0,2.8097,2.7228,2.9026,2.9628,2.9377,2.9679,3.003,3.0435,3.0725,3.1382,3.1973,3.0495,3.1088,3.2307,3.0419,2.9804,2.9804,2.9804,2.9804,2.9856,3.0101,3.0658,3.1462,3.2629,3.3463,3.4216,3.5023,3.4703,3.4191,3.4231,3.4077,3.3834,3.3573,3.3754,3.3514,3.2019,3.1331,3.0673,0.0,0.0,0.0,0.0,0.0,2.7794,2.8278,2.7854,2.7484,2.7306,2.7454,2.7561,2.7615,2.8843,2.9834,3.0462,3.2557,3.4352,3.5699,3.6985,3.7973,3.8661,3.917,4.0068,4.1422,4.1422,4.2073,4.329,4.329,4.329,4.329,4.329,4.329,4.329,4.329,4.4013,4.5227,4.5957,4.78,5.004,4.946,4.8878,4.8333,2.8019,2.9169,2.9925,2.9186,3.0752,3.1846,3.119,3.2219,3.4117,3.6835,3.9195,4.1053,4.2233,4.2785,4.261,4.1401,4.0774,3.9672,3.7663,3.6734,3.5629,3.4223,3.2616,3.1512,3.0959,2.959,2.9386,3.0411,2.9862,2.9746,2.9976,0.0,0.0,0.0,0.0,2.8828,2.772,2.8925,2.9553,2.9804,2.9804,2.998,0.0,3.0509,3.1029,3.1491,3.0266,3.0733,3.1756,3.0292,2.9804,2.9804,2.9804,2.9804,2.9804,2.9804,3.0177,3.0857,3.2236,3.2982,3.3705,3.5133,3.522,3.4921,3.4921,3.4713,3.4503,3.4382,3.4203,3.3814,3.2976,3.2079,3.1062,0.0,0.0,0.0,0.0,0.0,2.8603,2.8996,2.8723,2.8483,2.8483,2.7944,2.7735,2.8034,2.9022,2.9834,3.0462,3.2407,3.3963,3.5011,3.6866,3.8003,3.8392,3.9649,4.0636,4.1422,4.1722,4.2342,4.329,4.329,4.329,4.329,4.329,4.329,4.329,4.329,4.404,4.539,4.7433,4.9191,5.0646,5.1229,5.0803,4.9932,2.8122,2.9528,3.0507,2.9905,3.2918,3.4806,3.3119,3.3596,3.5027,3.7412,3.9195,4.0375,4.0802,4.163,4.1907,4.1225,4.0802,3.9823,3.8216,3.7588,3.681,3.5658,3.3596,3.2139,3.1512,2.988,2.9513,3.0517,3.0208,3.062,0.0,0.0,0.0,0.0,0.0,0.0,2.8348,2.8712,2.9277,2.9804,2.9804,2.9804,2.9804,2.9804,3.033,3.0932,3.0254,3.0533,3.1082,3.0101,2.9804,2.9804,2.9804,2.9804,2.9804,2.9804,2.9804,3.0177,3.1938,3.2486,3.3045,3.4839,3.5392,3.5519,3.5519,3.504,3.4771,3.537,3.4562,3.3903,3.4414,3.2946,3.1241,0.0,0.0,2.9741,2.9741,2.9651,0.0,0.0,2.9651,0.0,2.9711,2.8603,2.8094,2.8697,2.9325,2.9953,3.0462,3.2407,3.3754,3.4354,3.6896,3.8332,3.8512,4.0337,4.1384,4.1654,4.2171,4.2701,4.329,4.329,4.329,4.329,4.329,4.329,4.329,4.329,4.4191,4.5925,4.9285,5.0787,5.1224,5.2909,5.2502,5.1206,2.8197,2.9804,3.0934,2.9955,3.2616,3.5203,3.6157,3.8341,4.0074,4.0498,4.2057,4.2936,4.2585,4.2363,4.181,4.0752,4.0576,3.9998,3.8793,3.8191,3.7362,3.6304,3.455,3.3119,3.2089,3.0482,3.0101,3.1072,3.1319,3.1557,3.1778,0.0,0.0,0.0,0.0,0.0,2.9478,2.9076,2.9277,2.9804,2.9804,2.9804,2.9804,2.9804,2.9895,3.0139,3.0733,3.1082,3.1082,3.0101,2.9804,2.9804,2.9804,2.9804,2.9804,2.9804,2.9804,3.0024,3.1156,3.1983,3.2841,3.3979,3.4872,3.5519,3.5519,3.54,3.537,3.5489,3.531,3.5011,3.4593,3.3305,3.2049,3.1301,3.0702,3.0342,3.0342,2.9894,2.9801,0.0,2.9894,2.9801,3.0283,2.9654,2.9322,2.9442,2.9983,3.0402,3.0492,3.2407,3.3544,3.3664,3.6207,3.8123,3.923,4.0127,4.1384,4.2961,4.2551,4.2701,4.329,4.329,4.329,4.329,4.329,4.329,4.329,4.329,4.3949,4.5266,4.843,4.9808,5.0323,5.264,5.3315,5.2942,3.111,3.1738,3.2365,3.2717,3.5052,3.7337,3.8693,4.1028,4.2108,4.0676,4.0927,4.1153,4.0877,4.1379,4.1404,4.0576,4.0526,4.0049,3.8994,3.8341,3.7638,3.6883,3.4926,3.352,3.2667,3.0482,2.9707,3.0495,3.0228,3.0389,3.0975,3.1705,0.0,3.0303,0.0,2.9804,2.9779,2.9503,2.9528,2.9804,2.9804,2.9804,2.9804,2.9804,3.0101,3.0582,3.1044,3.1499,3.1792,3.0846,3.0216,2.9804,2.9804,2.9804,2.9804,2.9804,2.9804,3.0011,3.0932,3.1536,3.22,3.3636,3.4346,3.4872,3.5392,3.5519,3.5519,3.5519,3.5519,3.531,3.4623,3.3395,3.2497,3.2527,3.1988,3.1539,3.1539,3.13,3.1091,0.0,0.0,0.0,3.0943,3.0432,3.0073,3.0073,3.0342,3.0672,3.1002,3.2617,3.3484,3.3484,3.6357,3.8242,3.8871,4.0576,4.1893,4.2821,4.2851,4.303,4.329,4.329,4.329,4.329,4.329,4.329,4.3349,4.4077,4.4707,4.5494,4.8098,4.9285,4.9802,5.1879,5.2662,5.2662,3.3997,3.3997,3.4349,3.5633,3.7839,3.9647,4.04,4.2283,4.2886,4.0827,3.9973,3.9573,3.9396,4.045,4.0899,4.04,4.035,3.9923,3.8944,3.8341,3.7764,3.7211,3.5177,3.3771,3.3093,3.0583,2.9453,2.9804,2.9217,2.9443,3.0434,3.1163,0.0,3.0121,2.9859,2.9804,2.9804,3.0011,2.9972,2.9818,3.0011,3.0101,3.0101,3.0101,3.0658,3.1536,3.1719,3.2128,3.2486,3.1756,3.0857,3.0062,2.9856,2.9804,2.9804,2.9804,2.9804,2.9972,3.0696,3.1044,3.1609,3.329,3.3842,3.4245,3.5294,3.5519,3.5519,3.5519,3.5519,3.531,3.4623,3.3634,3.3006,3.3245,3.2976,3.2617,3.2318,3.2407,3.2228,0.0,0.0,0.0,3.1241,3.0941,3.0672,3.0522,3.0642,3.0943,3.1481,3.2766,3.3484,3.3484,3.6686,3.8542,3.8811,4.1212,4.253,4.283,4.315,4.329,4.329,4.329,4.329,4.329,4.329,4.3379,4.3589,4.4796,4.5435,4.5856,4.7976,4.8858,4.9178,5.0932,5.1561,5.1704,3.4625,3.5805,3.6835,3.701,3.9295,4.0924,4.0576,4.1957,4.3137,4.3388,4.2509,4.1656,4.11,4.0802,4.0375,3.9823,3.9772,3.9521,3.8969,3.8341,3.7764,3.7211,3.5554,3.4148,3.3093,3.1361,3.0231,2.9804,3.0084,3.0543,3.1088,3.1198,3.073,2.9819,2.9818,2.9804,2.9856,3.0696,3.0582,2.9856,3.0733,3.1082,3.1082,3.1082,3.1646,3.2558,3.3429,3.3227,3.2593,3.2486,3.1865,3.0932,3.0062,2.9804,2.9804,2.9804,2.9804,2.9818,2.9895,3.0545,3.1462,3.2451,3.3394,3.4245,3.5294,3.5519,3.5519,3.5519,3.5519,3.531,3.4623,3.4414,3.3933,3.2796,3.3066,3.2976,3.175,3.2108,3.2228,3.157,0.0,0.0,3.0642,3.1092,3.1152,3.0552,3.1062,3.1421,3.1511,3.2766,3.3484,3.3484,3.6686,3.899,4.0187,4.1692,4.301,4.4137,4.3559,4.329,4.329,4.329,4.329,4.329,4.329,4.3618,4.4287,4.5005,4.5286,4.5552,4.7876,4.8447,4.8159,4.991,5.055,5.055,3.7211,3.7462,3.809,3.9446,3.9772,4.0325,4.1781,4.2283,4.2615,4.2841,4.1856,4.1078,4.0877,4.035,3.9923,3.9722,3.9697,3.932,3.8417,3.814,3.7613,3.6782,3.5429,3.4349,3.3596,3.1637,3.0507,3.0281,2.977,2.9779,3.0343,3.0343,3.0177,2.9804,2.9804,2.9804,2.9856,3.0809,3.097,3.0733,3.1646,3.2019,3.2019,3.2019,3.2629,3.3498,3.3876,3.4143,3.424,3.3636,3.2451,3.1044,3.0101,2.9804,2.9804,2.9804,2.9804,2.9804,2.9804,3.0062,3.0733,3.2227,3.2876,3.3567,3.5133,3.5519,3.5519,3.5519,3.5519,3.5429,3.513,3.4773,3.4474,3.4322,3.4173,3.3903,3.3365,3.3185,3.2856,3.2168,0.0,3.0943,3.1092,3.0972,3.112,3.1659,3.157,3.1511,3.1511,3.2766,3.3484,3.3484,3.6686,3.8841,3.9798,4.1542,4.2821,4.3678,4.3828,4.3888,4.3888,4.4317,4.4287,4.3898,4.3469,4.3439,4.3768,4.4855,4.5304,4.5465,4.722,4.7752,4.7665,4.896,4.9456,4.9536,3.9496,3.927,3.9546,4.1279,4.0752,4.0626,4.2233,4.2158,4.1856,4.1706,4.0852,4.0325,4.0501,4.0023,3.9697,3.9697,3.9697,3.922,3.809,3.8015,3.7513,3.6455,3.5303,3.4474,3.3897,3.1888,3.0758,3.0608,2.9654,2.9402,2.9804,2.9804,2.9804,2.9804,2.9804,2.9804,2.9856,3.1082,3.1462,3.1315,3.2522,3.3017,3.3017,3.3017,3.3602,3.4442,3.4442,3.4905,3.5359,3.4346,3.3122,3.1829,3.0582,3.0024,2.9804,2.9804,2.9804,2.9804,2.9804,2.9804,3.0254,3.2155,3.2593,3.3115,3.5067,3.5519,3.5519,3.5519,3.5519,3.5519,3.5519,3.51,3.4861,3.516,3.4951,3.4593,3.3993,3.3664,3.3185,3.2288,3.139,3.0883,3.1182,3.0943,3.121,3.2108,3.1959,3.178,3.178,3.2886,3.3664,3.4083,3.7075,3.92,4.0277,4.2043,4.3269,4.3888,4.4377,4.4616,4.4616,4.4885,4.4766,4.4287,4.3589,4.3409,4.3678,4.4825,4.5424,4.5723,4.686,4.7309,4.7366,4.8115,4.8377,4.846,4.0924,4.125,4.148,4.2112,4.264,4.2585,4.1476,4.13,4.11,4.0601,4.0049,3.9898,4.045,4.0023,3.9697,3.9697,3.9697,3.922,3.809,3.8015,3.7513,3.6455,3.5303,3.4474,3.3897,3.224,3.1135,3.0608,3.0055,2.9779,2.9804,2.9804,2.9804,2.9804,2.9804,2.9804,2.9934,3.1792,3.2055,3.1352,3.3227,3.3979,3.3979,3.3979,3.461,3.5457,3.5457,3.5519,3.5359,3.4346,3.3979,3.3636,3.1792,3.057,2.9804,2.9804,2.9804,2.9804,2.9804,2.9804,3.0254,3.2155,3.2593,3.3115,3.5067,3.5519,3.5519,3.5519,3.5519,3.5519,3.5519,3.5489,3.528,3.4623,3.504,3.4801,3.2826,3.3095,3.3006,3.166,3.1511,3.1241,3.0582,3.1092,3.1481,3.1511,3.2108,3.2497,3.2497,3.3125,3.4113,3.5429,3.8033,4.0337,4.2351,4.3629,4.4616,4.5274,4.5274,4.5274,4.5274,4.4616,4.4317,4.4287,4.3589,4.3678,4.4347,4.5035,4.5693,4.6381,4.704,4.7309,4.7309,4.7309,4.7309,4.7309,4.1731,4.1882,4.1957,4.2187,4.1681,4.1304,4.1275,4.0974,4.0701,4.0551,4.035,4.0174,3.9973,3.9798,3.9697,3.9697,3.9697,3.9371,3.8642,3.8216,3.7513,3.6455,3.5303,3.4474,3.3897,3.224,3.1311,3.1135,3.0231,2.9804,2.9804,2.9804,2.9804,2.9804,2.9804,2.9804,2.9934,3.1792,3.2415,3.2307,3.4274,3.5034,3.5034,3.5034,3.5198,3.5519,3.5519,3.5519,3.5424,3.5133,3.4576,3.391,3.3325,3.2046,3.062,3.0011,2.9804,2.9804,2.9804,2.9804,3.0254,3.2155,3.2593,3.3115,3.5067,3.5519,3.5519,3.5519,3.5519,3.5519,3.5519,3.5519,3.5429,3.522,3.537,3.513,3.3993,3.3634,3.3185,3.2288,3.178,3.1421,3.1182,3.178,3.2168,3.2168,3.2796,3.3185,3.3185,3.4262,3.528,3.6148,3.917,4.1265,4.2381,4.4107,4.5095,4.5304,4.5783,4.5992,4.5963,4.5304,4.4736,4.4287,4.3589,4.3678,4.4377,4.5035,4.5693,4.6381,4.704,4.7309,4.7309,4.7309,4.7309,4.7309,4.2137,4.2213,4.2087,4.1605,4.1153,4.0802,4.0727,4.0601,4.0526,4.0526,4.0325,4.0149,4.0023,3.9823,3.9697,3.9697,3.9697,3.9371,3.8592,3.8216,3.7513,3.6455,3.5303,3.455,3.4223,3.2365,3.1386,3.1386,3.0306,2.9804,2.9804,2.9804,2.9804,2.9804,2.9804,2.9804,2.9934,3.1792,3.2593,3.277,3.4706,3.5519,3.5519,3.5519,3.5519,3.5519,3.5519,3.5519,3.5519,3.5519,3.51,3.4509,3.4143,3.3192,3.2083,3.1119,3.0608,3.0305,3.0305,3.0305,3.0696,3.2227,3.2876,3.3533,3.5133,3.5519,3.5519,3.5519,3.5519,3.5519,3.5519,3.5519,3.5519,3.5519,3.5519,3.519,3.4233,3.3754,3.3245,3.2587,3.2108,3.1959,3.2228,3.2856,3.3245,3.3245,3.4322,3.4861,3.4622,3.5429,3.6297,3.7165,3.9918,4.2081,4.3489,4.4676,4.5544,4.6052,4.6501,4.6681,4.6681,4.5992,4.5454,4.4994,4.4347,4.4317,4.4736,4.5394,4.5933,4.6381,4.704,4.7309,4.7309,4.7309,4.7309,4.7309,4.2137,4.2112,4.176,4.0701,4.0849,4.0824,3.9848,4.0124,4.045,4.045,4.0023,3.9898,4.04,3.9998,3.9697,3.9697,3.9697,3.922,3.814,3.804,3.7487,3.6405,3.5303,3.47,3.46,3.2541,3.1411,3.1336,3.041,2.9907,2.9804,2.9856,2.9856,2.9804,2.9804,2.9818,3.0011,3.1829,3.2629,3.2841,3.4739,3.5519,3.5519,3.5519,3.5519,3.5519,3.5519,3.5519,3.5519,3.5519,3.5519,3.5359,3.4409,3.4081,3.391,3.2876,3.1983,3.1278,3.1278,3.1278,3.1536,3.2451,3.3429,3.4346,3.5294,3.5519,3.5519,3.5519,3.5519,3.5519,3.5519,3.5519,3.5489,3.5429,3.5429,3.4951,3.3604,3.3455,3.3245,3.2587,3.2557,3.2886,3.3514,3.4204,3.4593,3.4653,3.6297,3.7135,3.6656,3.6716,3.7315,3.8571,4.0546,4.2791,4.5334,4.5424,4.6052,4.7309,4.7309,4.7279,4.7219,4.6548,4.6249,4.619,4.5574,4.5334,4.5424,4.6052,4.6309,4.6399,4.707,4.7309,4.7309,4.7309,4.7309,4.7309,4.1455,4.1204,4.0827,4.0551,4.0275,3.9998,3.9747,3.9798,3.9898,3.9898,3.9772,3.9747,3.9873,3.9772,3.9697,3.9697,3.9697,3.9396,3.8718,3.8241,3.7337,3.5759,3.5031,3.4324,3.3495,3.2516,3.1612,3.0809,3.1242,3.0907,2.9818,3.0507,3.0495,2.9804,2.9804,3.0216,3.0932,3.2119,3.3017,3.3774,3.5001,3.5519,3.5519,3.5519,3.5519,3.5519,3.5519,3.5519,3.5519,3.5519,3.5519,3.5457,3.5198,3.5133,3.4806,3.3115,3.2451,3.2272,3.2272,3.2272,3.2486,3.3429,3.4409,3.5198,3.5424,3.5519,3.5519,3.5519,3.5519,3.5519,3.5519,3.5519,3.534,3.4801,3.4743,3.4262,3.2946,3.3185,3.3245,3.2587,3.3395,3.4114,3.4264,3.4861,3.5489,3.5968,3.6447,3.7075,3.7883,3.8931,3.9828,4.0636,4.2581,4.4407,4.6052,4.6591,4.698,4.7309,4.7309,4.704,4.6518,4.6339,4.6022,4.5544,4.5364,4.5603,4.6082,4.6219,4.6621,4.71,4.7249,4.7309,4.7309,4.7309,4.7309,4.7309,4.0953,4.0727,4.0425,4.0199,3.9898,3.9697,3.9697,3.9697,3.9798,4.0049,3.9848,3.9798,4.0049,3.9848,3.9697,3.9697,3.9697,3.9346,3.8542,3.8191,3.7387,3.5981,3.5152,3.4449,3.3847,3.2767,3.1813,3.0959,3.1656,3.1601,3.0804,3.1101,3.0932,3.0419,3.0011,3.0305,3.1241,3.22,3.3122,3.4109,3.51,3.5519,3.5519,3.5519,3.5519,3.5519,3.5519,3.5519,3.5519,3.5519,3.5519,3.5519,3.5519,3.5519,3.5294,3.424,3.3602,3.3227,3.3227,3.3227,3.3463,3.4442,3.51,3.5579,3.5878,3.5968,3.6028,3.6327,3.6387,3.6297,3.5998,3.5968,3.5639,3.4683,3.4773,3.4472,3.3155,3.3514,3.3933,3.3873,3.4502,3.519,3.5759,3.6716,3.7195,3.6926,3.8302,3.9264,3.9482,4.1681,4.2576,4.1871,4.3449,4.4945,4.6279,4.698,4.7309,4.7309,4.7309,4.713,4.677,4.677,4.6561,4.6202,4.6202,4.6411,4.677,4.677,4.698,4.7352,4.7807,4.7988,4.7988,4.7988,4.8324,4.8584,4.0475,4.04,4.0249,3.9772,3.9697,3.9697,3.9697,3.9697,3.9848,4.0325,3.9973,3.9873,4.035,3.9973,3.9697,3.9697,3.9697,3.922,3.809,3.8015,3.7487,3.6282,3.5253,3.4675,3.46,3.3119,3.2064,3.1512,3.2176,3.2364,3.217,3.1899,3.1633,3.1299,3.0558,3.0658,3.1462,3.2415,3.3359,3.4279,3.5166,3.5519,3.5519,3.5519,3.5519,3.5519,3.5519,3.5519,3.5519,3.5519,3.5519,3.5519,3.5519,3.5519,3.5519,3.5519,3.4905,3.4245,3.4245,3.4245,3.4442,3.5294,3.5579,3.5789,3.6357,3.6567,3.6776,3.7315,3.7404,3.7255,3.6716,3.6537,3.6088,3.4863,3.504,3.4921,3.3664,3.4143,3.4891,3.5579,3.5908,3.6567,3.7734,3.8901,3.917,3.8242,4.0761,4.2082,4.16,4.4356,4.517,4.3524,4.4348,4.535,4.6471,4.704,4.7309,4.7309,4.7309,4.7309,4.7309,4.7309,4.7309,4.7309,4.7309,4.7366,4.7538,4.7538,4.7624,4.7849,4.8718,4.9013,4.9013,4.9013,4.9615,5.0126,3.9848,3.9823,3.9798,3.9697,3.9697,3.9697,3.9697,3.9697,3.9722,3.9798,3.9747,3.9722,3.9823,3.9747,3.9697,3.9697,3.9697,3.922,3.809,3.8015,3.7312,3.5683,3.5031,3.45,3.4048,3.3319,3.2667,3.2089,3.39,3.4113,3.2855,3.3899,3.3548,3.202,3.2117,3.2236,3.2451,3.3394,3.4375,3.5294,3.5424,3.5519,3.5519,3.5519,3.5519,3.5519,3.5519,3.5519,3.5519,3.5519,3.5519,3.5519,3.5519,3.5519,3.5519,3.5519,3.5392,3.5294,3.5294,3.5294,3.5326,3.5457,3.5938,3.6357,3.6477,3.6896,3.7285,3.7375,3.7404,3.7375,3.7285,3.6836,3.6237,3.5459,3.4951,3.4352,3.3604,3.4562,3.5579,3.6267,3.7793,3.911,3.9858,4.0127,4.0636,4.1572,4.1778,4.2819,4.4986,4.5823,4.6889,4.8269,4.766,4.7252,4.716,4.7249,4.7309,4.7309,4.7309,4.7309,4.7309,4.7309,4.7309,4.7309,4.7309,4.7807,4.8553,4.8553,4.9125,4.9931,5.0087,5.0165,5.0165,5.0165,5.0242,5.0358,3.9697,3.9697,3.9697,3.9697,3.9697,3.9697,3.9697,3.9697,3.9697,3.9697,3.9697,3.9697,3.9697,3.9697,3.9697,3.9697,3.9697,3.922,3.809,3.8015,3.7412,3.6056,3.5454,3.4731,3.3922,3.3345,3.2943,3.2667,3.3883,3.4362,3.4221,3.3649,3.3211,3.2915,3.2181,3.2128,3.2664,3.3602,3.4576,3.5519,3.5519,3.5729,3.6028,3.6028,3.6028,3.6028,3.6028,3.5818,3.5519,3.5519,3.5519,3.5519,3.5519,3.5519,3.5519,3.5519,3.5519,3.5519,3.5519,3.5519,3.5579,3.5938,3.6267,3.6656,3.7345,3.8033,3.8601,3.896,3.929,3.932,3.8631,3.7943,3.7285,3.6626,3.5699,3.516,3.5549,3.6148,3.6926,3.7943,3.917,4.0217,4.0876,4.1302,4.1602,4.1841,4.3186,4.4617,4.6008,4.778,4.9433,5.0909,4.9272,4.8245,4.8115,4.7581,4.7309,4.7309,4.7309,4.7309,4.7309,4.7309,4.7309,4.7352,4.7861,4.8377,4.881,4.9416,4.997,5.0435,5.1005,5.1192,5.1192,5.1192,5.1594,5.1918,3.9697,3.9697,3.9697,3.9697,3.9697,3.9697,3.9697,3.9697,3.9697,3.9697,3.9697,3.9697,3.9697,3.9697,3.9697,3.9697,3.9697,3.922,3.809,3.8015,3.7513,3.6455,3.5705,3.4856,3.3922,3.3345,3.3111,3.3111,3.368,3.4353,3.5092,3.3396,3.2869,3.3403,3.2115,3.1911,3.2664,3.3602,3.4664,3.5729,3.5729,3.6118,3.6716,3.6716,3.6716,3.6686,3.6537,3.6178,3.5699,3.5549,3.5519,3.5519,3.5699,3.5729,3.5759,3.5908,3.5938,3.5908,3.5759,3.5848,3.6058,3.6567,3.6806,3.7225,3.8362,3.914,3.9828,4.0487,4.1025,4.1085,4.0068,3.932,3.8631,3.7973,3.7045,3.6716,3.7524,3.7913,3.8542,3.9738,4.0457,4.1115,4.1773,4.2282,4.2372,4.1863,4.4351,4.6147,4.6756,4.936,5.1422,5.2537,5.0569,4.9296,4.8769,4.803,4.7538,4.7309,4.7538,4.7636,4.7636,4.7934,4.8019,4.8072,4.8841,4.9296,4.9584,5.0397,5.0892,5.1225,5.1957,5.2101,5.1921,5.2205,5.2627,5.2972,3.9697,3.9697,3.9697,3.9697,3.9697,3.9697,3.9697,3.9697,3.9697,3.9697,3.9697,3.9697,3.9697,3.9697,3.9697,3.9697,3.9697,3.922,3.809,3.8015,3.7513,3.6455,3.5353,3.45,3.3922,3.3345,3.3111,3.3111,3.4111,3.468,3.4735,3.4376,3.3794,3.3024,3.2672,3.2522,3.2664,3.3602,3.4961,3.6417,3.6417,3.6776,3.7345,3.7345,3.7345,3.7255,3.6686,3.6447,3.6327,3.5699,3.5519,3.5609,3.6207,3.6417,3.6537,3.7105,3.7255,3.7135,3.6567,3.6836,3.7285,3.7315,3.7793,3.8452,3.917,3.9858,4.0516,4.1175,4.1392,4.1354,4.1265,4.0696,4.0038,3.9379,3.9164,3.8931,3.8392,3.9409,4.0457,4.1145,4.1841,4.2462,4.308,4.32,4.32,4.314,4.4755,4.6448,4.8166,4.988,5.1586,5.3349,5.2279,5.0747,4.881,4.8718,4.821,4.7309,4.8252,4.8677,4.8718,4.9694,5.0165,5.0165,5.0242,5.0817,5.1704,5.1776,5.2381,5.328,5.3348,5.28,5.2029,5.3041,5.28,5.217,3.9697,3.9697,3.9697,3.9697,3.9697,3.9697,3.9697,3.9697,3.9697,3.9697,3.9697,3.9697,3.9697,3.9697,3.9697,3.9697,3.9697,3.9371,3.8592,3.8216,3.7513,3.6455,3.5303,3.4625,3.4424,3.3872,3.3596,3.3596,3.4336,3.4848,3.5178,3.4099,3.338,3.2987,3.2444,3.2041,3.1865,3.379,3.4969,3.5639,3.6663,3.7434,3.8033,3.8033,3.8033,3.7973,3.7764,3.7404,3.7015,3.6776,3.6686,3.6716,3.6985,3.7075,3.7195,3.7823,3.8302,3.8691,3.8871,3.8182,3.7494,3.7913,3.8512,3.92,3.9888,4.0846,4.1722,4.1961,4.2312,4.2462,4.2111,4.1444,4.1055,4.1205,4.0217,3.9768,4.0763,4.0973,4.1265,4.1961,4.2581,4.321,4.3868,4.3529,4.3618,4.4496,4.5712,4.7175,4.893,5.1237,5.2773,5.3484,5.311,5.2205,5.0747,5.0126,4.9575,4.9247,4.9615,4.9773,4.9813,5.0204,5.0397,5.0435,5.1043,5.1557,5.1921,5.1921,5.2522,5.3416,5.2765,5.2277,5.2029,5.311,5.2835,5.2029,3.9697,3.9697,3.9697,3.9697,3.9697,3.9697,3.9697,3.9697,3.9697,3.9697,3.9697,3.9697,3.9697,3.9697,3.9697,3.9697,3.9697,3.9396,3.8642,3.7889,3.7161,3.643,3.5479,3.4931,3.4931,3.4449,3.4148,3.4148,3.4525,3.48,3.4994,3.3708,3.2962,3.2722,3.2084,3.1745,3.1823,3.3578,3.4795,3.5668,3.677,3.7812,3.8721,3.8721,3.8721,3.8691,3.8482,3.8093,3.7674,3.7494,3.7404,3.7494,3.7913,3.8332,3.8751,3.92,3.9679,4.0127,4.0576,3.9709,3.8751,3.923,3.9393,3.9638,4.0288,4.1154,4.1903,4.211,4.2763,4.3269,4.303,4.2611,4.2462,4.295,4.2013,4.1654,4.2821,4.2761,4.283,4.3279,4.3688,4.4137,4.4586,4.4227,4.4317,4.5214,4.6194,4.7573,4.9629,5.1801,5.3144,5.3518,5.3518,5.3144,5.2383,5.1377,5.0703,5.0397,5.0703,5.0855,5.0892,5.1225,5.1373,5.141,5.2098,5.2205,5.1921,5.1921,5.2348,5.2904,5.2205,5.1921,5.2029,5.311,5.2835,5.2029,3.9697,3.9697,3.9697,3.9697,3.9697,3.9697,3.9697,3.9697,3.9697,3.9697,3.9697,3.9697,3.9697,3.9697,3.9697,3.9697,3.9697,3.922,3.809,3.6985,3.6405,3.6405,3.583,3.5508,3.5508,3.4956,3.4726,3.4726,3.4726,3.4449,3.3897,3.3345,3.2792,3.219,3.1637,3.1928,3.2791,3.2791,3.4328,3.6761,3.6798,3.7821,3.9373,3.9373,3.9373,3.9313,3.8661,3.8422,3.8302,3.7674,3.7434,3.7674,3.902,4.0337,4.1422,4.1384,4.1384,4.1384,4.1384,4.1414,4.1414,4.1422,4.0519,3.9808,4.044,4.0625,4.0797,4.1472,4.2508,4.3499,4.4157,4.4317,4.4317,4.4317,4.4855,4.5065,4.4407,4.4885,4.5304,4.5304,4.5304,4.5304,4.5304,4.5304,4.5304,4.5304,4.5933,4.7496,5.0249,5.134,5.2383,5.345,5.3518,5.3518,5.3518,5.2418,5.1414,5.0435,5.1414,5.1921,5.1957,5.3008,5.3518,5.3518,5.3518,5.2904,5.1921,5.1921,5.1921,5.1921,5.1921,5.1921,5.2029,5.311,5.2835,5.2029,3.9697,3.9697,3.9697,3.9697,3.9697,3.9697,3.9697,3.9697,3.9697,3.9697,3.9697,3.9697,3.9697,3.9697,3.9697,3.9697,3.9697,3.922,3.809,3.7688,3.7161,3.643,3.583,3.5508,3.5508,3.5332,3.5257,3.5257,3.568,3.5579,3.5006,3.45,3.3721,3.2792,3.2215,3.1902,3.1913,3.3012,3.3953,3.4889,3.6722,3.782,3.836,3.909,3.9709,4.0098,3.9888,4.0098,4.0457,4.0247,4.0187,4.0277,4.0666,4.1055,4.1512,4.1961,4.2111,4.2201,4.2641,4.309,4.312,4.1713,4.1125,4.0904,4.1105,4.1198,4.1307,4.1474,4.2495,4.3425,4.36,4.4406,4.5005,4.5005,4.5155,4.5214,4.5035,4.5155,4.5304,4.5304,4.5304,4.5484,4.5963,4.5574,4.5693,4.6621,4.7521,4.842,4.9256,5.0935,5.2029,5.2348,5.311,5.3518,5.3518,5.3179,5.287,5.259,5.287,5.3041,5.3041,5.3348,5.3518,5.3518,5.3518,5.3314,5.2939,5.2205,5.2348,5.2939,5.2205,5.1921,5.2029,5.311,5.2835,5.2029,3.9697,3.9697,3.9697,3.9697,3.9697,3.9697,3.9697,3.9697,3.9697,3.9697,3.9697,3.9697,3.9697,3.9697,3.9697,3.9697,3.9496,3.8994,3.8065,3.7789,3.7287,3.6455,3.6031,3.5881,3.5881,3.5881,3.5881,3.5881,3.6207,3.6081,3.5483,3.5157,3.4449,3.3395,3.3043,3.2566,3.2131,3.3348,3.3964,3.4378,3.6587,3.7624,3.7947,3.9313,4.0068,4.0427,4.0696,4.1055,4.1422,4.1422,4.1602,4.1811,4.1811,4.1953,4.2222,4.2641,4.294,4.321,4.3629,4.4197,4.4407,4.324,4.2602,4.2124,4.1652,4.1558,4.1453,4.0947,4.2195,4.3502,4.3761,4.483,4.5783,4.6052,4.6082,4.6082,4.6082,4.6082,4.6082,4.6082,4.6082,4.6262,4.6681,4.6352,4.6441,4.7249,4.7861,4.8377,4.88,5.0365,5.1488,5.1885,5.2939,5.3518,5.3518,5.3518,5.3518,5.3518,5.3518,5.3518,5.3518,5.3518,5.3518,5.3518,5.3822,5.3516,5.2835,5.2503,5.2542,5.28,5.2137,5.217,5.2627,5.328,5.311,5.2627,3.9697,3.9697,3.9697,3.9697,3.9697,3.9697,3.9697,3.9697,3.9697,3.9697,3.9697,3.9697,3.9697,3.9697,3.9697,3.9697,3.922,3.8693,3.8115,3.7563,3.701,3.6505,3.643,3.6405,3.6405,3.6405,3.6405,3.6405,3.6405,3.6107,3.5583,3.5533,3.4956,3.4048,3.3997,3.3696,3.3244,3.3746,3.4272,3.4906,3.6538,3.7473,3.8063,3.9847,4.0516,4.0666,4.1265,4.1504,4.1564,4.1564,4.1991,4.25,4.25,4.2851,4.329,4.3349,4.3798,4.4317,4.4377,4.4885,4.5394,4.5394,4.468,4.3573,4.2244,4.191,4.1507,4.0224,4.1801,4.3585,4.4215,4.5332,4.6463,4.7176,4.7309,4.7309,4.7309,4.7309,4.7309,4.7309,4.7309,4.7309,4.7309,4.7309,4.7309,4.7309,4.7366,4.7849,4.8759,4.9891,5.093,5.1885,5.2939,5.3518,5.3518,5.3518,5.3518,5.3518,5.3518,5.3518,5.3518,5.3585,5.3585,5.3653,5.4363,5.3744,5.226,5.2891,5.2759,5.2128,5.2062,5.2627,5.3518,5.3518,5.3518,5.3518,3.9697,3.9697,3.9697,3.9697,3.9697,3.9697,3.9697,3.9697,3.9697,3.9697,3.9697,3.9697,3.9697,3.9697,3.9697,3.9697,3.9597,3.927,3.8718,3.814,3.7588,3.7036,3.6631,3.6405,3.6405,3.6405,3.6405,3.6405,3.6405,3.6355,3.6182,3.5708,3.5382,3.5132,3.468,3.4474,3.4374,3.45,3.4835,3.5473,3.7125,3.8118,3.8765,4.0499,4.1542,4.1991,4.2141,4.2491,4.2871,4.2871,4.2961,4.312,4.312,4.317,4.3379,4.3958,4.4197,4.4436,4.4945,4.5574,4.6082,4.6082,4.6301,4.6034,4.4219,4.348,4.2739,4.1466,4.2406,4.3519,4.3659,4.4733,4.5946,4.7076,4.7309,4.7309,4.7309,4.7309,4.7309,4.7309,4.7309,4.7309,4.7309,4.7309,4.7309,4.7309,4.803,4.8553,4.88,5.0557,5.1671,5.1885,5.2939,5.3518,5.3518,5.3518,5.3518,5.3518,5.3518,5.3518,5.3518,5.4093,5.4363,5.4397,5.5141,5.5238,5.4826,5.4458,5.4188,5.3986,5.338,5.3314,5.3518,5.3518,5.3518,5.3687,3.9697,3.9697,3.9697,3.9697,3.9697,3.9697,3.9697,3.9697,3.9697,3.9697,3.9697,3.9697,3.9697,3.9697,3.9697,3.9697,3.9697,3.9471,3.8969,3.8341,3.7764,3.7211,3.6707,3.6531,3.6807,3.6531,3.6405,3.6405,3.6405,3.6405,3.6405,3.6081,3.5805,3.5483,3.5207,3.4931,3.4751,3.4956,3.5424,3.6098,3.7794,3.8777,3.944,4.1219,4.2111,4.244,4.2731,4.303,4.329,4.329,4.329,4.3349,4.3678,4.3768,4.3888,4.4586,4.5005,4.5334,4.5693,4.6292,4.68,4.68,4.704,4.6886,4.5254,4.463,4.4069,4.2786,4.3504,4.4396,4.4396,4.5434,4.655,4.7222,4.7309,4.7309,4.7309,4.7309,4.7309,4.7309,4.7309,4.7495,4.7946,4.803,4.824,4.8749,4.9287,4.9575,4.9575,5.1043,5.1921,5.1921,5.2939,5.3518,5.3518,5.3856,5.4025,5.4025,5.4025,5.4025,5.4059,5.4803,5.5108,5.5175,5.5919,5.6055,5.5681,5.5649,5.5446,5.504,5.4296,5.4025,5.3991,5.3619,5.3518,5.3653,3.9697,3.9697,3.9697,3.9697,3.9697,3.9697,3.9697,3.9697,3.9697,3.9697,3.9697,3.9697,3.9697,3.9697,3.9697,3.9697,3.9697,3.9496,3.9095,3.8391,3.7789,3.7337,3.6757,3.6656,3.7186,3.6782,3.6606,3.6681,3.6606,3.6556,3.6556,3.6556,3.6207,3.5633,3.5865,3.5679,3.5319,3.5958,3.659,3.7353,3.8778,3.9713,4.0411,4.198,4.256,4.265,4.315,4.329,4.329,4.329,4.329,4.3409,4.4107,4.4317,4.4466,4.5244,4.5873,4.6309,4.6471,4.689,4.7309,4.7309,4.7309,4.7019,4.5958,4.5734,4.5343,4.4069,4.4627,4.5446,4.5533,4.6343,4.7092,4.7415,4.7369,4.7339,4.7459,4.7369,4.7339,4.7459,4.7512,4.7861,4.8718,4.8973,4.9456,5.032,5.055,5.0665,5.0665,5.1631,5.2137,5.2137,5.3041,5.3551,5.3687,5.4296,5.4668,5.4769,5.4905,5.4905,5.4803,5.5547,5.5919,5.5953,5.6664,5.663,5.6122,5.6596,5.6393,5.5649,5.504,5.4634,5.4329,5.3721,5.3518,5.3619,3.9697,3.9697,3.9697,3.9697,3.9697,3.9697,3.9697,3.9697,3.9697,3.9697,3.9697,3.9697,3.9697,3.9697,3.9697,3.9697,3.9697,3.9672,3.9597,3.8592,3.7965,3.7889,3.691,3.6656,3.7186,3.7111,3.7312,3.7789,3.7312,3.7061,3.7061,3.7061,3.6784,3.6351,3.7298,3.7703,3.7715,3.8826,3.9587,4.0101,4.0894,4.1546,4.2127,4.2862,4.317,4.317,4.326,4.329,4.329,4.329,4.329,4.3409,4.4107,4.4317,4.4556,4.5813,4.6219,4.6441,4.701,4.7249,4.7309,4.7309,4.7309,4.7266,4.7062,4.7019,4.6682,4.5389,4.5252,4.5561,4.6155,4.59,4.6207,4.7881,4.7668,4.7489,4.8087,4.7668,4.7519,4.8087,4.8408,4.8636,4.88,4.9655,5.0242,5.0397,5.1192,5.1704,5.1704,5.2731,5.328,5.328,5.3416,5.3822,5.4431,5.4532,5.4905,5.5581,5.619,5.619,5.5581,5.6325,5.6664,5.6697,5.7408,5.7679,5.7543,5.7036,5.6393,5.5716,5.5615,5.4769,5.3653,5.3551,5.3518,5.3619,3.9697,3.9697,3.9697,3.9697,3.9697,3.9697,3.9697,3.9697,3.9697,3.9697,3.9697,3.9697,3.9697,3.9697,3.9697,3.9697,3.9697,3.9697,3.9697,3.8642,3.8015,3.8015,3.7236,3.7086,3.7638,3.7638,3.8065,3.8944,3.8065,3.7638,3.7638,3.7337,3.7419,3.7821,3.7992,3.8469,3.9139,3.9667,4.0392,4.1184,4.1472,4.2129,4.294,4.32,4.329,4.329,4.329,4.329,4.329,4.329,4.3529,4.3988,4.4646,4.5125,4.5633,4.6591,4.686,4.692,4.7219,4.7309,4.7309,4.7309,4.7309,4.7309,4.7309,4.7309,4.7149,4.6594,4.6771,4.7124,4.7419,4.7507,4.7865,4.8731,4.8596,4.8506,4.885,4.8566,4.8386,4.8297,4.8102,4.8418,4.9575,5.0126,5.0855,5.2026,5.2522,5.28,5.28,5.3213,5.3518,5.3518,5.389,5.4262,5.46,5.5412,5.5987,5.6325,5.707,5.7036,5.6359,5.707,5.7408,5.7442,5.7746,5.7881,5.7848,5.7543,5.7205,5.69,5.6494,5.5683,5.4735,5.4735,5.4735,5.4803]}]]